<?xml version='1.0' encoding='UTF-8'?><gpx version="1.1" creator="JPX - https://github.com/jenetics/jpx" xmlns="http://www.topografix.com/GPX/1/1"><trk><trkseg><trkpt lat="40.46552672464249" lon="-3.1788998265878368"><ele>873.9999999999999</ele><time>2026-04-30T18:00:40Z</time></trkpt><trkpt lat="40.465588865672586" lon="-3.1788555252497397"><ele>874.0</ele><time>2026-04-30T18:02:18Z</time></trkpt><trkpt lat="40.46561885076131" lon="-3.178771420183287"><ele>874.0</ele><time>2026-04-30T18:02:22Z</time></trkpt><trkpt lat="40.46565042394633" lon="-3.1786918589343043"><ele>874.0</ele><time>2026-04-30T18:02:35Z</time></trkpt><trkpt lat="40.465701649355196" lon="-3.1786221947687885"><ele>873.9999999999999</ele><time>2026-04-30T18:02:39Z</time></trkpt><trkpt lat="40.46573022689993" lon="-3.178477385209133"><ele>874.0</ele><time>2026-04-30T18:02:41Z</time></trkpt><trkpt lat="40.465761798511394" lon="-3.1783614560843394"><ele>874.0</ele><time>2026-04-30T18:02:42Z</time></trkpt><trkpt lat="40.465807055206795" lon="-3.1782339602771104"><ele>874.0000000000001</ele><time>2026-04-30T18:02:43Z</time></trkpt><trkpt lat="40.465860058646605" lon="-3.1781000673663136"><ele>874.0000000000001</ele><time>2026-04-30T18:02:44Z</time></trkpt><trkpt lat="40.46590118538259" lon="-3.1779870443548575"><ele>874.0</ele><time>2026-04-30T18:02:45Z</time></trkpt><trkpt lat="40.46592993627673" lon="-3.1778944666747084"><ele>874.0</ele><time>2026-04-30T18:02:46Z</time></trkpt><trkpt lat="40.465961106531154" lon="-3.1777968001892765"><ele>874.2</ele><time>2026-04-30T18:02:47Z</time></trkpt><trkpt lat="40.46601003122233" lon="-3.1776753015730486"><ele>874.4000000000001</ele><time>2026-04-30T18:02:48Z</time></trkpt><trkpt lat="40.46605648235667" lon="-3.1775528927303656"><ele>874.6</ele><time>2026-04-30T18:02:49Z</time></trkpt><trkpt lat="40.46609730026212" lon="-3.1774474799079098"><ele>874.8</ele><time>2026-04-30T18:02:50Z</time></trkpt><trkpt lat="40.46613044555156" lon="-3.1773520851665005"><ele>875.0</ele><time>2026-04-30T18:02:51Z</time></trkpt><trkpt lat="40.46616579779706" lon="-3.17724847510734"><ele>874.6</ele><time>2026-04-30T18:02:53Z</time></trkpt><trkpt lat="40.46630046706151" lon="-3.1772902444333546"><ele>874.2</ele><time>2026-04-30T18:02:56.999Z</time></trkpt><trkpt lat="40.466382419430396" lon="-3.1773703622633716"><ele>873.8</ele><time>2026-04-30T18:02:57.999Z</time></trkpt><trkpt lat="40.46647104107515" lon="-3.1774304385834653"><ele>873.4</ele><time>2026-04-30T18:02:58.999Z</time></trkpt><trkpt lat="40.466545992878295" lon="-3.17747507267493"><ele>873.0</ele><time>2026-04-30T18:02:59.999Z</time></trkpt><trkpt lat="40.46660958460163" lon="-3.1775032079580825"><ele>872.6666666666666</ele><time>2026-04-30T18:03:00.999Z</time></trkpt><trkpt lat="40.466711194900654" lon="-3.1775335225713435"><ele>872.3333333333333</ele><time>2026-04-30T18:03:02.999Z</time></trkpt><trkpt lat="40.4667824697528" lon="-3.177572963325163"><ele>872.0</ele><time>2026-04-30T18:03:04.999Z</time></trkpt><trkpt lat="40.4668411825371" lon="-3.1776042768049186"><ele>871.6666666666666</ele><time>2026-04-30T18:03:05.999Z</time></trkpt><trkpt lat="40.46690622432542" lon="-3.1776389657530313"><ele>871.3333333333333</ele><time>2026-04-30T18:03:06.999Z</time></trkpt><trkpt lat="40.46698029540282" lon="-3.177678470387868"><ele>871.0</ele><time>2026-04-30T18:03:07.999Z</time></trkpt><trkpt lat="40.46704599153941" lon="-3.177711818823763"><ele>870.5</ele><time>2026-04-30T18:03:08.999Z</time></trkpt><trkpt lat="40.46711403548482" lon="-3.177745430759929"><ele>870.0</ele><time>2026-04-30T18:03:09.999Z</time></trkpt><trkpt lat="40.4671781991355" lon="-3.1777721509319283"><ele>869.5</ele><time>2026-04-30T18:03:10.999Z</time></trkpt><trkpt lat="40.467247052277386" lon="-3.1777988533447026"><ele>869.0</ele><time>2026-04-30T18:03:11.999Z</time></trkpt><trkpt lat="40.46750808068061" lon="-3.177384054669181"><ele>869.0000000000001</ele><time>2026-04-30T18:03:12.999Z</time></trkpt><trkpt lat="40.4676005980062" lon="-3.177395402370873"><ele>869.0</ele><time>2026-04-30T18:03:13.999Z</time></trkpt><trkpt lat="40.467690474371956" lon="-3.1774070650864825"><ele>869.0</ele><time>2026-04-30T18:03:14.999Z</time></trkpt><trkpt lat="40.4677815485367" lon="-3.177411087694341"><ele>869.0</ele><time>2026-04-30T18:03:15.999Z</time></trkpt><trkpt lat="40.4678668264919" lon="-3.1774176580451394"><ele>869.0000000000001</ele><time>2026-04-30T18:03:16.999Z</time></trkpt><trkpt lat="40.46794773684679" lon="-3.1774319218697418"><ele>869.0</ele><time>2026-04-30T18:03:17.999Z</time></trkpt><trkpt lat="40.468033985444364" lon="-3.177436567188425"><ele>868.8333333333334</ele><time>2026-04-30T18:03:18.999Z</time></trkpt><trkpt lat="40.4681160723207" lon="-3.177429421331488"><ele>868.6666666666667</ele><time>2026-04-30T18:03:19.999Z</time></trkpt><trkpt lat="40.4681984119196" lon="-3.1774284703353586"><ele>868.5</ele><time>2026-04-30T18:03:20.999Z</time></trkpt><trkpt lat="40.46828781300608" lon="-3.177435436303663"><ele>868.3333333333333</ele><time>2026-04-30T18:03:21.999Z</time></trkpt><trkpt lat="40.468385342825364" lon="-3.177439303896325"><ele>868.1666666666666</ele><time>2026-04-30T18:03:22.999Z</time></trkpt><trkpt lat="40.468469474753185" lon="-3.177447111021353"><ele>868.0</ele><time>2026-04-30T18:03:23.999Z</time></trkpt><trkpt lat="40.4685433825368" lon="-3.177448637519253"><ele>867.9999999999999</ele><time>2026-04-30T18:03:24.999Z</time></trkpt><trkpt lat="40.46862220031843" lon="-3.177437095783555"><ele>868.0</ele><time>2026-04-30T18:03:25.999Z</time></trkpt><trkpt lat="40.4686959657361" lon="-3.177433488479882"><ele>868.0</ele><time>2026-04-30T18:03:26.999Z</time></trkpt><trkpt lat="40.4687990308542" lon="-3.177434532063893"><ele>868.0</ele><time>2026-04-30T18:03:28.999Z</time></trkpt><trkpt lat="40.46888120671363" lon="-3.1774446906461957"><ele>867.9999999999999</ele><time>2026-04-30T18:03:31.999Z</time></trkpt><trkpt lat="40.46896021307552" lon="-3.1774481794276572"><ele>868.0</ele><time>2026-04-30T18:03:34.999Z</time></trkpt><trkpt lat="40.46904651478774" lon="-3.177434434635449"><ele>867.8333333333333</ele><time>2026-04-30T18:03:37.999Z</time></trkpt><trkpt lat="40.469109344048555" lon="-3.177427612872496"><ele>867.6666666666666</ele><time>2026-04-30T18:03:39.999Z</time></trkpt><trkpt lat="40.469195186665324" lon="-3.1774161583087754"><ele>867.5</ele><time>2026-04-30T18:03:43Z</time></trkpt><trkpt lat="40.4692851730937" lon="-3.177402784425739"><ele>867.3333333333333</ele><time>2026-04-30T18:03:46Z</time></trkpt><trkpt lat="40.46935515702283" lon="-3.177385458744594"><ele>867.1666666666666</ele><time>2026-04-30T18:03:48Z</time></trkpt><trkpt lat="40.46944383621497" lon="-3.177355372044354"><ele>867.0</ele><time>2026-04-30T18:03:50Z</time></trkpt><trkpt lat="40.46953194467278" lon="-3.1773406247129197"><ele>867.6666666666666</ele><time>2026-04-30T18:03:52Z</time></trkpt><trkpt lat="40.46962219690717" lon="-3.177328605909742"><ele>868.3333333333333</ele><time>2026-04-30T18:03:54Z</time></trkpt><trkpt lat="40.46971227212274" lon="-3.17732144055203"><ele>869.0</ele><time>2026-04-30T18:03:56Z</time></trkpt><trkpt lat="40.469779463124226" lon="-3.1773128713627763"><ele>869.6666666666666</ele><time>2026-04-30T18:03:58Z</time></trkpt><trkpt lat="40.4698623221699" lon="-3.1773031708150237"><ele>870.3333333333333</ele><time>2026-04-30T18:04:00Z</time></trkpt><trkpt lat="40.469940869450845" lon="-3.1772950077277695"><ele>871.0</ele><time>2026-04-30T18:04:02Z</time></trkpt><trkpt lat="40.4700273558819" lon="-3.1773042816231856"><ele>870.9999999999999</ele><time>2026-04-30T18:04:05Z</time></trkpt><trkpt lat="40.470102120226024" lon="-3.1772843068902334"><ele>871.0</ele><time>2026-04-30T18:04:08Z</time></trkpt><trkpt lat="40.470179203240335" lon="-3.177264017214496"><ele>871.0</ele><time>2026-04-30T18:04:10Z</time></trkpt><trkpt lat="40.47024573799232" lon="-3.1772392816638364"><ele>871.0</ele><time>2026-04-30T18:04:12Z</time></trkpt><trkpt lat="40.470321507438236" lon="-3.177233242980772"><ele>870.9999999999999</ele><time>2026-04-30T18:04:14Z</time></trkpt><trkpt lat="40.4704027296032" lon="-3.1772232716215467"><ele>871.0</ele><time>2026-04-30T18:04:16Z</time></trkpt><trkpt lat="40.470482470976236" lon="-3.1772040648538398"><ele>870.6666666666666</ele><time>2026-04-30T18:04:18Z</time></trkpt><trkpt lat="40.47055926209196" lon="-3.1771915169751805"><ele>870.3333333333333</ele><time>2026-04-30T18:04:20Z</time></trkpt><trkpt lat="40.470624512364836" lon="-3.1771814748813947"><ele>870.0</ele><time>2026-04-30T18:04:24Z</time></trkpt><trkpt lat="40.4707000504799" lon="-3.177162958358497"><ele>869.6666666666667</ele><time>2026-04-30T18:04:33Z</time></trkpt><trkpt lat="40.470826263952624" lon="-3.1771360508985484"><ele>869.3333333333334</ele><time>2026-04-30T18:04:35Z</time></trkpt><trkpt lat="40.470899566907164" lon="-3.177115132913004"><ele>869.0</ele><time>2026-04-30T18:04:36Z</time></trkpt><trkpt lat="40.47097648524054" lon="-3.1770924271169814"><ele>869.0000000000001</ele><time>2026-04-30T18:04:37Z</time></trkpt><trkpt lat="40.471059597267704" lon="-3.1770764093263137"><ele>869.0</ele><time>2026-04-30T18:04:38Z</time></trkpt><trkpt lat="40.47114514929939" lon="-3.177053341984506"><ele>869.0</ele><time>2026-04-30T18:04:39Z</time></trkpt><trkpt lat="40.47123367305438" lon="-3.1770485974496614"><ele>869.0</ele><time>2026-04-30T18:04:40Z</time></trkpt><trkpt lat="40.471325244918845" lon="-3.1770339480838863"><ele>869.0000000000001</ele><time>2026-04-30T18:04:41Z</time></trkpt><trkpt lat="40.471420421584924" lon="-3.177028605878573"><ele>869.0</ele><time>2026-04-30T18:04:42Z</time></trkpt><trkpt lat="40.471511544732614" lon="-3.1770306239286525"><ele>869.0000000000001</ele><time>2026-04-30T18:04:43Z</time></trkpt><trkpt lat="40.47160474196884" lon="-3.1770219808712987"><ele>869.0</ele><time>2026-04-30T18:04:44Z</time></trkpt><trkpt lat="40.4716952049255" lon="-3.177009476226834"><ele>869.0</ele><time>2026-04-30T18:04:45Z</time></trkpt><trkpt lat="40.4717718611789" lon="-3.1770032274361655"><ele>869.0</ele><time>2026-04-30T18:04:46Z</time></trkpt><trkpt lat="40.47184395903547" lon="-3.1769935200719512"><ele>869.0000000000001</ele><time>2026-04-30T18:04:47Z</time></trkpt><trkpt lat="40.471918489600554" lon="-3.176971620095283"><ele>869.0</ele><time>2026-04-30T18:04:48Z</time></trkpt><trkpt lat="40.471999549427764" lon="-3.176955480650159"><ele>869.0000000000001</ele><time>2026-04-30T18:04:49Z</time></trkpt><trkpt lat="40.47208344336176" lon="-3.17693744076561"><ele>869.0</ele><time>2026-04-30T18:04:50Z</time></trkpt><trkpt lat="40.47216472172936" lon="-3.176919337420004"><ele>869.0</ele><time>2026-04-30T18:04:51Z</time></trkpt><trkpt lat="40.47224497999563" lon="-3.176900981286384"><ele>869.0</ele><time>2026-04-30T18:04:52Z</time></trkpt><trkpt lat="40.472330591424196" lon="-3.1768845821294818"><ele>869.0000000000001</ele><time>2026-04-30T18:04:53Z</time></trkpt><trkpt lat="40.47241234269983" lon="-3.1768702008279774"><ele>869.0</ele><time>2026-04-30T18:04:54Z</time></trkpt><trkpt lat="40.47248822489218" lon="-3.1768463615584994"><ele>869.2857142857143</ele><time>2026-04-30T18:04:55Z</time></trkpt><trkpt lat="40.47255662341837" lon="-3.1768235783757532"><ele>869.5714285714286</ele><time>2026-04-30T18:04:56Z</time></trkpt><trkpt lat="40.472622663229004" lon="-3.1768019792636615"><ele>869.8571428571429</ele><time>2026-04-30T18:04:57Z</time></trkpt><trkpt lat="40.472690437193954" lon="-3.1767965166292607"><ele>870.1428571428571</ele><time>2026-04-30T18:04:58Z</time></trkpt><trkpt lat="40.47275568194575" lon="-3.1767767028194287"><ele>870.4285714285713</ele><time>2026-04-30T18:04:59Z</time></trkpt><trkpt lat="40.47282141911196" lon="-3.1767657697581857"><ele>870.7142857142857</ele><time>2026-04-30T18:05:00Z</time></trkpt><trkpt lat="40.4728898307088" lon="-3.17675807126821"><ele>871.0</ele><time>2026-04-30T18:05:01Z</time></trkpt><trkpt lat="40.47296077564144" lon="-3.176740732632339"><ele>871.1428571428571</ele><time>2026-04-30T18:05:02Z</time></trkpt><trkpt lat="40.473032333044635" lon="-3.1767282777087718"><ele>871.2857142857142</ele><time>2026-04-30T18:05:03Z</time></trkpt><trkpt lat="40.47310725837669" lon="-3.1767134448390384"><ele>871.4285714285714</ele><time>2026-04-30T18:05:03.999Z</time></trkpt><trkpt lat="40.4731779669333" lon="-3.1767081648969904"><ele>871.5714285714286</ele><time>2026-04-30T18:05:04.999Z</time></trkpt><trkpt lat="40.47324549699098" lon="-3.1767005317397197"><ele>871.7142857142858</ele><time>2026-04-30T18:05:05.999Z</time></trkpt><trkpt lat="40.47331089801314" lon="-3.176701068080993"><ele>871.8571428571429</ele><time>2026-04-30T18:05:06.999Z</time></trkpt><trkpt lat="40.473378209974676" lon="-3.176695822874997"><ele>872.0</ele><time>2026-04-30T18:05:07.999Z</time></trkpt><trkpt lat="40.47345054515973" lon="-3.1766739681291556"><ele>872.0000000000001</ele><time>2026-04-30T18:05:17.999Z</time></trkpt><trkpt lat="40.47352836793279" lon="-3.176658231183432"><ele>872.0</ele><time>2026-04-30T18:05:20.999Z</time></trkpt><trkpt lat="40.473599489752075" lon="-3.176635092124683"><ele>872.0</ele><time>2026-04-30T18:05:33.999Z</time></trkpt><trkpt lat="40.47369107356396" lon="-3.1766122023687178"><ele>872.0</ele><time>2026-04-30T18:05:36.999Z</time></trkpt><trkpt lat="40.47376091914821" lon="-3.176587744978041"><ele>872.0000000000001</ele><time>2026-04-30T18:05:38.999Z</time></trkpt><trkpt lat="40.47384038218431" lon="-3.1765702795763935"><ele>872.0</ele><time>2026-04-30T18:05:40.999Z</time></trkpt><trkpt lat="40.47391890986721" lon="-3.1765557281187005"><ele>872.4000000000001</ele><time>2026-04-30T18:05:42.999Z</time></trkpt><trkpt lat="40.47400617096448" lon="-3.1765386081836535"><ele>872.8000000000001</ele><time>2026-04-30T18:05:44.999Z</time></trkpt><trkpt lat="40.474083944144546" lon="-3.1765232322927957"><ele>873.2</ele><time>2026-04-30T18:05:46.999Z</time></trkpt><trkpt lat="40.47417044009732" lon="-3.1765111920637694"><ele>873.6</ele><time>2026-04-30T18:05:49Z</time></trkpt><trkpt lat="40.47426988210867" lon="-3.1764960338725756"><ele>874.0</ele><time>2026-04-30T18:05:51Z</time></trkpt><trkpt lat="40.474385573475104" lon="-3.176475063880322"><ele>873.9999999999999</ele><time>2026-04-30T18:05:53Z</time></trkpt><trkpt lat="40.4745106206171" lon="-3.176450992288452"><ele>874.0</ele><time>2026-04-30T18:05:55Z</time></trkpt><trkpt lat="40.4745741798649" lon="-3.176433340917981"><ele>874.0</ele><time>2026-04-30T18:05:56Z</time></trkpt><trkpt lat="40.474644468314956" lon="-3.1764161705674083"><ele>874.0</ele><time>2026-04-30T18:05:57Z</time></trkpt><trkpt lat="40.474718476914965" lon="-3.17639801808114"><ele>873.9999999999999</ele><time>2026-04-30T18:05:58Z</time></trkpt><trkpt lat="40.47479133152389" lon="-3.1763786916577463"><ele>874.0</ele><time>2026-04-30T18:05:59Z</time></trkpt><trkpt lat="40.47486654308841" lon="-3.1763588927216198"><ele>874.3333333333333</ele><time>2026-04-30T18:06:00Z</time></trkpt><trkpt lat="40.4749351690207" lon="-3.176333920132673"><ele>874.6666666666666</ele><time>2026-04-30T18:06:01Z</time></trkpt><trkpt lat="40.47500633798656" lon="-3.176314663487964"><ele>875.0</ele><time>2026-04-30T18:06:02Z</time></trkpt><trkpt lat="40.475073031652045" lon="-3.1763049117289843"><ele>875.3333333333333</ele><time>2026-04-30T18:06:03Z</time></trkpt><trkpt lat="40.47514097788896" lon="-3.176299989587561"><ele>875.6666666666666</ele><time>2026-04-30T18:06:04Z</time></trkpt><trkpt lat="40.475258072867454" lon="-3.1762728575091024"><ele>876.0</ele><time>2026-04-30T18:06:06Z</time></trkpt><trkpt lat="40.47535640078742" lon="-3.176267572419768"><ele>875.8333333333334</ele><time>2026-04-30T18:06:08Z</time></trkpt><trkpt lat="40.475446036277006" lon="-3.176258000858035"><ele>875.6666666666667</ele><time>2026-04-30T18:06:10Z</time></trkpt><trkpt lat="40.475524988525244" lon="-3.176258131072421"><ele>875.5</ele><time>2026-04-30T18:06:12Z</time></trkpt><trkpt lat="40.47559310685011" lon="-3.1762627921035684"><ele>875.3333333333334</ele><time>2026-04-30T18:06:14Z</time></trkpt><trkpt lat="40.47567425771851" lon="-3.1762641288953586"><ele>875.1666666666667</ele><time>2026-04-30T18:06:16Z</time></trkpt><trkpt lat="40.47576859721701" lon="-3.1762626828877893"><ele>875.0</ele><time>2026-04-30T18:06:18Z</time></trkpt><trkpt lat="40.475893512533474" lon="-3.1762594868940695"><ele>875.0000000000001</ele><time>2026-04-30T18:06:20Z</time></trkpt><trkpt lat="40.476015781613" lon="-3.1762500529177102"><ele>875.0</ele><time>2026-04-30T18:06:22Z</time></trkpt><trkpt lat="40.476082348267596" lon="-3.176242104906032"><ele>875.0</ele><time>2026-04-30T18:06:23Z</time></trkpt><trkpt lat="40.47614585948465" lon="-3.176247709012533"><ele>875.0</ele><time>2026-04-30T18:06:24Z</time></trkpt><trkpt lat="40.47621557973781" lon="-3.1762452276229425"><ele>875.0000000000001</ele><time>2026-04-30T18:06:25Z</time></trkpt><trkpt lat="40.47628520731531" lon="-3.176246959878999"><ele>875.0</ele><time>2026-04-30T18:06:26Z</time></trkpt><trkpt lat="40.47634831107216" lon="-3.1762437928217424"><ele>875.5000000000001</ele><time>2026-04-30T18:06:27Z</time></trkpt><trkpt lat="40.47641118185857" lon="-3.176232268770596"><ele>876.0</ele><time>2026-04-30T18:06:28Z</time></trkpt><trkpt lat="40.476534206464756" lon="-3.176221356793201"><ele>876.5</ele><time>2026-04-30T18:06:30Z</time></trkpt><trkpt lat="40.476602332568476" lon="-3.1762162067856283"><ele>877.0</ele><time>2026-04-30T18:06:31Z</time></trkpt><trkpt lat="40.476676058081416" lon="-3.176219737875197"><ele>877.5000000000001</ele><time>2026-04-30T18:06:32Z</time></trkpt><trkpt lat="40.476756366906756" lon="-3.176220969787396"><ele>878.0</ele><time>2026-04-30T18:06:33Z</time></trkpt><trkpt lat="40.47683724558732" lon="-3.176223526370633"><ele>878.0</ele><time>2026-04-30T18:06:34Z</time></trkpt><trkpt lat="40.476917737849625" lon="-3.176226425430573"><ele>878.0</ele><time>2026-04-30T18:06:35Z</time></trkpt><trkpt lat="40.476984975937825" lon="-3.176228982884428"><ele>878.0</ele><time>2026-04-30T18:06:36Z</time></trkpt><trkpt lat="40.477077786339315" lon="-3.1761697022949003"><ele>878.0</ele><time>2026-04-30T18:06:39Z</time></trkpt><trkpt lat="40.477172374489285" lon="-3.1761995613139953"><ele>878.0</ele><time>2026-04-30T18:06:41Z</time></trkpt><trkpt lat="40.477282232283386" lon="-3.176221171079585"><ele>877.8</ele><time>2026-04-30T18:06:43Z</time></trkpt><trkpt lat="40.47739219189817" lon="-3.1762411212102992"><ele>877.5999999999999</ele><time>2026-04-30T18:06:45Z</time></trkpt><trkpt lat="40.47749523382195" lon="-3.1762680230182316"><ele>877.4000000000001</ele><time>2026-04-30T18:06:47Z</time></trkpt><trkpt lat="40.477597045221486" lon="-3.1762879810963356"><ele>877.2</ele><time>2026-04-30T18:06:49Z</time></trkpt><trkpt lat="40.47769292172696" lon="-3.1762847436405277"><ele>877.0</ele><time>2026-04-30T18:06:51Z</time></trkpt><trkpt lat="40.47778909122374" lon="-3.1762991602954656"><ele>877.0</ele><time>2026-04-30T18:06:53Z</time></trkpt><trkpt lat="40.47787973710211" lon="-3.1763433811969186"><ele>877.0</ele><time>2026-04-30T18:06:55Z</time></trkpt><trkpt lat="40.47797123022412" lon="-3.176383188065154"><ele>877.0</ele><time>2026-04-30T18:06:57Z</time></trkpt><trkpt lat="40.478067553506214" lon="-3.1764226743910986"><ele>877.0</ele><time>2026-04-30T18:06:59Z</time></trkpt><trkpt lat="40.478161207645016" lon="-3.1764625710133996"><ele>877.0</ele><time>2026-04-30T18:07:01Z</time></trkpt><trkpt lat="40.478266253516246" lon="-3.1764970887923454"><ele>877.2</ele><time>2026-04-30T18:07:03Z</time></trkpt><trkpt lat="40.47838064174089" lon="-3.1765479368746745"><ele>877.4000000000001</ele><time>2026-04-30T18:07:05Z</time></trkpt><trkpt lat="40.47849934085158" lon="-3.1766002686764456"><ele>877.5999999999999</ele><time>2026-04-30T18:07:07Z</time></trkpt><trkpt lat="40.478612236206075" lon="-3.176650945332748"><ele>877.8</ele><time>2026-04-30T18:07:09Z</time></trkpt><trkpt lat="40.47867444750116" lon="-3.176677089600766"><ele>878.0</ele><time>2026-04-30T18:07:10Z</time></trkpt><trkpt lat="40.47874265608604" lon="-3.1767040188593523"><ele>877.6666666666667</ele><time>2026-04-30T18:07:11Z</time></trkpt><trkpt lat="40.47881289009567" lon="-3.176733795591639"><ele>877.3333333333334</ele><time>2026-04-30T18:07:12Z</time></trkpt><trkpt lat="40.47888916920838" lon="-3.176772776426255"><ele>877.0</ele><time>2026-04-30T18:07:13Z</time></trkpt><trkpt lat="40.47895992414197" lon="-3.176817018781009"><ele>876.6666666666667</ele><time>2026-04-30T18:07:13.999Z</time></trkpt><trkpt lat="40.479033210957645" lon="-3.1768677480333407"><ele>876.3333333333334</ele><time>2026-04-30T18:07:14.999Z</time></trkpt><trkpt lat="40.479105094470015" lon="-3.17692315253149"><ele>876.0</ele><time>2026-04-30T18:07:15.999Z</time></trkpt><trkpt lat="40.47917503904197" lon="-3.176974314224772"><ele>876.0</ele><time>2026-04-30T18:07:16.999Z</time></trkpt><trkpt lat="40.479250313008336" lon="-3.1770091162401646"><ele>876.0</ele><time>2026-04-30T18:07:17.999Z</time></trkpt><trkpt lat="40.479322657289565" lon="-3.1770445011464714"><ele>876.0</ele><time>2026-04-30T18:07:18.999Z</time></trkpt><trkpt lat="40.47939846692433" lon="-3.177076002900872"><ele>876.0</ele><time>2026-04-30T18:07:19.999Z</time></trkpt><trkpt lat="40.47947789939686" lon="-3.177118880577152"><ele>876.0</ele><time>2026-04-30T18:07:20.999Z</time></trkpt><trkpt lat="40.479572239696125" lon="-3.1771553658800338"><ele>876.0</ele><time>2026-04-30T18:07:21.999Z</time></trkpt><trkpt lat="40.47964778724296" lon="-3.1771843143768312"><ele>876.5</ele><time>2026-04-30T18:07:22.999Z</time></trkpt><trkpt lat="40.47972405919061" lon="-3.1772241561719174"><ele>877.0</ele><time>2026-04-30T18:07:23.999Z</time></trkpt><trkpt lat="40.479797554670505" lon="-3.1772519245583264"><ele>877.5</ele><time>2026-04-30T18:07:24.999Z</time></trkpt><trkpt lat="40.47987317000489" lon="-3.177270243179365"><ele>878.0</ele><time>2026-04-30T18:07:25.999Z</time></trkpt><trkpt lat="40.47995059688624" lon="-3.1772766666073564"><ele>878.5</ele><time>2026-04-30T18:07:26.999Z</time></trkpt><trkpt lat="40.48002404944401" lon="-3.1772897397130797"><ele>879.0</ele><time>2026-04-30T18:07:27.999Z</time></trkpt><trkpt lat="40.48008850663105" lon="-3.177300338480864"><ele>879.0</ele><time>2026-04-30T18:07:28.999Z</time></trkpt><trkpt lat="40.48021304319978" lon="-3.1773094286470527"><ele>879.0</ele><time>2026-04-30T18:07:30.999Z</time></trkpt><trkpt lat="40.480283405646674" lon="-3.177310317580215"><ele>879.0</ele><time>2026-04-30T18:07:31.999Z</time></trkpt><trkpt lat="40.480352678606344" lon="-3.1773243377943903"><ele>879.0</ele><time>2026-04-30T18:07:32.999Z</time></trkpt><trkpt lat="40.48042654473545" lon="-3.17733758350597"><ele>879.0</ele><time>2026-04-30T18:07:33.999Z</time></trkpt><trkpt lat="40.48050803078266" lon="-3.1773405752295143"><ele>879.0</ele><time>2026-04-30T18:07:34.999Z</time></trkpt><trkpt lat="40.480591251108024" lon="-3.177338670973817"><ele>878.8333333333334</ele><time>2026-04-30T18:07:35.999Z</time></trkpt><trkpt lat="40.48067586634446" lon="-3.1773381680591064"><ele>878.6666666666667</ele><time>2026-04-30T18:07:36.999Z</time></trkpt><trkpt lat="40.48076537587421" lon="-3.1773464036553105"><ele>878.5</ele><time>2026-04-30T18:07:37.999Z</time></trkpt><trkpt lat="40.48085262895511" lon="-3.177354851936492"><ele>878.3333333333334</ele><time>2026-04-30T18:07:38.999Z</time></trkpt><trkpt lat="40.480942977419524" lon="-3.1773675992762302"><ele>878.1666666666667</ele><time>2026-04-30T18:07:39.999Z</time></trkpt><trkpt lat="40.481037274364844" lon="-3.1773623488203735"><ele>878.0</ele><time>2026-04-30T18:07:40.999Z</time></trkpt><trkpt lat="40.48113103872897" lon="-3.1773437968805274"><ele>877.8</ele><time>2026-04-30T18:07:41.999Z</time></trkpt><trkpt lat="40.48122274219354" lon="-3.177337062533188"><ele>877.5999999999999</ele><time>2026-04-30T18:07:42.999Z</time></trkpt><trkpt lat="40.48131441629671" lon="-3.177317324353034"><ele>877.4000000000001</ele><time>2026-04-30T18:07:43.999Z</time></trkpt><trkpt lat="40.48140367120821" lon="-3.177287924064142"><ele>877.2</ele><time>2026-04-30T18:07:44.999Z</time></trkpt><trkpt lat="40.481484764393265" lon="-3.1772524798288004"><ele>877.0</ele><time>2026-04-30T18:07:45.999Z</time></trkpt><trkpt lat="40.48157073321239" lon="-3.1772130458791543"><ele>877.0</ele><time>2026-04-30T18:07:46.999Z</time></trkpt><trkpt lat="40.48165825087687" lon="-3.177169382850798"><ele>877.0</ele><time>2026-04-30T18:07:47.999Z</time></trkpt><trkpt lat="40.4817458064299" lon="-3.1771258535986764"><ele>877.0</ele><time>2026-04-30T18:07:48.999Z</time></trkpt><trkpt lat="40.48183467185724" lon="-3.1770791733739294"><ele>877.0</ele><time>2026-04-30T18:07:49.999Z</time></trkpt><trkpt lat="40.48192455706647" lon="-3.1770264511752577"><ele>877.0</ele><time>2026-04-30T18:07:50.999Z</time></trkpt><trkpt lat="40.482015522783875" lon="-3.1769719323729384"><ele>876.8</ele><time>2026-04-30T18:07:51.999Z</time></trkpt><trkpt lat="40.48210973333677" lon="-3.176920999027829"><ele>876.6</ele><time>2026-04-30T18:07:53Z</time></trkpt><trkpt lat="40.482204484027775" lon="-3.176869152343185"><ele>876.3999999999999</ele><time>2026-04-30T18:07:54Z</time></trkpt><trkpt lat="40.48229976351047" lon="-3.1768208060577674"><ele>876.1999999999999</ele><time>2026-04-30T18:07:55Z</time></trkpt><trkpt lat="40.48239396935834" lon="-3.176774038966525"><ele>876.0</ele><time>2026-04-30T18:07:56Z</time></trkpt><trkpt lat="40.482491328128845" lon="-3.176733782362713"><ele>876.0</ele><time>2026-04-30T18:07:57Z</time></trkpt><trkpt lat="40.482586714840075" lon="-3.1766880977200835"><ele>875.9999999999999</ele><time>2026-04-30T18:07:58Z</time></trkpt><trkpt lat="40.48268470520869" lon="-3.1766497476294555"><ele>875.9999999999999</ele><time>2026-04-30T18:07:59Z</time></trkpt><trkpt lat="40.48278247919942" lon="-3.176625494891217"><ele>876.0</ele><time>2026-04-30T18:08:00Z</time></trkpt><trkpt lat="40.482878183380826" lon="-3.1765958424913356"><ele>876.0</ele><time>2026-04-30T18:08:01Z</time></trkpt><trkpt lat="40.48297123008933" lon="-3.1765682239195785"><ele>876.5999999999999</ele><time>2026-04-30T18:08:02Z</time></trkpt><trkpt lat="40.483069470188944" lon="-3.1765513075603367"><ele>877.1999999999999</ele><time>2026-04-30T18:08:03Z</time></trkpt><trkpt lat="40.48316721365222" lon="-3.1765389311190506"><ele>877.8000000000001</ele><time>2026-04-30T18:08:04Z</time></trkpt><trkpt lat="40.483264114782536" lon="-3.176525396857785"><ele>878.4000000000001</ele><time>2026-04-30T18:08:05Z</time></trkpt><trkpt lat="40.48336282187908" lon="-3.176514350419897"><ele>879.0</ele><time>2026-04-30T18:08:06Z</time></trkpt><trkpt lat="40.48345886296444" lon="-3.1765116853754005"><ele>879.2</ele><time>2026-04-30T18:08:07Z</time></trkpt><trkpt lat="40.48355098077945" lon="-3.176498438933989"><ele>879.4000000000001</ele><time>2026-04-30T18:08:08Z</time></trkpt><trkpt lat="40.48364129937927" lon="-3.1764886469566997"><ele>879.6</ele><time>2026-04-30T18:08:09Z</time></trkpt><trkpt lat="40.4837369846702" lon="-3.1764870395218896"><ele>879.8</ele><time>2026-04-30T18:08:10Z</time></trkpt><trkpt lat="40.483832805862264" lon="-3.176483944021301"><ele>880.0</ele><time>2026-04-30T18:08:11Z</time></trkpt><trkpt lat="40.48393099017957" lon="-3.1764870502887352"><ele>880.8</ele><time>2026-04-30T18:08:12Z</time></trkpt><trkpt lat="40.48402635466764" lon="-3.1764946304024018"><ele>881.6</ele><time>2026-04-30T18:08:13Z</time></trkpt><trkpt lat="40.48412202431917" lon="-3.176501341533018"><ele>882.4000000000001</ele><time>2026-04-30T18:08:14Z</time></trkpt><trkpt lat="40.484218431612376" lon="-3.1765024299574915"><ele>883.2</ele><time>2026-04-30T18:08:15Z</time></trkpt><trkpt lat="40.48431476106289" lon="-3.1765025180252975"><ele>884.0</ele><time>2026-04-30T18:08:16Z</time></trkpt><trkpt lat="40.48441411318495" lon="-3.176505492125883"><ele>884.0</ele><time>2026-04-30T18:08:17Z</time></trkpt><trkpt lat="40.48451078759579" lon="-3.1765128486769436"><ele>884.0000000000001</ele><time>2026-04-30T18:08:18Z</time></trkpt><trkpt lat="40.4846109496463" lon="-3.1765174073397455"><ele>884.0000000000001</ele><time>2026-04-30T18:08:19Z</time></trkpt><trkpt lat="40.48471073299115" lon="-3.1765251654788056"><ele>884.0</ele><time>2026-04-30T18:08:20Z</time></trkpt><trkpt lat="40.48480924610121" lon="-3.176536483478111"><ele>884.0</ele><time>2026-04-30T18:08:21Z</time></trkpt><trkpt lat="40.48490980719984" lon="-3.176542281024704"><ele>884.0</ele><time>2026-04-30T18:08:22Z</time></trkpt><trkpt lat="40.48500960081439" lon="-3.1765440356937646"><ele>884.0000000000001</ele><time>2026-04-30T18:08:23Z</time></trkpt><trkpt lat="40.48511378850785" lon="-3.1765495132260324"><ele>884.0000000000001</ele><time>2026-04-30T18:08:24Z</time></trkpt><trkpt lat="40.485219716025426" lon="-3.1765497939796146"><ele>884.0</ele><time>2026-04-30T18:08:25Z</time></trkpt><trkpt lat="40.485325391010896" lon="-3.1765542530501847"><ele>884.0</ele><time>2026-04-30T18:08:26Z</time></trkpt><trkpt lat="40.485430609102536" lon="-3.1765550258710578"><ele>884.0</ele><time>2026-04-30T18:08:27Z</time></trkpt><trkpt lat="40.48552512541192" lon="-3.1765513399959864"><ele>884.0000000000001</ele><time>2026-04-30T18:08:28Z</time></trkpt><trkpt lat="40.485620133310825" lon="-3.176547161906125"><ele>884.0000000000001</ele><time>2026-04-30T18:08:29Z</time></trkpt><trkpt lat="40.48571672943037" lon="-3.1765537122763647"><ele>884.0</ele><time>2026-04-30T18:08:30Z</time></trkpt><trkpt lat="40.48581355514506" lon="-3.176566103793434"><ele>884.0</ele><time>2026-04-30T18:08:31Z</time></trkpt><trkpt lat="40.48590844723843" lon="-3.1765737623660533"><ele>884.0</ele><time>2026-04-30T18:08:32Z</time></trkpt><trkpt lat="40.486000755558955" lon="-3.1765852106350865"><ele>884.0000000000001</ele><time>2026-04-30T18:08:33Z</time></trkpt><trkpt lat="40.48609211446395" lon="-3.1765916742377844"><ele>884.0000000000001</ele><time>2026-04-30T18:08:34Z</time></trkpt><trkpt lat="40.486182597398304" lon="-3.176599948695122"><ele>884.0</ele><time>2026-04-30T18:08:35Z</time></trkpt><trkpt lat="40.48627576321085" lon="-3.1766068231589912"><ele>884.0</ele><time>2026-04-30T18:08:36Z</time></trkpt><trkpt lat="40.48637065657637" lon="-3.1766147111929706"><ele>884.3333333333334</ele><time>2026-04-30T18:08:37Z</time></trkpt><trkpt lat="40.486468662732506" lon="-3.176624585830807"><ele>884.6666666666667</ele><time>2026-04-30T18:08:38Z</time></trkpt><trkpt lat="40.48656302766076" lon="-3.1766370979398535"><ele>885.0</ele><time>2026-04-30T18:08:39Z</time></trkpt><trkpt lat="40.48664608298339" lon="-3.1766450450132973"><ele>885.3333333333333</ele><time>2026-04-30T18:08:40Z</time></trkpt><trkpt lat="40.48672524324982" lon="-3.1766518838831517"><ele>885.6666666666666</ele><time>2026-04-30T18:08:41Z</time></trkpt><trkpt lat="40.48681091121581" lon="-3.1766578168008324"><ele>886.0</ele><time>2026-04-30T18:08:42Z</time></trkpt><trkpt lat="40.48690797416869" lon="-3.1766551413425748"><ele>886.0</ele><time>2026-04-30T18:08:43Z</time></trkpt><trkpt lat="40.48701848710169" lon="-3.176665216278551"><ele>886.0</ele><time>2026-04-30T18:08:44Z</time></trkpt><trkpt lat="40.48713588534582" lon="-3.1766727155452696"><ele>886.0</ele><time>2026-04-30T18:08:45Z</time></trkpt><trkpt lat="40.48726103466505" lon="-3.1766907735914858"><ele>886.0</ele><time>2026-04-30T18:08:46Z</time></trkpt><trkpt lat="40.48739022667596" lon="-3.1767239202631603"><ele>886.5</ele><time>2026-04-30T18:08:47Z</time></trkpt><trkpt lat="40.4875199641799" lon="-3.176762355065346"><ele>887.0</ele><time>2026-04-30T18:08:48Z</time></trkpt><trkpt lat="40.48763210991407" lon="-3.17679856136421"><ele>887.5</ele><time>2026-04-30T18:08:49Z</time></trkpt><trkpt lat="40.48773872011769" lon="-3.176832758922202"><ele>888.0</ele><time>2026-04-30T18:08:50Z</time></trkpt><trkpt lat="40.48783517929977" lon="-3.176865459864148"><ele>887.8</ele><time>2026-04-30T18:08:51Z</time></trkpt><trkpt lat="40.487935442593326" lon="-3.176891686821435"><ele>887.5999999999999</ele><time>2026-04-30T18:08:52Z</time></trkpt><trkpt lat="40.48803883652629" lon="-3.1769161228583362"><ele>887.4000000000001</ele><time>2026-04-30T18:08:53Z</time></trkpt><trkpt lat="40.48814074767829" lon="-3.176937377274066"><ele>887.2</ele><time>2026-04-30T18:08:54Z</time></trkpt><trkpt lat="40.488241880465154" lon="-3.1769686815242495"><ele>887.0</ele><time>2026-04-30T18:08:55Z</time></trkpt><trkpt lat="40.488341981063556" lon="-3.1770249440794873"><ele>887.0</ele><time>2026-04-30T18:08:56Z</time></trkpt><trkpt lat="40.48844275950481" lon="-3.177096357637934"><ele>887.0</ele><time>2026-04-30T18:08:57Z</time></trkpt><trkpt lat="40.48854363980449" lon="-3.177167723066938"><ele>887.0</ele><time>2026-04-30T18:08:58Z</time></trkpt><trkpt lat="40.48864678976528" lon="-3.1772450585830927"><ele>887.0</ele><time>2026-04-30T18:08:59Z</time></trkpt><trkpt lat="40.48874080884435" lon="-3.1773092346256906"><ele>886.6</ele><time>2026-04-30T18:09:00Z</time></trkpt><trkpt lat="40.48881447693696" lon="-3.177357321464182"><ele>886.2</ele><time>2026-04-30T18:09:01Z</time></trkpt><trkpt lat="40.48889693290489" lon="-3.1774030823383375"><ele>885.8</ele><time>2026-04-30T18:09:02Z</time></trkpt><trkpt lat="40.4889935293552" lon="-3.1774488653635014"><ele>885.4</ele><time>2026-04-30T18:09:03Z</time></trkpt><trkpt lat="40.489100282124774" lon="-3.177497622969419"><ele>885.0</ele><time>2026-04-30T18:09:04Z</time></trkpt><trkpt lat="40.489213547558315" lon="-3.177543725253692"><ele>885.0</ele><time>2026-04-30T18:09:05Z</time></trkpt><trkpt lat="40.48932657945002" lon="-3.1775896118854927"><ele>885.0</ele><time>2026-04-30T18:09:06Z</time></trkpt><trkpt lat="40.489446076834106" lon="-3.177631409019712"><ele>885.0</ele><time>2026-04-30T18:09:07Z</time></trkpt><trkpt lat="40.4895681260305" lon="-3.1776818911979707"><ele>885.0</ele><time>2026-04-30T18:09:08Z</time></trkpt><trkpt lat="40.48969253359387" lon="-3.177734018392981"><ele>884.5</ele><time>2026-04-30T18:09:09Z</time></trkpt><trkpt lat="40.48982009985101" lon="-3.177788392986525"><ele>884.0</ele><time>2026-04-30T18:09:10Z</time></trkpt><trkpt lat="40.48994272881669" lon="-3.1778368226223725"><ele>883.5</ele><time>2026-04-30T18:09:11Z</time></trkpt><trkpt lat="40.49005233911484" lon="-3.1778733975524007"><ele>883.0</ele><time>2026-04-30T18:09:12Z</time></trkpt><trkpt lat="40.490133986704436" lon="-3.177903786950867"><ele>883.0</ele><time>2026-04-30T18:09:13Z</time></trkpt><trkpt lat="40.4902122644905" lon="-3.1779322302697515"><ele>883.0</ele><time>2026-04-30T18:09:14Z</time></trkpt><trkpt lat="40.490297742491464" lon="-3.1779697865969436"><ele>883.0</ele><time>2026-04-30T18:09:15Z</time></trkpt><trkpt lat="40.4903929066048" lon="-3.178013980774897"><ele>883.0</ele><time>2026-04-30T18:09:16Z</time></trkpt><trkpt lat="40.490492673024185" lon="-3.1780623631867164"><ele>883.0</ele><time>2026-04-30T18:09:17Z</time></trkpt><trkpt lat="40.49059557280907" lon="-3.1781070209227216"><ele>882.9999999999999</ele><time>2026-04-30T18:09:18Z</time></trkpt><trkpt lat="40.490688515245026" lon="-3.1781453198521326"><ele>883.0</ele><time>2026-04-30T18:09:19Z</time></trkpt><trkpt lat="40.49076939030955" lon="-3.1781816658525996"><ele>883.0</ele><time>2026-04-30T18:09:20Z</time></trkpt><trkpt lat="40.490844691140275" lon="-3.17821553498527"><ele>883.0</ele><time>2026-04-30T18:09:20.999Z</time></trkpt><trkpt lat="40.49091245932738" lon="-3.1782402551684092"><ele>882.9999999999999</ele><time>2026-04-30T18:09:21.999Z</time></trkpt><trkpt lat="40.49101181160331" lon="-3.178242760190809"><ele>883.0</ele><time>2026-04-30T18:09:23.999Z</time></trkpt><trkpt lat="40.49100680281883" lon="-3.178123378337051"><ele>882.9999999999999</ele><time>2026-04-30T18:09:24.999Z</time></trkpt><trkpt lat="40.4910358985496" lon="-3.17803240064363"><ele>883.0</ele><time>2026-04-30T18:09:25.999Z</time></trkpt><trkpt lat="40.491067377957044" lon="-3.1779339704325027"><ele>883.0</ele><time>2026-04-30T18:09:26.999Z</time></trkpt><trkpt lat="40.49109760214254" lon="-3.1778394648289887"><ele>883.0</ele><time>2026-04-30T18:09:27.999Z</time></trkpt><trkpt lat="40.49112775501479" lon="-3.1777451823571505"><ele>882.9999999999999</ele><time>2026-04-30T18:09:28.999Z</time></trkpt><trkpt lat="40.491158218312" lon="-3.177649929209251"><ele>883.0</ele><time>2026-04-30T18:09:29.999Z</time></trkpt><trkpt lat="40.49118836943733" lon="-3.177555652170025"><ele>882.9999999999999</ele><time>2026-04-30T18:09:30.999Z</time></trkpt><trkpt lat="40.4912196067262" lon="-3.177457978898564"><ele>883.0</ele><time>2026-04-30T18:09:31.999Z</time></trkpt><trkpt lat="40.49125000178218" lon="-3.177362939122258"><ele>883.0</ele><time>2026-04-30T18:09:32.999Z</time></trkpt><trkpt lat="40.49128085476491" lon="-3.177266467496892"><ele>883.0</ele><time>2026-04-30T18:09:33.999Z</time></trkpt><trkpt lat="40.49131065681369" lon="-3.177173281952832"><ele>882.9999999999999</ele><time>2026-04-30T18:09:34.999Z</time></trkpt><trkpt lat="40.491349087197165" lon="-3.1770804519860643"><ele>883.0</ele><time>2026-04-30T18:09:35.999Z</time></trkpt><trkpt lat="40.49138334999736" lon="-3.1769879778274883"><ele>882.8571428571429</ele><time>2026-04-30T18:09:36.999Z</time></trkpt><trkpt lat="40.49141584304069" lon="-3.1768963352513424"><ele>882.7142857142857</ele><time>2026-04-30T18:09:37.999Z</time></trkpt><trkpt lat="40.491444165361635" lon="-3.176809434373308"><ele>882.5714285714286</ele><time>2026-04-30T18:09:38.999Z</time></trkpt><trkpt lat="40.4914735139783" lon="-3.1767165315532133"><ele>882.4285714285714</ele><time>2026-04-30T18:09:39.999Z</time></trkpt><trkpt lat="40.49150138797439" lon="-3.176627359889897"><ele>882.2857142857142</ele><time>2026-04-30T18:09:40.999Z</time></trkpt><trkpt lat="40.49151531215439" lon="-3.1765310605117936"><ele>882.1428571428571</ele><time>2026-04-30T18:09:41.999Z</time></trkpt><trkpt lat="40.49155418437684" lon="-3.1764457561100987"><ele>882.0</ele><time>2026-04-30T18:09:42.999Z</time></trkpt><trkpt lat="40.49158061572033" lon="-3.1763557721835376"><ele>881.8333333333334</ele><time>2026-04-30T18:09:43.999Z</time></trkpt><trkpt lat="40.49160647355317" lon="-3.176265438438298"><ele>881.6666666666667</ele><time>2026-04-30T18:09:44.999Z</time></trkpt><trkpt lat="40.49163271581507" lon="-3.1761775662819867"><ele>881.5</ele><time>2026-04-30T18:09:45.999Z</time></trkpt><trkpt lat="40.49166327590409" lon="-3.1760881380264188"><ele>881.3333333333334</ele><time>2026-04-30T18:09:46.999Z</time></trkpt><trkpt lat="40.49169648404787" lon="-3.1759920072057986"><ele>881.1666666666667</ele><time>2026-04-30T18:09:47.999Z</time></trkpt><trkpt lat="40.4917261307755" lon="-3.175892547629704"><ele>881.0</ele><time>2026-04-30T18:09:48.999Z</time></trkpt><trkpt lat="40.49175306855084" lon="-3.175791493691155"><ele>881.0000000000001</ele><time>2026-04-30T18:09:49.999Z</time></trkpt><trkpt lat="40.49178143660075" lon="-3.1756855798957395"><ele>881.0</ele><time>2026-04-30T18:09:50.999Z</time></trkpt><trkpt lat="40.491812945694754" lon="-3.1755827069682554"><ele>881.0</ele><time>2026-04-30T18:09:51.999Z</time></trkpt><trkpt lat="40.49184415661818" lon="-3.175485091355713"><ele>881.0</ele><time>2026-04-30T18:09:52.999Z</time></trkpt><trkpt lat="40.49187278133171" lon="-3.175393687638432"><ele>881.0000000000001</ele><time>2026-04-30T18:09:53.999Z</time></trkpt><trkpt lat="40.491902443630416" lon="-3.1753060376291016"><ele>881.0</ele><time>2026-04-30T18:09:54.999Z</time></trkpt><trkpt lat="40.491930663873084" lon="-3.1752255757374996"><ele>881.0</ele><time>2026-04-30T18:09:55.999Z</time></trkpt><trkpt lat="40.49197535038106" lon="-3.1750873964231516"><ele>880.9999999999999</ele><time>2026-04-30T18:09:57.999Z</time></trkpt><trkpt lat="40.49202298988552" lon="-3.1749853534536365"><ele>880.9999999999999</ele><time>2026-04-30T18:10:00.001Z</time></trkpt><trkpt lat="40.49196889306957" lon="-3.17484280263038"><ele>881.0</ele><time>2026-04-30T18:10:02Z</time></trkpt><trkpt lat="40.49193447413372" lon="-3.174752272172707"><ele>881.0</ele><time>2026-04-30T18:10:03Z</time></trkpt><trkpt lat="40.491899241713426" lon="-3.1746602101279855"><ele>881.0</ele><time>2026-04-30T18:10:04Z</time></trkpt><trkpt lat="40.491858571313344" lon="-3.174555301893156"><ele>880.9999999999999</ele><time>2026-04-30T18:10:05Z</time></trkpt><trkpt lat="40.491812774472024" lon="-3.1744371701256124"><ele>880.9999999999999</ele><time>2026-04-30T18:10:06Z</time></trkpt><trkpt lat="40.49176368709912" lon="-3.174310550499638"><ele>881.0</ele><time>2026-04-30T18:10:07Z</time></trkpt><trkpt lat="40.49171327962277" lon="-3.174180525695092"><ele>881.0</ele><time>2026-04-30T18:10:08Z</time></trkpt><trkpt lat="40.491659633445785" lon="-3.1740423615145583"><ele>881.0</ele><time>2026-04-30T18:10:09Z</time></trkpt><trkpt lat="40.49162031074603" lon="-3.1738945169310138"><ele>881.0</ele><time>2026-04-30T18:10:10Z</time></trkpt><trkpt lat="40.49156453213664" lon="-3.173756861675648"><ele>881.0</ele><time>2026-04-30T18:10:11Z</time></trkpt><trkpt lat="40.49149674096725" lon="-3.173625118389471"><ele>881.0</ele><time>2026-04-30T18:10:12Z</time></trkpt><trkpt lat="40.49144222192638" lon="-3.173485469850146"><ele>881.0</ele><time>2026-04-30T18:10:13Z</time></trkpt><trkpt lat="40.49138763971915" lon="-3.173345659519948"><ele>881.0</ele><time>2026-04-30T18:10:14Z</time></trkpt><trkpt lat="40.4913352240372" lon="-3.1732113986496366"><ele>881.0</ele><time>2026-04-30T18:10:15Z</time></trkpt><trkpt lat="40.49128234295469" lon="-3.173075945701262"><ele>881.0</ele><time>2026-04-30T18:10:16Z</time></trkpt><trkpt lat="40.49123908881564" lon="-3.172921431555605"><ele>881.5</ele><time>2026-04-30T18:10:17Z</time></trkpt><trkpt lat="40.49116638102913" lon="-3.172777984759076"><ele>882.0</ele><time>2026-04-30T18:10:18Z</time></trkpt><trkpt lat="40.49110254376727" lon="-3.172613845070672"><ele>882.5</ele><time>2026-04-30T18:10:19Z</time></trkpt><trkpt lat="40.491037681216035" lon="-3.1724470691553015"><ele>883.0</ele><time>2026-04-30T18:10:20Z</time></trkpt><trkpt lat="40.49097680184234" lon="-3.1722905348763732"><ele>883.0</ele><time>2026-04-30T18:10:21Z</time></trkpt><trkpt lat="40.49091740752447" lon="-3.172137818988305"><ele>883.0</ele><time>2026-04-30T18:10:22Z</time></trkpt><trkpt lat="40.490858183293795" lon="-3.1719855404346147"><ele>883.0</ele><time>2026-04-30T18:10:23Z</time></trkpt><trkpt lat="40.4907982168344" lon="-3.171829457358407"><ele>883.0</ele><time>2026-04-30T18:10:24Z</time></trkpt><trkpt lat="40.49073601611481" lon="-3.1716672229530025"><ele>882.0</ele><time>2026-04-30T18:10:25Z</time></trkpt><trkpt lat="40.49068372365194" lon="-3.1714973528929145"><ele>881.0</ele><time>2026-04-30T18:10:26Z</time></trkpt><trkpt lat="40.49060831933611" lon="-3.1713341591050805"><ele>880.0</ele><time>2026-04-30T18:10:27Z</time></trkpt><trkpt lat="40.49055949817586" lon="-3.1711583517454853"><ele>879.0</ele><time>2026-04-30T18:10:28Z</time></trkpt><trkpt lat="40.49049359700026" lon="-3.170986424232102"><ele>878.75</ele><time>2026-04-30T18:10:29Z</time></trkpt><trkpt lat="40.49042455414543" lon="-3.1708185251225673"><ele>878.5</ele><time>2026-04-30T18:10:30Z</time></trkpt><trkpt lat="40.490349209638886" lon="-3.170658338801693"><ele>878.25</ele><time>2026-04-30T18:10:31Z</time></trkpt><trkpt lat="40.49028418904771" lon="-3.1704887908665804"><ele>878.0</ele><time>2026-04-30T18:10:32Z</time></trkpt><trkpt lat="40.490218619289536" lon="-3.1703190390391365"><ele>877.25</ele><time>2026-04-30T18:10:33Z</time></trkpt><trkpt lat="40.490153508545376" lon="-3.170150475537309"><ele>876.5</ele><time>2026-04-30T18:10:34Z</time></trkpt><trkpt lat="40.490092643041876" lon="-3.169992902407621"><ele>875.75</ele><time>2026-04-30T18:10:35Z</time></trkpt><trkpt lat="40.490036206324" lon="-3.1698467948229303"><ele>875.0</ele><time>2026-04-30T18:10:36Z</time></trkpt><trkpt lat="40.4899961684684" lon="-3.169698070001666"><ele>874.8</ele><time>2026-04-30T18:10:37Z</time></trkpt><trkpt lat="40.48993196250884" lon="-3.1695671200218647"><ele>874.6</ele><time>2026-04-30T18:10:38Z</time></trkpt><trkpt lat="40.48988410522739" lon="-3.1694332279516977"><ele>874.4000000000001</ele><time>2026-04-30T18:10:39Z</time></trkpt><trkpt lat="40.48983886609099" lon="-3.1693056458186084"><ele>874.2</ele><time>2026-04-30T18:10:40Z</time></trkpt><trkpt lat="40.48979835170203" lon="-3.1691909287146802"><ele>874.0</ele><time>2026-04-30T18:10:41Z</time></trkpt><trkpt lat="40.48975860893992" lon="-3.1690773648745405"><ele>874.8333333333333</ele><time>2026-04-30T18:10:42Z</time></trkpt><trkpt lat="40.489721061357464" lon="-3.1689700737618742"><ele>875.6666666666666</ele><time>2026-04-30T18:10:43Z</time></trkpt><trkpt lat="40.489685079394114" lon="-3.168867256370765"><ele>876.5</ele><time>2026-04-30T18:10:44Z</time></trkpt><trkpt lat="40.489651060350965" lon="-3.1687707824623725"><ele>877.3333333333333</ele><time>2026-04-30T18:10:45Z</time></trkpt><trkpt lat="40.48961744762756" lon="-3.168675583362044"><ele>878.1666666666666</ele><time>2026-04-30T18:10:46Z</time></trkpt><trkpt lat="40.4895957707174" lon="-3.1685629486693245"><ele>879.0</ele><time>2026-04-30T18:10:47Z</time></trkpt><trkpt lat="40.48954908777054" lon="-3.1684410142387365"><ele>880.0</ele><time>2026-04-30T18:10:48Z</time></trkpt><trkpt lat="40.48950143527039" lon="-3.168305987488878"><ele>881.0000000000001</ele><time>2026-04-30T18:10:49Z</time></trkpt><trkpt lat="40.489454560430694" lon="-3.1681765717212516"><ele>882.0000000000001</ele><time>2026-04-30T18:10:50Z</time></trkpt><trkpt lat="40.48940522920926" lon="-3.1680709996316243"><ele>883.0</ele><time>2026-04-30T18:10:51Z</time></trkpt><trkpt lat="40.4893795319482" lon="-3.1679583608245028"><ele>884.0</ele><time>2026-04-30T18:10:52Z</time></trkpt><trkpt lat="40.48936746944416" lon="-3.1678398418806637"><ele>883.8333333333334</ele><time>2026-04-30T18:10:53Z</time></trkpt><trkpt lat="40.48937689838902" lon="-3.1677264645139274"><ele>883.6666666666667</ele><time>2026-04-30T18:10:54Z</time></trkpt><trkpt lat="40.48942161243214" lon="-3.167627950468538"><ele>883.5</ele><time>2026-04-30T18:10:55Z</time></trkpt><trkpt lat="40.48948798192093" lon="-3.1675612414904935"><ele>883.3333333333333</ele><time>2026-04-30T18:10:56Z</time></trkpt><trkpt lat="40.48955304164255" lon="-3.167501864163945"><ele>883.1666666666666</ele><time>2026-04-30T18:10:57Z</time></trkpt><trkpt lat="40.489599949747394" lon="-3.167417233963656"><ele>883.0</ele><time>2026-04-30T18:10:58Z</time></trkpt><trkpt lat="40.48964867327313" lon="-3.167352975659173"><ele>883.5999999999999</ele><time>2026-04-30T18:10:59Z</time></trkpt><trkpt lat="40.48961944436274" lon="-3.167269330262188"><ele>884.1999999999999</ele><time>2026-04-30T18:11:00Z</time></trkpt><trkpt lat="40.48939490033785" lon="-3.167308206864093"><ele>884.8</ele><time>2026-04-30T18:12:00.999Z</time></trkpt><trkpt lat="40.48933027065083" lon="-3.1673494684581684"><ele>885.4</ele><time>2026-04-30T18:12:01.999Z</time></trkpt><trkpt lat="40.48925858419518" lon="-3.167384760271778"><ele>886.0</ele><time>2026-04-30T18:12:02.999Z</time></trkpt><trkpt lat="40.48919020138786" lon="-3.167404250567748"><ele>886.3333333333333</ele><time>2026-04-30T18:12:04.001Z</time></trkpt><trkpt lat="40.4891232685246" lon="-3.167399381088134"><ele>886.6666666666666</ele><time>2026-04-30T18:12:05.001Z</time></trkpt><trkpt lat="40.489052814760285" lon="-3.1673734385026147"><ele>887.0</ele><time>2026-04-30T18:12:06.001Z</time></trkpt><trkpt lat="40.48898839390284" lon="-3.167329096758766"><ele>887.3333333333333</ele><time>2026-04-30T18:12:07.001Z</time></trkpt><trkpt lat="40.48892845930804" lon="-3.167268877941312"><ele>887.6666666666666</ele><time>2026-04-30T18:12:08.001Z</time></trkpt><trkpt lat="40.48887724743038" lon="-3.167181966339161"><ele>888.0</ele><time>2026-04-30T18:12:09.001Z</time></trkpt><trkpt lat="40.488824297401166" lon="-3.167095894720478"><ele>888.1666666666666</ele><time>2026-04-30T18:12:10.001Z</time></trkpt><trkpt lat="40.488762408426254" lon="-3.167019887031174"><ele>888.3333333333333</ele><time>2026-04-30T18:12:11.001Z</time></trkpt><trkpt lat="40.488705289527694" lon="-3.166933399497964"><ele>888.5</ele><time>2026-04-30T18:12:12.001Z</time></trkpt><trkpt lat="40.488647992771796" lon="-3.1668656193247906"><ele>888.6666666666666</ele><time>2026-04-30T18:12:13.001Z</time></trkpt><trkpt lat="40.48859331885983" lon="-3.1667965934391358"><ele>888.8333333333333</ele><time>2026-04-30T18:12:14.001Z</time></trkpt><trkpt lat="40.488536490961664" lon="-3.1667513336406374"><ele>889.0</ele><time>2026-04-30T18:12:15.001Z</time></trkpt><trkpt lat="40.488467384287716" lon="-3.1667124982031"><ele>888.9999999999999</ele><time>2026-04-30T18:12:16.001Z</time></trkpt><trkpt lat="40.488396087753145" lon="-3.1666794430622693"><ele>889.0</ele><time>2026-04-30T18:12:17.001Z</time></trkpt><trkpt lat="40.488330241963986" lon="-3.166645638560295"><ele>889.0</ele><time>2026-04-30T18:12:18.001Z</time></trkpt><trkpt lat="40.48825985439207" lon="-3.1666272064160466"><ele>889.0</ele><time>2026-04-30T18:12:19Z</time></trkpt><trkpt lat="40.48817820410652" lon="-3.166613550288749"><ele>888.9999999999999</ele><time>2026-04-30T18:12:20Z</time></trkpt><trkpt lat="40.48809688266889" lon="-3.1665923702588588"><ele>889.0</ele><time>2026-04-30T18:12:21Z</time></trkpt><trkpt lat="40.48800653949705" lon="-3.166576088257586"><ele>888.8000000000001</ele><time>2026-04-30T18:12:22Z</time></trkpt><trkpt lat="40.48791595803483" lon="-3.166572449028708"><ele>888.6000000000001</ele><time>2026-04-30T18:12:23Z</time></trkpt><trkpt lat="40.48782329299394" lon="-3.166558536466265"><ele>888.4</ele><time>2026-04-30T18:12:24Z</time></trkpt><trkpt lat="40.487728307925565" lon="-3.1665404657072904"><ele>888.2</ele><time>2026-04-30T18:12:25Z</time></trkpt><trkpt lat="40.487632015842266" lon="-3.1665195221842533"><ele>888.0</ele><time>2026-04-30T18:12:26Z</time></trkpt><trkpt lat="40.48753509945425" lon="-3.166499932170081"><ele>887.8333333333334</ele><time>2026-04-30T18:12:27Z</time></trkpt><trkpt lat="40.487443952489166" lon="-3.166481094332777"><ele>887.6666666666667</ele><time>2026-04-30T18:12:28Z</time></trkpt><trkpt lat="40.4873685972829" lon="-3.1664343239017003"><ele>887.5</ele><time>2026-04-30T18:12:29Z</time></trkpt><trkpt lat="40.487295154742064" lon="-3.1664016839294358"><ele>887.3333333333334</ele><time>2026-04-30T18:12:30Z</time></trkpt><trkpt lat="40.48723134866072" lon="-3.1663670898643774"><ele>887.1666666666667</ele><time>2026-04-30T18:12:31Z</time></trkpt><trkpt lat="40.48716701297352" lon="-3.1663475129667664"><ele>887.0</ele><time>2026-04-30T18:12:32Z</time></trkpt><trkpt lat="40.48704644388435" lon="-3.1663071895643884"><ele>887.0000000000001</ele><time>2026-04-30T18:12:34Z</time></trkpt><trkpt lat="40.48697702809484" lon="-3.1662827018753528"><ele>887.0</ele><time>2026-04-30T18:12:35Z</time></trkpt><trkpt lat="40.48690889210897" lon="-3.166262586790061"><ele>887.0</ele><time>2026-04-30T18:12:36Z</time></trkpt><trkpt lat="40.48683223594515" lon="-3.166241557422699"><ele>887.0</ele><time>2026-04-30T18:12:37Z</time></trkpt><trkpt lat="40.48674832588472" lon="-3.166239518157748"><ele>887.0000000000001</ele><time>2026-04-30T18:12:38Z</time></trkpt><trkpt lat="40.48665730479194" lon="-3.166248327200409"><ele>887.0</ele><time>2026-04-30T18:12:39Z</time></trkpt><trkpt lat="40.48656531472664" lon="-3.166274797059158"><ele>887.0</ele><time>2026-04-30T18:12:40Z</time></trkpt><trkpt lat="40.48646887333701" lon="-3.1663129738743243"><ele>887.0</ele><time>2026-04-30T18:12:41Z</time></trkpt><trkpt lat="40.48637293213171" lon="-3.1663441353093997"><ele>887.0</ele><time>2026-04-30T18:12:42Z</time></trkpt><trkpt lat="40.48627926068283" lon="-3.166364317335882"><ele>887.0</ele><time>2026-04-30T18:12:43Z</time></trkpt><trkpt lat="40.486184992682674" lon="-3.166365001302327"><ele>887.0</ele><time>2026-04-30T18:12:44Z</time></trkpt><trkpt lat="40.486092898370394" lon="-3.166322087331375"><ele>886.6</ele><time>2026-04-30T18:12:45Z</time></trkpt><trkpt lat="40.485993589088686" lon="-3.1662676848104203"><ele>886.2</ele><time>2026-04-30T18:12:46Z</time></trkpt><trkpt lat="40.48590095030657" lon="-3.1662205697736554"><ele>885.8</ele><time>2026-04-30T18:12:47Z</time></trkpt><trkpt lat="40.48580122560166" lon="-3.1661957128551586"><ele>885.4</ele><time>2026-04-30T18:12:48Z</time></trkpt><trkpt lat="40.485706837130856" lon="-3.1661826487657874"><ele>885.0</ele><time>2026-04-30T18:12:49Z</time></trkpt><trkpt lat="40.48561189258045" lon="-3.166175710088719"><ele>885.0</ele><time>2026-04-30T18:12:50Z</time></trkpt><trkpt lat="40.48552235791042" lon="-3.166176507824641"><ele>885.0</ele><time>2026-04-30T18:12:51Z</time></trkpt><trkpt lat="40.48544127551158" lon="-3.1662033283906568"><ele>885.0</ele><time>2026-04-30T18:12:52Z</time></trkpt><trkpt lat="40.485360970795774" lon="-3.1662271158427973"><ele>885.0</ele><time>2026-04-30T18:12:53Z</time></trkpt><trkpt lat="40.48528557683169" lon="-3.1662183340743475"><ele>885.0</ele><time>2026-04-30T18:12:54Z</time></trkpt><trkpt lat="40.48521957749588" lon="-3.166172311346776"><ele>885.0</ele><time>2026-04-30T18:12:55Z</time></trkpt><trkpt lat="40.48516259461225" lon="-3.1661319726660895"><ele>885.0</ele><time>2026-04-30T18:12:56Z</time></trkpt><trkpt lat="40.485130568565445" lon="-3.166038978061743"><ele>885.0</ele><time>2026-04-30T18:12:58Z</time></trkpt><trkpt lat="40.48504483326707" lon="-3.165960296065829"><ele>885.0</ele><time>2026-04-30T18:13:01Z</time></trkpt><trkpt lat="40.48498336332106" lon="-3.165938485929265"><ele>885.0</ele><time>2026-04-30T18:13:02Z</time></trkpt><trkpt lat="40.4849228873341" lon="-3.1658958944203723"><ele>885.0</ele><time>2026-04-30T18:13:03Z</time></trkpt><trkpt lat="40.48486037011373" lon="-3.1658507722128797"><ele>885.0</ele><time>2026-04-30T18:13:04Z</time></trkpt><trkpt lat="40.484806359090726" lon="-3.165791135646806"><ele>885.0</ele><time>2026-04-30T18:13:05Z</time></trkpt><trkpt lat="40.48475217183805" lon="-3.165726321909741"><ele>885.0</ele><time>2026-04-30T18:13:06Z</time></trkpt><trkpt lat="40.48470756349897" lon="-3.1656495254701293"><ele>885.0</ele><time>2026-04-30T18:13:07Z</time></trkpt><trkpt lat="40.484656728865644" lon="-3.165580915653334"><ele>885.0</ele><time>2026-04-30T18:13:08Z</time></trkpt><trkpt lat="40.48461535314666" lon="-3.165513185160345"><ele>885.0</ele><time>2026-04-30T18:13:09Z</time></trkpt><trkpt lat="40.4845808832343" lon="-3.1654411739207826"><ele>885.0</ele><time>2026-04-30T18:13:10Z</time></trkpt><trkpt lat="40.484509942256125" lon="-3.1653336495364495"><ele>885.7142857142857</ele><time>2026-04-30T18:13:12Z</time></trkpt><trkpt lat="40.48445069944163" lon="-3.165297506018222"><ele>886.4285714285713</ele><time>2026-04-30T18:13:13Z</time></trkpt><trkpt lat="40.484390492746705" lon="-3.1652683954338547"><ele>887.1428571428571</ele><time>2026-04-30T18:13:14Z</time></trkpt><trkpt lat="40.48433558270117" lon="-3.165224997888229"><ele>887.8571428571429</ele><time>2026-04-30T18:13:15Z</time></trkpt><trkpt lat="40.48429493376157" lon="-3.165158611687412"><ele>888.5714285714286</ele><time>2026-04-30T18:13:16Z</time></trkpt><trkpt lat="40.48426293646273" lon="-3.1650760935126985"><ele>889.2857142857143</ele><time>2026-04-30T18:13:17Z</time></trkpt><trkpt lat="40.48422624950886" lon="-3.1649876569410456"><ele>890.0</ele><time>2026-04-30T18:13:18Z</time></trkpt><trkpt lat="40.484173097147284" lon="-3.1649129402563356"><ele>890.0000000000001</ele><time>2026-04-30T18:13:19Z</time></trkpt><trkpt lat="40.484122356859" lon="-3.1648343082858466"><ele>890.0</ele><time>2026-04-30T18:13:20Z</time></trkpt><trkpt lat="40.48407183481424" lon="-3.1647556149359053"><ele>890.0</ele><time>2026-04-30T18:13:21Z</time></trkpt><trkpt lat="40.484010394307376" lon="-3.16468074163595"><ele>890.0</ele><time>2026-04-30T18:13:22Z</time></trkpt><trkpt lat="40.48394392877735" lon="-3.164613460729709"><ele>890.0000000000001</ele><time>2026-04-30T18:13:23Z</time></trkpt><trkpt lat="40.48386145838077" lon="-3.164575759013168"><ele>890.0</ele><time>2026-04-30T18:13:24Z</time></trkpt><trkpt lat="40.483780719434705" lon="-3.164537970446304"><ele>890.1666666666667</ele><time>2026-04-30T18:13:25Z</time></trkpt><trkpt lat="40.48370979464121" lon="-3.1645020515468008"><ele>890.3333333333334</ele><time>2026-04-30T18:13:26Z</time></trkpt><trkpt lat="40.48363083654466" lon="-3.164475176489141"><ele>890.5</ele><time>2026-04-30T18:13:26.999Z</time></trkpt><trkpt lat="40.48356413089623" lon="-3.1644632872065137"><ele>890.6666666666667</ele><time>2026-04-30T18:13:27.999Z</time></trkpt><trkpt lat="40.483457018455475" lon="-3.1643959161302835"><ele>890.8333333333334</ele><time>2026-04-30T18:13:29.999Z</time></trkpt><trkpt lat="40.483412844863004" lon="-3.164324817844348"><ele>891.0</ele><time>2026-04-30T18:13:30.999Z</time></trkpt><trkpt lat="40.48338844052253" lon="-3.164239175748375"><ele>891.0</ele><time>2026-04-30T18:13:31.999Z</time></trkpt><trkpt lat="40.48337137137258" lon="-3.1641447635675863"><ele>891.0</ele><time>2026-04-30T18:13:32.999Z</time></trkpt><trkpt lat="40.483354044080315" lon="-3.1640621525486683"><ele>891.0</ele><time>2026-04-30T18:13:33.999Z</time></trkpt><trkpt lat="40.4832782588348" lon="-3.163968804542018"><ele>891.0</ele><time>2026-04-30T18:13:35.999Z</time></trkpt><trkpt lat="40.48322298604675" lon="-3.163874436993673"><ele>891.0</ele><time>2026-04-30T18:13:37.999Z</time></trkpt><trkpt lat="40.48317641306918" lon="-3.163746111316276"><ele>891.0</ele><time>2026-04-30T18:13:39.999Z</time></trkpt><trkpt lat="40.48314540485968" lon="-3.163640210116167"><ele>890.5999999999999</ele><time>2026-04-30T18:13:41.999Z</time></trkpt><trkpt lat="40.483081527129116" lon="-3.1635567026903884"><ele>890.1999999999999</ele><time>2026-04-30T18:13:43.999Z</time></trkpt><trkpt lat="40.48301579288621" lon="-3.163478324734388"><ele>889.8000000000001</ele><time>2026-04-30T18:13:45.999Z</time></trkpt><trkpt lat="40.48298332199212" lon="-3.163352968958722"><ele>889.4000000000001</ele><time>2026-04-30T18:13:47.999Z</time></trkpt><trkpt lat="40.48290420302763" lon="-3.1632187975880885"><ele>889.0</ele><time>2026-04-30T18:13:49.999Z</time></trkpt><trkpt lat="40.4828484274743" lon="-3.163167516074454"><ele>889.0</ele><time>2026-04-30T18:13:50.999Z</time></trkpt><trkpt lat="40.48277731585152" lon="-3.163090203696179"><ele>889.0000000000001</ele><time>2026-04-30T18:13:52.999Z</time></trkpt><trkpt lat="40.482738019172146" lon="-3.162979997163611"><ele>889.0000000000001</ele><time>2026-04-30T18:13:54.999Z</time></trkpt><trkpt lat="40.48272526381354" lon="-3.1628306472589753"><ele>889.0</ele><time>2026-04-30T18:13:56.999Z</time></trkpt><trkpt lat="40.48273362872406" lon="-3.1626642078821083"><ele>889.0</ele><time>2026-04-30T18:13:58.999Z</time></trkpt><trkpt lat="40.4827592387581" lon="-3.1625037338565227"><ele>889.0</ele><time>2026-04-30T18:14:00.999Z</time></trkpt><trkpt lat="40.48278635748402" lon="-3.162418277654351"><ele>889.0</ele><time>2026-04-30T18:14:01.999Z</time></trkpt><trkpt lat="40.48281908995266" lon="-3.162338853875238"><ele>889.0</ele><time>2026-04-30T18:14:02.999Z</time></trkpt><trkpt lat="40.482856587869236" lon="-3.16226205704225"><ele>889.0</ele><time>2026-04-30T18:14:03.999Z</time></trkpt><trkpt lat="40.48289118292521" lon="-3.16218804842683"><ele>889.0</ele><time>2026-04-30T18:14:04.999Z</time></trkpt><trkpt lat="40.48290272945182" lon="-3.162097144277855"><ele>889.0</ele><time>2026-04-30T18:14:05.999Z</time></trkpt><trkpt lat="40.482905667939534" lon="-3.1620063796964586"><ele>889.0</ele><time>2026-04-30T18:14:06.999Z</time></trkpt><trkpt lat="40.48290556031221" lon="-3.1619197058090247"><ele>888.6</ele><time>2026-04-30T18:14:07.999Z</time></trkpt><trkpt lat="40.48292987874174" lon="-3.161780647682108"><ele>888.2</ele><time>2026-04-30T18:14:10Z</time></trkpt><trkpt lat="40.48293821684001" lon="-3.161663816801019"><ele>887.8000000000001</ele><time>2026-04-30T18:14:12Z</time></trkpt><trkpt lat="40.482897362092615" lon="-3.1615384766525003"><ele>887.4000000000001</ele><time>2026-04-30T18:14:14Z</time></trkpt><trkpt lat="40.482866512165465" lon="-3.1614161627161055"><ele>887.0</ele><time>2026-04-30T18:14:16Z</time></trkpt><trkpt lat="40.482851401728894" lon="-3.1612758463769617"><ele>887.0000000000001</ele><time>2026-04-30T18:14:18Z</time></trkpt><trkpt lat="40.48281204803232" lon="-3.161127034807564"><ele>887.0</ele><time>2026-04-30T18:14:20Z</time></trkpt><trkpt lat="40.48279130848681" lon="-3.1610418354576635"><ele>887.0</ele><time>2026-04-30T18:14:21Z</time></trkpt><trkpt lat="40.48278087551481" lon="-3.16095733582341"><ele>887.0</ele><time>2026-04-30T18:14:22Z</time></trkpt><trkpt lat="40.482765959188704" lon="-3.1608258633286392"><ele>887.0000000000001</ele><time>2026-04-30T18:14:24Z</time></trkpt><trkpt lat="40.48278202110571" lon="-3.160706462773626"><ele>887.0</ele><time>2026-04-30T18:14:26Z</time></trkpt><trkpt lat="40.482872664303216" lon="-3.160618253566845"><ele>887.2</ele><time>2026-04-30T18:14:28Z</time></trkpt><trkpt lat="40.48297916514638" lon="-3.1605434226401763"><ele>887.4000000000001</ele><time>2026-04-30T18:14:30Z</time></trkpt><trkpt lat="40.48304257699995" lon="-3.160444240679088"><ele>887.5999999999999</ele><time>2026-04-30T18:14:32Z</time></trkpt><trkpt lat="40.48304432112896" lon="-3.160321845869037"><ele>887.8</ele><time>2026-04-30T18:14:34Z</time></trkpt><trkpt lat="40.48304261927555" lon="-3.1601770602577757"><ele>888.0</ele><time>2026-04-30T18:14:36Z</time></trkpt><trkpt lat="40.48305207565163" lon="-3.1600149134244297"><ele>888.0</ele><time>2026-04-30T18:14:38Z</time></trkpt><trkpt lat="40.48306255456853" lon="-3.1599271083720635"><ele>888.0</ele><time>2026-04-30T18:14:39Z</time></trkpt><trkpt lat="40.483068446960345" lon="-3.159843857040019"><ele>888.0</ele><time>2026-04-30T18:14:40Z</time></trkpt><trkpt lat="40.48305768213292" lon="-3.159751709987455"><ele>888.0</ele><time>2026-04-30T18:14:41Z</time></trkpt><trkpt lat="40.48303884945228" lon="-3.1596707989787047"><ele>888.0</ele><time>2026-04-30T18:14:42Z</time></trkpt><trkpt lat="40.48300173440171" lon="-3.1595175514965823"><ele>888.0</ele><time>2026-04-30T18:14:44Z</time></trkpt><trkpt lat="40.48297251975554" lon="-3.159442720738094"><ele>888.0</ele><time>2026-04-30T18:14:45Z</time></trkpt><trkpt lat="40.48294022526847" lon="-3.1593654154386113"><ele>888.0</ele><time>2026-04-30T18:14:46Z</time></trkpt><trkpt lat="40.48290605163501" lon="-3.1592935512724067"><ele>888.0</ele><time>2026-04-30T18:14:47Z</time></trkpt><trkpt lat="40.48286690964919" lon="-3.1592216034363947"><ele>888.0</ele><time>2026-04-30T18:14:48Z</time></trkpt><trkpt lat="40.48282309656586" lon="-3.15914836414287"><ele>888.0</ele><time>2026-04-30T18:14:49Z</time></trkpt><trkpt lat="40.482785776498304" lon="-3.159066106508549"><ele>888.0</ele><time>2026-04-30T18:14:50Z</time></trkpt><trkpt lat="40.48274917148983" lon="-3.1589833439048527"><ele>888.0</ele><time>2026-04-30T18:14:51Z</time></trkpt><trkpt lat="40.48270647867396" lon="-3.158902937863133"><ele>888.0</ele><time>2026-04-30T18:14:52Z</time></trkpt><trkpt lat="40.48267257553015" lon="-3.1588188133187756"><ele>888.0</ele><time>2026-04-30T18:14:53Z</time></trkpt><trkpt lat="40.482629890940494" lon="-3.1587446728610953"><ele>888.0</ele><time>2026-04-30T18:14:54Z</time></trkpt><trkpt lat="40.48259038876907" lon="-3.158661792442167"><ele>888.0</ele><time>2026-04-30T18:14:55Z</time></trkpt><trkpt lat="40.48254732594794" lon="-3.158584413624676"><ele>888.0</ele><time>2026-04-30T18:14:56Z</time></trkpt><trkpt lat="40.48250235238295" lon="-3.1585070798160917"><ele>888.0</ele><time>2026-04-30T18:14:57Z</time></trkpt><trkpt lat="40.48244530900785" lon="-3.158440488916272"><ele>888.0</ele><time>2026-04-30T18:14:58Z</time></trkpt><trkpt lat="40.48238519727533" lon="-3.158376667277063"><ele>888.0</ele><time>2026-04-30T18:14:59Z</time></trkpt><trkpt lat="40.48232209530319" lon="-3.1582953713249906"><ele>888.0</ele><time>2026-04-30T18:15:00Z</time></trkpt><trkpt lat="40.48226281009679" lon="-3.158210864720824"><ele>888.0</ele><time>2026-04-30T18:15:01Z</time></trkpt><trkpt lat="40.4821985595153" lon="-3.1581177371501283"><ele>888.0</ele><time>2026-04-30T18:15:02Z</time></trkpt><trkpt lat="40.48212587029081" lon="-3.1580286895811818"><ele>888.0</ele><time>2026-04-30T18:15:03Z</time></trkpt><trkpt lat="40.48206470108867" lon="-3.157946049125146"><ele>887.8</ele><time>2026-04-30T18:15:04Z</time></trkpt><trkpt lat="40.48201768269499" lon="-3.1578598437114582"><ele>887.5999999999999</ele><time>2026-04-30T18:15:05Z</time></trkpt><trkpt lat="40.4819867514127" lon="-3.157782282897168"><ele>887.4000000000001</ele><time>2026-04-30T18:15:06Z</time></trkpt><trkpt lat="40.48194855148587" lon="-3.1576573228699374"><ele>887.2</ele><time>2026-04-30T18:15:08Z</time></trkpt><trkpt lat="40.48185633465631" lon="-3.1575437922780387"><ele>887.0</ele><time>2026-04-30T18:15:10Z</time></trkpt><trkpt lat="40.48179731413221" lon="-3.1574749687929997"><ele>887.0000000000001</ele><time>2026-04-30T18:15:11Z</time></trkpt><trkpt lat="40.48173551013836" lon="-3.1573990168466843"><ele>887.0</ele><time>2026-04-30T18:15:12Z</time></trkpt><trkpt lat="40.48168559761978" lon="-3.1573190634639894"><ele>887.0</ele><time>2026-04-30T18:15:13Z</time></trkpt><trkpt lat="40.48163012775371" lon="-3.157241640500934"><ele>887.0</ele><time>2026-04-30T18:15:14Z</time></trkpt><trkpt lat="40.48157777593501" lon="-3.157154933250859"><ele>887.0000000000001</ele><time>2026-04-30T18:15:15Z</time></trkpt><trkpt lat="40.48152664131534" lon="-3.157075155882264"><ele>887.0</ele><time>2026-04-30T18:15:16Z</time></trkpt><trkpt lat="40.48147242899343" lon="-3.1570005694842926"><ele>886.7142857142857</ele><time>2026-04-30T18:15:17Z</time></trkpt><trkpt lat="40.48142137780553" lon="-3.1569393922584483"><ele>886.4285714285714</ele><time>2026-04-30T18:15:18Z</time></trkpt><trkpt lat="40.4813663443527" lon="-3.1568913351171335"><ele>886.1428571428571</ele><time>2026-04-30T18:15:19Z</time></trkpt><trkpt lat="40.481314497419206" lon="-3.1568378408227358"><ele>885.8571428571429</ele><time>2026-04-30T18:15:20Z</time></trkpt><trkpt lat="40.481269792641996" lon="-3.156774403123877"><ele>885.5714285714286</ele><time>2026-04-30T18:15:21Z</time></trkpt><trkpt lat="40.48122513474898" lon="-3.1567058519948343"><ele>885.2857142857142</ele><time>2026-04-30T18:15:21.999Z</time></trkpt><trkpt lat="40.48118250895097" lon="-3.1566414309532687"><ele>885.0</ele><time>2026-04-30T18:15:22.999Z</time></trkpt><trkpt lat="40.48114136975002" lon="-3.156572260782997"><ele>885.1666666666666</ele><time>2026-04-30T18:15:23.999Z</time></trkpt><trkpt lat="40.48109506448504" lon="-3.1565069126227896"><ele>885.3333333333333</ele><time>2026-04-30T18:15:24.999Z</time></trkpt><trkpt lat="40.481055889056314" lon="-3.156438442870048"><ele>885.5</ele><time>2026-04-30T18:15:25.999Z</time></trkpt><trkpt lat="40.48097582443816" lon="-3.1563073858439767"><ele>885.6666666666666</ele><time>2026-04-30T18:15:27.999Z</time></trkpt><trkpt lat="40.480931532040906" lon="-3.1562438621199274"><ele>885.8333333333333</ele><time>2026-04-30T18:15:28.999Z</time></trkpt><trkpt lat="40.48088625407362" lon="-3.156181701216947"><ele>886.0</ele><time>2026-04-30T18:15:29.999Z</time></trkpt><trkpt lat="40.48083845055802" lon="-3.1561195265794932"><ele>886.0</ele><time>2026-04-30T18:15:30.999Z</time></trkpt><trkpt lat="40.4807831485798" lon="-3.156062221396781"><ele>886.0</ele><time>2026-04-30T18:15:31.999Z</time></trkpt><trkpt lat="40.48073604031413" lon="-3.155994279804288"><ele>886.0</ele><time>2026-04-30T18:15:32.999Z</time></trkpt><trkpt lat="40.4806936420596" lon="-3.155932387599451"><ele>886.0</ele><time>2026-04-30T18:15:33.999Z</time></trkpt><trkpt lat="40.48064690671714" lon="-3.1558714277698514"><ele>886.0</ele><time>2026-04-30T18:15:34.999Z</time></trkpt><trkpt lat="40.480603415079955" lon="-3.155804100103675"><ele>886.0</ele><time>2026-04-30T18:15:35.999Z</time></trkpt><trkpt lat="40.4805554791928" lon="-3.1557377775406743"><ele>886.0</ele><time>2026-04-30T18:15:36.999Z</time></trkpt><trkpt lat="40.48050492479901" lon="-3.1556692144647647"><ele>885.4999999999999</ele><time>2026-04-30T18:15:37.999Z</time></trkpt><trkpt lat="40.48045921975392" lon="-3.155597427601957"><ele>885.0</ele><time>2026-04-30T18:15:38.999Z</time></trkpt><trkpt lat="40.48036018193715" lon="-3.1554706881082515"><ele>884.5</ele><time>2026-04-30T18:15:40.999Z</time></trkpt><trkpt lat="40.48031196508757" lon="-3.1554094159143595"><ele>884.0</ele><time>2026-04-30T18:15:41.999Z</time></trkpt><trkpt lat="40.480259287783646" lon="-3.155345263543074"><ele>883.4999999999999</ele><time>2026-04-30T18:15:42.999Z</time></trkpt><trkpt lat="40.48020995546755" lon="-3.1552765424882048"><ele>883.0</ele><time>2026-04-30T18:15:43.999Z</time></trkpt><trkpt lat="40.48016110778329" lon="-3.155213771129613"><ele>882.9999999999999</ele><time>2026-04-30T18:15:44.999Z</time></trkpt><trkpt lat="40.48010997856666" lon="-3.155147723156086"><ele>883.0</ele><time>2026-04-30T18:15:45.999Z</time></trkpt><trkpt lat="40.48005748493604" lon="-3.1550834956823626"><ele>883.0</ele><time>2026-04-30T18:15:46.999Z</time></trkpt><trkpt lat="40.48000427232978" lon="-3.1550223480634205"><ele>883.0</ele><time>2026-04-30T18:15:47.999Z</time></trkpt><trkpt lat="40.479956641022035" lon="-3.1549586212698286"><ele>882.9999999999999</ele><time>2026-04-30T18:15:48.999Z</time></trkpt><trkpt lat="40.47986857518213" lon="-3.1548381782815813"><ele>883.0</ele><time>2026-04-30T18:15:50.999Z</time></trkpt><trkpt lat="40.479821869610525" lon="-3.1547650874324207"><ele>882.8333333333333</ele><time>2026-04-30T18:15:51.999Z</time></trkpt><trkpt lat="40.47977124147278" lon="-3.154696949508569"><ele>882.6666666666666</ele><time>2026-04-30T18:15:52.999Z</time></trkpt><trkpt lat="40.47972568489819" lon="-3.154639363877539"><ele>882.5</ele><time>2026-04-30T18:15:53.999Z</time></trkpt><trkpt lat="40.479676123892055" lon="-3.1545409638151685"><ele>882.3333333333333</ele><time>2026-04-30T18:15:55.999Z</time></trkpt><trkpt lat="40.479606187989724" lon="-3.154424756616759"><ele>882.1666666666666</ele><time>2026-04-30T18:15:57.999Z</time></trkpt><trkpt lat="40.47956833523202" lon="-3.154313546504425"><ele>882.0</ele><time>2026-04-30T18:15:59.999Z</time></trkpt><trkpt lat="40.47952624124137" lon="-3.154204388116062"><ele>881.8</ele><time>2026-04-30T18:16:01.999Z</time></trkpt><trkpt lat="40.4794570976766" lon="-3.1541070548781462"><ele>881.6</ele><time>2026-04-30T18:16:03.999Z</time></trkpt><trkpt lat="40.47938207639193" lon="-3.154036342058315"><ele>881.3999999999999</ele><time>2026-04-30T18:16:08.999Z</time></trkpt><trkpt lat="40.47931091976503" lon="-3.1539434598840668"><ele>881.1999999999999</ele><time>2026-04-30T18:16:10.999Z</time></trkpt><trkpt lat="40.47918738497572" lon="-3.1539054407316405"><ele>881.0</ele><time>2026-04-30T18:16:12.999Z</time></trkpt><trkpt lat="40.47912344660237" lon="-3.1538710582457252"><ele>881.2857142857142</ele><time>2026-04-30T18:16:13.999Z</time></trkpt><trkpt lat="40.47906286568968" lon="-3.153833840647505"><ele>881.5714285714287</ele><time>2026-04-30T18:16:14.999Z</time></trkpt><trkpt lat="40.47899798601417" lon="-3.1537857512988685"><ele>881.8571428571429</ele><time>2026-04-30T18:16:16Z</time></trkpt><trkpt lat="40.47893572884806" lon="-3.15373475133279"><ele>882.1428571428571</ele><time>2026-04-30T18:16:17Z</time></trkpt><trkpt lat="40.47886458508515" lon="-3.153697766586206"><ele>882.4285714285713</ele><time>2026-04-30T18:16:18Z</time></trkpt><trkpt lat="40.4787933882048" lon="-3.153663450817098"><ele>882.7142857142858</ele><time>2026-04-30T18:16:19Z</time></trkpt><trkpt lat="40.478731808734224" lon="-3.153638377367443"><ele>883.0</ele><time>2026-04-30T18:16:20Z</time></trkpt><trkpt lat="40.47863654837339" lon="-3.1535584437352364"><ele>882.9999999999999</ele><time>2026-04-30T18:16:22Z</time></trkpt><trkpt lat="40.478596047241766" lon="-3.153442835151731"><ele>883.0</ele><time>2026-04-30T18:16:24Z</time></trkpt><trkpt lat="40.47855184080264" lon="-3.153347831713807"><ele>883.0</ele><time>2026-04-30T18:16:26Z</time></trkpt><trkpt lat="40.478517562945804" lon="-3.1532708834953773"><ele>883.0</ele><time>2026-04-30T18:16:31Z</time></trkpt><trkpt lat="40.47856346573434" lon="-3.153332609042244"><ele>882.9999999999999</ele><time>2026-04-30T18:16:43Z</time></trkpt><trkpt lat="40.47858761263433" lon="-3.1534430259194455"><ele>883.0</ele><time>2026-04-30T18:16:57Z</time></trkpt><trkpt lat="40.478618846675104" lon="-3.153516309925616"><ele>882.9999999999999</ele><time>2026-04-30T18:16:59Z</time></trkpt><trkpt lat="40.47866831504316" lon="-3.1535926212662635"><ele>883.0</ele><time>2026-04-30T18:17:01Z</time></trkpt><trkpt lat="40.47872752918152" lon="-3.1536457942884937"><ele>883.0</ele><time>2026-04-30T18:17:03Z</time></trkpt><trkpt lat="40.4788064990461" lon="-3.1536755458008803"><ele>883.0</ele><time>2026-04-30T18:17:05Z</time></trkpt><trkpt lat="40.47888372885689" lon="-3.1537101637437575"><ele>882.9999999999999</ele><time>2026-04-30T18:17:07Z</time></trkpt><trkpt lat="40.478996810684414" lon="-3.1537765943593437"><ele>883.0</ele><time>2026-04-30T18:17:09Z</time></trkpt><trkpt lat="40.47908308196193" lon="-3.1538446899874932"><ele>882.9999999999999</ele><time>2026-04-30T18:17:11Z</time></trkpt><trkpt lat="40.47913569015169" lon="-3.1538940434677154"><ele>883.0</ele><time>2026-04-30T18:17:13Z</time></trkpt><trkpt lat="40.479234491530036" lon="-3.153928704838362"><ele>883.0</ele><time>2026-04-30T18:17:15Z</time></trkpt><trkpt lat="40.47931412406961" lon="-3.153952699814688"><ele>883.0</ele><time>2026-04-30T18:17:17Z</time></trkpt><trkpt lat="40.47934906525913" lon="-3.1540384318148673"><ele>882.9999999999999</ele><time>2026-04-30T18:17:19Z</time></trkpt><trkpt lat="40.47932929804957" lon="-3.1541457707800653"><ele>883.0</ele><time>2026-04-30T18:17:20.999Z</time></trkpt><trkpt lat="40.47926712135699" lon="-3.154248504578599"><ele>882.5999999999999</ele><time>2026-04-30T18:17:22.999Z</time></trkpt><trkpt lat="40.47920047396261" lon="-3.1543650866110218"><ele>882.1999999999999</ele><time>2026-04-30T18:17:24.999Z</time></trkpt><trkpt lat="40.479138074365906" lon="-3.1544904267167553"><ele>881.8</ele><time>2026-04-30T18:17:26.999Z</time></trkpt><trkpt lat="40.479064340313414" lon="-3.1546175826355145"><ele>881.4</ele><time>2026-04-30T18:17:28.999Z</time></trkpt><trkpt lat="40.47902347667954" lon="-3.15468284703091"><ele>881.0</ele><time>2026-04-30T18:17:29.999Z</time></trkpt><trkpt lat="40.47898142225775" lon="-3.1547543230712787"><ele>881.0</ele><time>2026-04-30T18:17:30.999Z</time></trkpt><trkpt lat="40.47893816177472" lon="-3.1548252114507997"><ele>881.0</ele><time>2026-04-30T18:17:31.999Z</time></trkpt><trkpt lat="40.47890022302269" lon="-3.154893607007402"><ele>881.0</ele><time>2026-04-30T18:17:32.999Z</time></trkpt><trkpt lat="40.478859736502486" lon="-3.154963254597887"><ele>881.0</ele><time>2026-04-30T18:17:33.999Z</time></trkpt><trkpt lat="40.47882025634219" lon="-3.1550309941149957"><ele>881.0</ele><time>2026-04-30T18:17:34.999Z</time></trkpt><trkpt lat="40.47877901355309" lon="-3.155105835299076"><ele>881.0</ele><time>2026-04-30T18:17:35.999Z</time></trkpt><trkpt lat="40.478738925162666" lon="-3.1551755564689463"><ele>881.0</ele><time>2026-04-30T18:17:36.999Z</time></trkpt><trkpt lat="40.478696977677714" lon="-3.1552531257215124"><ele>880.8571428571428</ele><time>2026-04-30T18:17:37.999Z</time></trkpt><trkpt lat="40.47865472071561" lon="-3.1553298445733913"><ele>880.7142857142858</ele><time>2026-04-30T18:17:38.999Z</time></trkpt><trkpt lat="40.47861106798675" lon="-3.1553969346614807"><ele>880.5714285714286</ele><time>2026-04-30T18:17:39.999Z</time></trkpt><trkpt lat="40.478566875934085" lon="-3.1554796860817964"><ele>880.4285714285713</ele><time>2026-04-30T18:17:40.999Z</time></trkpt><trkpt lat="40.47851339505924" lon="-3.1555426901671884"><ele>880.2857142857142</ele><time>2026-04-30T18:17:41.999Z</time></trkpt><trkpt lat="40.478471416003195" lon="-3.1556172581551363"><ele>880.1428571428571</ele><time>2026-04-30T18:17:42.999Z</time></trkpt><trkpt lat="40.478431044149104" lon="-3.155705865788257"><ele>880.0</ele><time>2026-04-30T18:17:43.999Z</time></trkpt><trkpt lat="40.47838659124675" lon="-3.1557766235823306"><ele>879.8571428571428</ele><time>2026-04-30T18:17:44.999Z</time></trkpt><trkpt lat="40.47834193937417" lon="-3.1558528073858603"><ele>879.7142857142857</ele><time>2026-04-30T18:17:45.999Z</time></trkpt><trkpt lat="40.478298576058535" lon="-3.1559307430850727"><ele>879.5714285714286</ele><time>2026-04-30T18:17:46.999Z</time></trkpt><trkpt lat="40.47825542617528" lon="-3.1560044842901176"><ele>879.4285714285713</ele><time>2026-04-30T18:17:47.999Z</time></trkpt><trkpt lat="40.478212776294924" lon="-3.156091908385794"><ele>879.2857142857143</ele><time>2026-04-30T18:17:48.999Z</time></trkpt><trkpt lat="40.47817020611454" lon="-3.1561704596440454"><ele>879.1428571428571</ele><time>2026-04-30T18:17:49.999Z</time></trkpt><trkpt lat="40.47812224870125" lon="-3.156243491652264"><ele>879.0</ele><time>2026-04-30T18:17:50.999Z</time></trkpt><trkpt lat="40.478040298924576" lon="-3.1563701151663115"><ele>879.0</ele><time>2026-04-30T18:17:52.999Z</time></trkpt><trkpt lat="40.47799012757677" lon="-3.1564787936949936"><ele>879.0000000000001</ele><time>2026-04-30T18:17:54.999Z</time></trkpt><trkpt lat="40.477923576710545" lon="-3.156592661393115"><ele>879.0000000000001</ele><time>2026-04-30T18:17:56.999Z</time></trkpt><trkpt lat="40.4778431755128" lon="-3.1567144637306876"><ele>879.0</ele><time>2026-04-30T18:17:58.999Z</time></trkpt><trkpt lat="40.47780406656818" lon="-3.1567843113218657"><ele>879.0</ele><time>2026-04-30T18:17:59.999Z</time></trkpt><trkpt lat="40.47776323232201" lon="-3.156854413875967"><ele>879.3333333333334</ele><time>2026-04-30T18:18:00.999Z</time></trkpt><trkpt lat="40.4777304645517" lon="-3.156931537780054"><ele>879.6666666666667</ele><time>2026-04-30T18:18:01.999Z</time></trkpt><trkpt lat="40.477666724445186" lon="-3.1570578542076855"><ele>880.0</ele><time>2026-04-30T18:18:03.999Z</time></trkpt><trkpt lat="40.47763314640411" lon="-3.157131004939975"><ele>880.3333333333334</ele><time>2026-04-30T18:18:05.999Z</time></trkpt><trkpt lat="40.47758305581986" lon="-3.1572116580875837"><ele>880.6666666666667</ele><time>2026-04-30T18:18:07.999Z</time></trkpt><trkpt lat="40.47750919315659" lon="-3.1572960577200706"><ele>881.0</ele><time>2026-04-30T18:18:09.999Z</time></trkpt><trkpt lat="40.47743624127453" lon="-3.1574041661613026"><ele>881.0000000000001</ele><time>2026-04-30T18:18:11.999Z</time></trkpt><trkpt lat="40.47738223717948" lon="-3.157540952941117"><ele>881.0</ele><time>2026-04-30T18:18:13.999Z</time></trkpt><trkpt lat="40.477344206784316" lon="-3.1576102406145843"><ele>881.0</ele><time>2026-04-30T18:18:14.999Z</time></trkpt><trkpt lat="40.47730216893781" lon="-3.1576831931962164"><ele>881.0</ele><time>2026-04-30T18:18:15.999Z</time></trkpt><trkpt lat="40.4772552394131" lon="-3.1577542333542854"><ele>881.0000000000001</ele><time>2026-04-30T18:18:16.999Z</time></trkpt><trkpt lat="40.477218231410475" lon="-3.1578246524851306"><ele>881.0</ele><time>2026-04-30T18:18:17.999Z</time></trkpt><trkpt lat="40.477180030111846" lon="-3.1578956899747177"><ele>881.0</ele><time>2026-04-30T18:18:18.999Z</time></trkpt><trkpt lat="40.47711412549798" lon="-3.158040165971621"><ele>880.9999999999999</ele><time>2026-04-30T18:18:20.999Z</time></trkpt><trkpt lat="40.477026634783805" lon="-3.158165131066918"><ele>880.9999999999999</ele><time>2026-04-30T18:18:23Z</time></trkpt><trkpt lat="40.47698605370399" lon="-3.1582323527337763"><ele>881.0</ele><time>2026-04-30T18:18:24Z</time></trkpt><trkpt lat="40.47694969565512" lon="-3.15830190421876"><ele>881.0</ele><time>2026-04-30T18:18:25Z</time></trkpt><trkpt lat="40.47690711831225" lon="-3.158378259699464"><ele>881.0</ele><time>2026-04-30T18:18:26Z</time></trkpt><trkpt lat="40.47686891147816" lon="-3.158453033254545"><ele>881.0</ele><time>2026-04-30T18:18:27Z</time></trkpt><trkpt lat="40.47683066810006" lon="-3.158525269141317"><ele>881.0</ele><time>2026-04-30T18:18:28Z</time></trkpt><trkpt lat="40.476789179468746" lon="-3.1585951650115014"><ele>881.0</ele><time>2026-04-30T18:18:29Z</time></trkpt><trkpt lat="40.476748595288306" lon="-3.158671000339393"><ele>881.0</ele><time>2026-04-30T18:18:30Z</time></trkpt><trkpt lat="40.4767086066763" lon="-3.1587446190266344"><ele>881.0</ele><time>2026-04-30T18:18:31Z</time></trkpt><trkpt lat="40.47666215424476" lon="-3.1588091034681662"><ele>881.0</ele><time>2026-04-30T18:18:32Z</time></trkpt><trkpt lat="40.47661904658035" lon="-3.158883963879863"><ele>881.0</ele><time>2026-04-30T18:18:33Z</time></trkpt><trkpt lat="40.47657953407563" lon="-3.158962431119678"><ele>881.0</ele><time>2026-04-30T18:18:34Z</time></trkpt><trkpt lat="40.47653808706696" lon="-3.1590385293055823"><ele>881.0</ele><time>2026-04-30T18:18:35Z</time></trkpt><trkpt lat="40.47649405029728" lon="-3.15911766381294"><ele>881.0</ele><time>2026-04-30T18:18:36Z</time></trkpt><trkpt lat="40.47645139649407" lon="-3.159196064839031"><ele>881.0</ele><time>2026-04-30T18:18:37Z</time></trkpt><trkpt lat="40.47640723900749" lon="-3.159273167295818"><ele>881.0</ele><time>2026-04-30T18:18:38Z</time></trkpt><trkpt lat="40.47635684413591" lon="-3.159354575392861"><ele>881.0</ele><time>2026-04-30T18:18:39Z</time></trkpt><trkpt lat="40.47631022783595" lon="-3.159431182487316"><ele>881.0000000000001</ele><time>2026-04-30T18:18:40Z</time></trkpt><trkpt lat="40.476266160112466" lon="-3.159511593577097"><ele>881.0</ele><time>2026-04-30T18:18:41Z</time></trkpt><trkpt lat="40.476232482938315" lon="-3.15959057285698"><ele>881.0</ele><time>2026-04-30T18:18:42Z</time></trkpt><trkpt lat="40.476189982482666" lon="-3.1596584209187046"><ele>881.0</ele><time>2026-04-30T18:18:43Z</time></trkpt><trkpt lat="40.47611308001187" lon="-3.159794854165348"><ele>881.0000000000001</ele><time>2026-04-30T18:18:45Z</time></trkpt><trkpt lat="40.476069685340626" lon="-3.1598623235140937"><ele>881.0</ele><time>2026-04-30T18:18:46Z</time></trkpt><trkpt lat="40.47602925649733" lon="-3.1599347625938736"><ele>881.0000000000001</ele><time>2026-04-30T18:18:47Z</time></trkpt><trkpt lat="40.47598097591711" lon="-3.16000985375218"><ele>881.0</ele><time>2026-04-30T18:18:48Z</time></trkpt><trkpt lat="40.47592577567393" lon="-3.1600987717310787"><ele>881.0</ele><time>2026-04-30T18:18:49Z</time></trkpt><trkpt lat="40.475869881658426" lon="-3.1601952740554355"><ele>881.0</ele><time>2026-04-30T18:18:50Z</time></trkpt><trkpt lat="40.475814484331124" lon="-3.1602895687518338"><ele>881.0000000000001</ele><time>2026-04-30T18:18:51Z</time></trkpt><trkpt lat="40.47575556155424" lon="-3.160386490024163"><ele>881.0</ele><time>2026-04-30T18:18:52Z</time></trkpt><trkpt lat="40.47569881692809" lon="-3.160485047151984"><ele>881.0</ele><time>2026-04-30T18:18:53Z</time></trkpt><trkpt lat="40.475640010156404" lon="-3.1605856170694233"><ele>880.9999999999999</ele><time>2026-04-30T18:18:54Z</time></trkpt><trkpt lat="40.47558237281294" lon="-3.1606833111131487"><ele>880.9999999999999</ele><time>2026-04-30T18:18:55Z</time></trkpt><trkpt lat="40.47552408430963" lon="-3.1607849061517452"><ele>881.0</ele><time>2026-04-30T18:18:56Z</time></trkpt><trkpt lat="40.47546598648223" lon="-3.1608861740497485"><ele>881.0</ele><time>2026-04-30T18:18:57Z</time></trkpt><trkpt lat="40.47540244967916" lon="-3.160981247417515"><ele>881.1999999999999</ele><time>2026-04-30T18:18:58Z</time></trkpt><trkpt lat="40.47535609186203" lon="-3.161087177626374"><ele>881.3999999999999</ele><time>2026-04-30T18:18:59Z</time></trkpt><trkpt lat="40.4753020868511" lon="-3.1611796894421227"><ele>881.6</ele><time>2026-04-30T18:19:00Z</time></trkpt><trkpt lat="40.47524914726251" lon="-3.1612736115460196"><ele>881.8</ele><time>2026-04-30T18:19:01Z</time></trkpt><trkpt lat="40.47519683958457" lon="-3.161361244566005"><ele>882.0</ele><time>2026-04-30T18:19:02Z</time></trkpt><trkpt lat="40.47514241595311" lon="-3.1614647927656025"><ele>882.1666666666666</ele><time>2026-04-30T18:19:03Z</time></trkpt><trkpt lat="40.47508822091763" lon="-3.1615543893703006"><ele>882.3333333333333</ele><time>2026-04-30T18:19:04Z</time></trkpt><trkpt lat="40.47503322808076" lon="-3.1616445624144274"><ele>882.5</ele><time>2026-04-30T18:19:05Z</time></trkpt><trkpt lat="40.47498545172573" lon="-3.1617394264169656"><ele>882.6666666666666</ele><time>2026-04-30T18:19:06Z</time></trkpt><trkpt lat="40.47493530906161" lon="-3.161816631502378"><ele>882.8333333333333</ele><time>2026-04-30T18:19:07Z</time></trkpt><trkpt lat="40.47488346961547" lon="-3.1618958827915207"><ele>883.0</ele><time>2026-04-30T18:19:08Z</time></trkpt><trkpt lat="40.47485064008504" lon="-3.1619832271263517"><ele>882.9999999999999</ele><time>2026-04-30T18:19:09Z</time></trkpt><trkpt lat="40.47481075292393" lon="-3.1620780633879204"><ele>883.0</ele><time>2026-04-30T18:19:10Z</time></trkpt><trkpt lat="40.474757732233996" lon="-3.162157887635229"><ele>883.0</ele><time>2026-04-30T18:19:11Z</time></trkpt><trkpt lat="40.47471009590097" lon="-3.162229322322919"><ele>883.0</ele><time>2026-04-30T18:19:12Z</time></trkpt><trkpt lat="40.47468336561143" lon="-3.1623088219691913"><ele>882.9999999999999</ele><time>2026-04-30T18:19:13Z</time></trkpt><trkpt lat="40.47460679993643" lon="-3.162426110341703"><ele>883.0</ele><time>2026-04-30T18:19:15Z</time></trkpt><trkpt lat="40.47456811361324" lon="-3.162494126542064"><ele>882.8</ele><time>2026-04-30T18:19:16Z</time></trkpt><trkpt lat="40.474491818030835" lon="-3.1626230725062197"><ele>882.5999999999999</ele><time>2026-04-30T18:19:18Z</time></trkpt><trkpt lat="40.47441101140297" lon="-3.162745749904348"><ele>882.4000000000001</ele><time>2026-04-30T18:19:19.999Z</time></trkpt><trkpt lat="40.4743293592359" lon="-3.16287653466363"><ele>882.2</ele><time>2026-04-30T18:19:21.999Z</time></trkpt><trkpt lat="40.47428303451391" lon="-3.1629501593684846"><ele>882.0</ele><time>2026-04-30T18:19:22.999Z</time></trkpt><trkpt lat="40.474245778265455" lon="-3.163023683140072"><ele>882.0</ele><time>2026-04-30T18:19:23.999Z</time></trkpt><trkpt lat="40.474199441767006" lon="-3.163096549865946"><ele>882.0</ele><time>2026-04-30T18:19:24.999Z</time></trkpt><trkpt lat="40.47415508145781" lon="-3.1631747328136615"><ele>882.0</ele><time>2026-04-30T18:19:25.999Z</time></trkpt><trkpt lat="40.47411269092068" lon="-3.1632510866189647"><ele>882.0</ele><time>2026-04-30T18:19:26.999Z</time></trkpt><trkpt lat="40.47406951404144" lon="-3.1633265992619064"><ele>882.0</ele><time>2026-04-30T18:19:27.999Z</time></trkpt><trkpt lat="40.47402053134611" lon="-3.1634058451593923"><ele>882.0</ele><time>2026-04-30T18:19:28.999Z</time></trkpt><trkpt lat="40.47398074114308" lon="-3.1634812675177817"><ele>882.0</ele><time>2026-04-30T18:19:29.999Z</time></trkpt><trkpt lat="40.47393516806788" lon="-3.163559429106248"><ele>882.3333333333334</ele><time>2026-04-30T18:19:30.999Z</time></trkpt><trkpt lat="40.47388735651688" lon="-3.163646269527528"><ele>882.6666666666667</ele><time>2026-04-30T18:19:31.999Z</time></trkpt><trkpt lat="40.473848915641774" lon="-3.1637317595887375"><ele>883.0</ele><time>2026-04-30T18:19:32.999Z</time></trkpt><trkpt lat="40.47379620470257" lon="-3.1638045467285454"><ele>883.3333333333334</ele><time>2026-04-30T18:19:33.999Z</time></trkpt><trkpt lat="40.47374877277099" lon="-3.1638753912287885"><ele>883.6666666666667</ele><time>2026-04-30T18:19:34.999Z</time></trkpt><trkpt lat="40.47367670270454" lon="-3.1640030379306863"><ele>884.0</ele><time>2026-04-30T18:19:36.999Z</time></trkpt><trkpt lat="40.473639735941475" lon="-3.164075607514131"><ele>884.4000000000001</ele><time>2026-04-30T18:19:37.999Z</time></trkpt><trkpt lat="40.47360079867703" lon="-3.1641433580382485"><ele>884.8000000000001</ele><time>2026-04-30T18:19:38.999Z</time></trkpt><trkpt lat="40.473563252691626" lon="-3.1642330989675735"><ele>885.1999999999999</ele><time>2026-04-30T18:19:40.999Z</time></trkpt><trkpt lat="40.473504342856266" lon="-3.1643210356827867"><ele>885.5999999999999</ele><time>2026-04-30T18:19:42.999Z</time></trkpt><trkpt lat="40.473434636776936" lon="-3.1644332448433987"><ele>886.0</ele><time>2026-04-30T18:19:44.999Z</time></trkpt><trkpt lat="40.473357044476224" lon="-3.1645389820107956"><ele>885.9999999999999</ele><time>2026-04-30T18:19:46.999Z</time></trkpt><trkpt lat="40.47329658478265" lon="-3.164669805759055"><ele>886.0</ele><time>2026-04-30T18:19:48.999Z</time></trkpt><trkpt lat="40.473256566126715" lon="-3.164737146770651"><ele>886.0</ele><time>2026-04-30T18:19:49.999Z</time></trkpt><trkpt lat="40.47321827199842" lon="-3.164808861924925"><ele>886.0</ele><time>2026-04-30T18:19:50.999Z</time></trkpt><trkpt lat="40.47317946790853" lon="-3.1648865511844435"><ele>885.9999999999999</ele><time>2026-04-30T18:19:51.999Z</time></trkpt><trkpt lat="40.47314217999127" lon="-3.164970164373287"><ele>886.0</ele><time>2026-04-30T18:19:52.999Z</time></trkpt><trkpt lat="40.47309579760708" lon="-3.1650470651034994"><ele>885.8333333333333</ele><time>2026-04-30T18:19:53.999Z</time></trkpt><trkpt lat="40.473049773979" lon="-3.165127572545665"><ele>885.6666666666666</ele><time>2026-04-30T18:19:54.999Z</time></trkpt><trkpt lat="40.47301011073167" lon="-3.165194829009788"><ele>885.5</ele><time>2026-04-30T18:19:55.999Z</time></trkpt><trkpt lat="40.472952051654936" lon="-3.1652821963303372"><ele>885.3333333333333</ele><time>2026-04-30T18:19:57.999Z</time></trkpt><trkpt lat="40.47290343337935" lon="-3.165349518040618"><ele>885.1666666666666</ele><time>2026-04-30T18:19:59.999Z</time></trkpt><trkpt lat="40.47283876161982" lon="-3.1654359036736994"><ele>885.0</ele><time>2026-04-30T18:20:11.999Z</time></trkpt><trkpt lat="40.472770626953334" lon="-3.165556193416708"><ele>885.0</ele><time>2026-04-30T18:20:13.999Z</time></trkpt><trkpt lat="40.47273172230085" lon="-3.1656395447943595"><ele>885.0</ele><time>2026-04-30T18:20:14.999Z</time></trkpt><trkpt lat="40.4726916951525" lon="-3.165728175453344"><ele>885.0</ele><time>2026-04-30T18:20:15.999Z</time></trkpt><trkpt lat="40.472647477994585" lon="-3.165808325324693"><ele>885.0</ele><time>2026-04-30T18:20:16.999Z</time></trkpt><trkpt lat="40.472592620645855" lon="-3.1659117248969144"><ele>885.0</ele><time>2026-04-30T18:20:17.999Z</time></trkpt><trkpt lat="40.47254048450024" lon="-3.166020823418157"><ele>885.0</ele><time>2026-04-30T18:20:18.999Z</time></trkpt><trkpt lat="40.47247956157044" lon="-3.1661356520520747"><ele>885.0</ele><time>2026-04-30T18:20:19.999Z</time></trkpt><trkpt lat="40.472405104007876" lon="-3.166239946282903"><ele>885.0</ele><time>2026-04-30T18:20:20.999Z</time></trkpt><trkpt lat="40.47233603887388" lon="-3.166356097842237"><ele>885.0</ele><time>2026-04-30T18:20:21.999Z</time></trkpt><trkpt lat="40.47226425057289" lon="-3.1664735497469665"><ele>885.0</ele><time>2026-04-30T18:20:22.999Z</time></trkpt><trkpt lat="40.472198209388985" lon="-3.166593021983361"><ele>885.0</ele><time>2026-04-30T18:20:23.999Z</time></trkpt><trkpt lat="40.47213926266053" lon="-3.166717449448988"><ele>884.75</ele><time>2026-04-30T18:20:24.999Z</time></trkpt><trkpt lat="40.47207321149975" lon="-3.1668385973713473"><ele>884.5</ele><time>2026-04-30T18:20:25.999Z</time></trkpt><trkpt lat="40.47199564135307" lon="-3.166963153645173"><ele>884.25</ele><time>2026-04-30T18:20:26.999Z</time></trkpt><trkpt lat="40.47191749859327" lon="-3.1670836369793154"><ele>884.0</ele><time>2026-04-30T18:20:28Z</time></trkpt><trkpt lat="40.471848587461956" lon="-3.1672102013898793"><ele>884.0</ele><time>2026-04-30T18:20:29Z</time></trkpt><trkpt lat="40.47177784209724" lon="-3.167330372129157"><ele>884.0000000000001</ele><time>2026-04-30T18:20:30Z</time></trkpt><trkpt lat="40.47170780590922" lon="-3.1674465810873147"><ele>884.0000000000001</ele><time>2026-04-30T18:20:31Z</time></trkpt><trkpt lat="40.471634053983585" lon="-3.167561637377662"><ele>884.0</ele><time>2026-04-30T18:20:32Z</time></trkpt><trkpt lat="40.4715609979121" lon="-3.1676610499445927"><ele>884.0</ele><time>2026-04-30T18:20:33Z</time></trkpt><trkpt lat="40.47149716607993" lon="-3.167754162569813"><ele>883.8000000000001</ele><time>2026-04-30T18:20:34Z</time></trkpt><trkpt lat="40.471435381548666" lon="-3.167851873468941"><ele>883.6000000000001</ele><time>2026-04-30T18:20:35Z</time></trkpt><trkpt lat="40.47139097622002" lon="-3.16795866017548"><ele>883.4</ele><time>2026-04-30T18:20:36Z</time></trkpt><trkpt lat="40.47136145172214" lon="-3.168076755753135"><ele>883.2</ele><time>2026-04-30T18:20:37Z</time></trkpt><trkpt lat="40.471347196191445" lon="-3.168214595566106"><ele>883.0</ele><time>2026-04-30T18:20:38Z</time></trkpt><trkpt lat="40.47133093081031" lon="-3.1683490084883665"><ele>882.5999999999999</ele><time>2026-04-30T18:20:39Z</time></trkpt><trkpt lat="40.471308734008616" lon="-3.168486827612628"><ele>882.1999999999999</ele><time>2026-04-30T18:20:40Z</time></trkpt><trkpt lat="40.47132538536015" lon="-3.168620214147893"><ele>881.8</ele><time>2026-04-30T18:20:41Z</time></trkpt><trkpt lat="40.47127905890213" lon="-3.168750512001515"><ele>881.4</ele><time>2026-04-30T18:20:42Z</time></trkpt><trkpt lat="40.47125182470898" lon="-3.1688749383944987"><ele>881.0</ele><time>2026-04-30T18:20:43Z</time></trkpt><trkpt lat="40.47122492142908" lon="-3.1689970549871758"><ele>881.5999999999999</ele><time>2026-04-30T18:20:44Z</time></trkpt><trkpt lat="40.471197589695116" lon="-3.169119981539682"><ele>882.1999999999999</ele><time>2026-04-30T18:20:45Z</time></trkpt><trkpt lat="40.4711641279742" lon="-3.169239846417436"><ele>882.8000000000001</ele><time>2026-04-30T18:20:46Z</time></trkpt><trkpt lat="40.47113245975012" lon="-3.169358958308865"><ele>883.4000000000001</ele><time>2026-04-30T18:20:47Z</time></trkpt><trkpt lat="40.471108569898966" lon="-3.169488184788716"><ele>884.0</ele><time>2026-04-30T18:20:48Z</time></trkpt><trkpt lat="40.47108531127595" lon="-3.1696184463336796"><ele>884.0</ele><time>2026-04-30T18:20:49Z</time></trkpt><trkpt lat="40.471064140512" lon="-3.169756630669664"><ele>884.0000000000001</ele><time>2026-04-30T18:20:50Z</time></trkpt><trkpt lat="40.47103417111238" lon="-3.1698914179750894"><ele>884.0000000000001</ele><time>2026-04-30T18:20:51Z</time></trkpt><trkpt lat="40.471001783093804" lon="-3.170025023274923"><ele>884.0</ele><time>2026-04-30T18:20:52Z</time></trkpt><trkpt lat="40.47097581084512" lon="-3.170136288511054"><ele>884.0</ele><time>2026-04-30T18:20:53Z</time></trkpt><trkpt lat="40.470954433688966" lon="-3.1702220108486996"><ele>884.0</ele><time>2026-04-30T18:20:54Z</time></trkpt><trkpt lat="40.4709383471759" lon="-3.1703283664151467"><ele>884.0000000000001</ele><time>2026-04-30T18:20:56Z</time></trkpt><trkpt lat="40.47092583437425" lon="-3.1704610517339007"><ele>884.0000000000001</ele><time>2026-04-30T18:21:07Z</time></trkpt><trkpt lat="40.47090399915036" lon="-3.170612716617939"><ele>884.0</ele><time>2026-04-30T18:21:09Z</time></trkpt><trkpt lat="40.47088546157578" lon="-3.170703562213124"><ele>884.0</ele><time>2026-04-30T18:21:10Z</time></trkpt><trkpt lat="40.47086491787387" lon="-3.170805166747276"><ele>883.5000000000001</ele><time>2026-04-30T18:21:11Z</time></trkpt><trkpt lat="40.470843360910884" lon="-3.170895201173681"><ele>883.0</ele><time>2026-04-30T18:21:12Z</time></trkpt><trkpt lat="40.47082295366562" lon="-3.1709892533833086"><ele>882.5</ele><time>2026-04-30T18:21:13Z</time></trkpt><trkpt lat="40.47080102076713" lon="-3.1710809168765595"><ele>882.0</ele><time>2026-04-30T18:21:14Z</time></trkpt><trkpt lat="40.470773984038836" lon="-3.171177333152332"><ele>881.5000000000001</ele><time>2026-04-30T18:21:15Z</time></trkpt><trkpt lat="40.47074014770386" lon="-3.171271181977621"><ele>881.0</ele><time>2026-04-30T18:21:16Z</time></trkpt><trkpt lat="40.47070095119433" lon="-3.171362249498529"><ele>881.0000000000001</ele><time>2026-04-30T18:21:17Z</time></trkpt><trkpt lat="40.470671812993274" lon="-3.171454090273279"><ele>881.0</ele><time>2026-04-30T18:21:18Z</time></trkpt><trkpt lat="40.47062150784981" lon="-3.1715299769347296"><ele>881.0</ele><time>2026-04-30T18:21:19Z</time></trkpt><trkpt lat="40.47056321699839" lon="-3.1716113416481955"><ele>881.0</ele><time>2026-04-30T18:21:20Z</time></trkpt><trkpt lat="40.47050718551625" lon="-3.1716972333085964"><ele>881.0000000000001</ele><time>2026-04-30T18:21:21Z</time></trkpt><trkpt lat="40.470446113264806" lon="-3.1717720046519298"><ele>881.0</ele><time>2026-04-30T18:21:21.999Z</time></trkpt><trkpt lat="40.47039643653832" lon="-3.171841482228609"><ele>880.5000000000001</ele><time>2026-04-30T18:21:22.999Z</time></trkpt><trkpt lat="40.470340438508316" lon="-3.1719262835389648"><ele>880.0</ele><time>2026-04-30T18:21:23.999Z</time></trkpt><trkpt lat="40.470279066232074" lon="-3.1719900137432706"><ele>879.5</ele><time>2026-04-30T18:21:24.999Z</time></trkpt><trkpt lat="40.470200485455166" lon="-3.172035698197997"><ele>879.0</ele><time>2026-04-30T18:21:25.999Z</time></trkpt><trkpt lat="40.47011187979966" lon="-3.1720745550041505"><ele>878.5000000000001</ele><time>2026-04-30T18:21:26.999Z</time></trkpt><trkpt lat="40.470015659337456" lon="-3.17210706268533"><ele>878.0</ele><time>2026-04-30T18:21:27.999Z</time></trkpt><trkpt lat="40.46992667242001" lon="-3.1721411963570487"><ele>878.0</ele><time>2026-04-30T18:21:28.999Z</time></trkpt><trkpt lat="40.469842101340944" lon="-3.1721680325354997"><ele>878.0</ele><time>2026-04-30T18:21:29.999Z</time></trkpt><trkpt lat="40.469761861258775" lon="-3.1721889209548015"><ele>878.0</ele><time>2026-04-30T18:21:30.999Z</time></trkpt><trkpt lat="40.46966892864197" lon="-3.17221371353948"><ele>878.0</ele><time>2026-04-30T18:21:31.999Z</time></trkpt><trkpt lat="40.4695763702241" lon="-3.1722534728439244"><ele>878.0</ele><time>2026-04-30T18:21:32.999Z</time></trkpt><trkpt lat="40.46949060244507" lon="-3.172283172091596"><ele>877.1666666666667</ele><time>2026-04-30T18:21:33.999Z</time></trkpt><trkpt lat="40.4694120750493" lon="-3.172318581907457"><ele>876.3333333333334</ele><time>2026-04-30T18:21:34.999Z</time></trkpt><trkpt lat="40.4693424529303" lon="-3.1723690114392813"><ele>875.5</ele><time>2026-04-30T18:21:35.999Z</time></trkpt><trkpt lat="40.469273451355505" lon="-3.1724005782795244"><ele>874.6666666666667</ele><time>2026-04-30T18:21:36.999Z</time></trkpt><trkpt lat="40.46918877609035" lon="-3.1724221081297515"><ele>873.8333333333334</ele><time>2026-04-30T18:21:37.999Z</time></trkpt><trkpt lat="40.469101072296" lon="-3.1724560542631686"><ele>873.0</ele><time>2026-04-30T18:21:38.999Z</time></trkpt><trkpt lat="40.46901250669329" lon="-3.1724923695846394"><ele>872.5999999999999</ele><time>2026-04-30T18:21:39.999Z</time></trkpt><trkpt lat="40.46892901785675" lon="-3.1725281874492293"><ele>872.1999999999999</ele><time>2026-04-30T18:21:40.999Z</time></trkpt><trkpt lat="40.46884059660769" lon="-3.172552323357464"><ele>871.8</ele><time>2026-04-30T18:21:41.999Z</time></trkpt><trkpt lat="40.46874820494692" lon="-3.1725822780673423"><ele>871.4</ele><time>2026-04-30T18:21:42.999Z</time></trkpt><trkpt lat="40.46866445755148" lon="-3.1726510920058177"><ele>871.0</ele><time>2026-04-30T18:21:43.999Z</time></trkpt><trkpt lat="40.46857833229274" lon="-3.1726830565022324"><ele>870.3333333333333</ele><time>2026-04-30T18:21:44.999Z</time></trkpt><trkpt lat="40.468485437066704" lon="-3.172703469879623"><ele>869.6666666666666</ele><time>2026-04-30T18:21:45.999Z</time></trkpt><trkpt lat="40.4684059196524" lon="-3.1727318077719087"><ele>869.0</ele><time>2026-04-30T18:21:46.999Z</time></trkpt><trkpt lat="40.46832415678778" lon="-3.172760517585569"><ele>868.3333333333333</ele><time>2026-04-30T18:21:47.999Z</time></trkpt><trkpt lat="40.46825626091282" lon="-3.172783906775735"><ele>867.6666666666666</ele><time>2026-04-30T18:21:48.999Z</time></trkpt><trkpt lat="40.46816428388558" lon="-3.172818645943453"><ele>867.0</ele><time>2026-04-30T18:21:50.999Z</time></trkpt><trkpt lat="40.46807199968735" lon="-3.172867449512731"><ele>867.0</ele><time>2026-04-30T18:21:52.999Z</time></trkpt><trkpt lat="40.467963654936604" lon="-3.172907665929543"><ele>867.0</ele><time>2026-04-30T18:21:54.999Z</time></trkpt><trkpt lat="40.46789428970893" lon="-3.1729336563729094"><ele>867.0</ele><time>2026-04-30T18:21:55.999Z</time></trkpt><trkpt lat="40.467822229588315" lon="-3.1729612115699655"><ele>867.0</ele><time>2026-04-30T18:21:56.999Z</time></trkpt><trkpt lat="40.467743236427225" lon="-3.172991471754961"><ele>867.0</ele><time>2026-04-30T18:21:57.999Z</time></trkpt><trkpt lat="40.46766095723554" lon="-3.1730229907315803"><ele>867.0</ele><time>2026-04-30T18:21:58.999Z</time></trkpt><trkpt lat="40.46757127126399" lon="-3.1730361449872393"><ele>867.0</ele><time>2026-04-30T18:21:59.999Z</time></trkpt><trkpt lat="40.46749149209932" lon="-3.1730852260152718"><ele>867.0</ele><time>2026-04-30T18:22:00.999Z</time></trkpt><trkpt lat="40.46740242488919" lon="-3.1731037005385945"><ele>867.0</ele><time>2026-04-30T18:22:01.999Z</time></trkpt><trkpt lat="40.467325009645606" lon="-3.1731301582247875"><ele>867.0</ele><time>2026-04-30T18:22:02.999Z</time></trkpt><trkpt lat="40.46725508469178" lon="-3.173154053520075"><ele>867.0</ele><time>2026-04-30T18:22:03.999Z</time></trkpt><trkpt lat="40.46717944726328" lon="-3.173180774041367"><ele>867.0</ele><time>2026-04-30T18:22:04.999Z</time></trkpt><trkpt lat="40.46709388811224" lon="-3.173233466084326"><ele>868.0</ele><time>2026-04-30T18:22:05.999Z</time></trkpt><trkpt lat="40.46700332092431" lon="-3.1732664405405404"><ele>869.0</ele><time>2026-04-30T18:22:06.999Z</time></trkpt><trkpt lat="40.466912181076836" lon="-3.1732771421628665"><ele>870.0</ele><time>2026-04-30T18:22:07.999Z</time></trkpt><trkpt lat="40.46682498136127" lon="-3.173311756957026"><ele>871.0</ele><time>2026-04-30T18:22:08.999Z</time></trkpt><trkpt lat="40.46674137368779" lon="-3.173329518660283"><ele>872.0</ele><time>2026-04-30T18:22:09.999Z</time></trkpt><trkpt lat="40.46666065521049" lon="-3.173341181673968"><ele>873.0</ele><time>2026-04-30T18:22:10.999Z</time></trkpt><trkpt lat="40.466592019454595" lon="-3.1733557005395117"><ele>873.0</ele><time>2026-04-30T18:22:11.999Z</time></trkpt><trkpt lat="40.466492906126" lon="-3.173375498006755"><ele>873.0</ele><time>2026-04-30T18:22:13.999Z</time></trkpt><trkpt lat="40.466397475974965" lon="-3.1734039121880544"><ele>873.0</ele><time>2026-04-30T18:22:15.999Z</time></trkpt><trkpt lat="40.466331234862146" lon="-3.1734180820630984"><ele>873.0</ele><time>2026-04-30T18:22:16.999Z</time></trkpt><trkpt lat="40.466245665657794" lon="-3.173437413154013"><ele>873.0</ele><time>2026-04-30T18:22:17.999Z</time></trkpt><trkpt lat="40.4661569311467" lon="-3.1734575812591324"><ele>873.0</ele><time>2026-04-30T18:22:18.999Z</time></trkpt><trkpt lat="40.466078173142705" lon="-3.17347562099364"><ele>873.3333333333334</ele><time>2026-04-30T18:22:19.999Z</time></trkpt><trkpt lat="40.46599641694866" lon="-3.1734725261642818"><ele>873.6666666666667</ele><time>2026-04-30T18:22:20.999Z</time></trkpt><trkpt lat="40.46591416561184" lon="-3.1735000949341545"><ele>874.0</ele><time>2026-04-30T18:22:21.999Z</time></trkpt><trkpt lat="40.4658265952726" lon="-3.1735196164087665"><ele>874.3333333333334</ele><time>2026-04-30T18:22:22.999Z</time></trkpt><trkpt lat="40.46573675791681" lon="-3.173537105753513"><ele>874.6666666666667</ele><time>2026-04-30T18:22:23.999Z</time></trkpt><trkpt lat="40.46565415508884" lon="-3.173555683970343"><ele>875.0</ele><time>2026-04-30T18:22:24.999Z</time></trkpt><trkpt lat="40.465580664519614" lon="-3.1735872844551065"><ele>875.0000000000001</ele><time>2026-04-30T18:22:25.999Z</time></trkpt><trkpt lat="40.46550090439296" lon="-3.173604395976663"><ele>875.0</ele><time>2026-04-30T18:22:26.999Z</time></trkpt><trkpt lat="40.46540950275108" lon="-3.173623821854046"><ele>875.0</ele><time>2026-04-30T18:22:27.999Z</time></trkpt><trkpt lat="40.46532149789875" lon="-3.1736184560455665"><ele>875.0</ele><time>2026-04-30T18:22:28.999Z</time></trkpt><trkpt lat="40.4652591082047" lon="-3.1736324456909784"><ele>875.0000000000001</ele><time>2026-04-30T18:22:29.999Z</time></trkpt><trkpt lat="40.46519175964055" lon="-3.1736529156099"><ele>875.0</ele><time>2026-04-30T18:22:30.999Z</time></trkpt><trkpt lat="40.46512216099522" lon="-3.173743314855104"><ele>875.2</ele><time>2026-04-30T18:22:31.999Z</time></trkpt><trkpt lat="40.46502674572702" lon="-3.1738091319175643"><ele>875.4</ele><time>2026-04-30T18:22:33Z</time></trkpt><trkpt lat="40.46492990650754" lon="-3.1738839847173193"><ele>875.5999999999999</ele><time>2026-04-30T18:22:34Z</time></trkpt><trkpt lat="40.46483208515302" lon="-3.1739610251167862"><ele>875.8</ele><time>2026-04-30T18:22:35Z</time></trkpt><trkpt lat="40.46472987969284" lon="-3.174019216948146"><ele>876.0</ele><time>2026-04-30T18:22:36Z</time></trkpt><trkpt lat="40.46465142978246" lon="-3.17409436832609"><ele>876.4</ele><time>2026-04-30T18:22:37Z</time></trkpt><trkpt lat="40.46458624846547" lon="-3.1741475994215067"><ele>876.8</ele><time>2026-04-30T18:22:38Z</time></trkpt><trkpt lat="40.46453725289341" lon="-3.1742164500209857"><ele>877.1999999999999</ele><time>2026-04-30T18:22:41Z</time></trkpt><trkpt lat="40.46439758199539" lon="-3.1741311583811176"><ele>877.5999999999999</ele><time>2026-04-30T18:22:43Z</time></trkpt><trkpt lat="40.46432874398372" lon="-3.1740795736746077"><ele>878.0</ele><time>2026-04-30T18:22:44Z</time></trkpt><trkpt lat="40.464253502879245" lon="-3.174023192492375"><ele>877.8571428571429</ele><time>2026-04-30T18:22:45Z</time></trkpt><trkpt lat="40.46418449473393" lon="-3.1739714818052556"><ele>877.7142857142857</ele><time>2026-04-30T18:22:46Z</time></trkpt><trkpt lat="40.46411832132902" lon="-3.1739218953056034"><ele>877.5714285714287</ele><time>2026-04-30T18:22:47Z</time></trkpt><trkpt lat="40.46405586771952" lon="-3.1738768776557236"><ele>877.4285714285714</ele><time>2026-04-30T18:22:48Z</time></trkpt><trkpt lat="40.46399125967585" lon="-3.1738404475241"><ele>877.2857142857143</ele><time>2026-04-30T18:22:49Z</time></trkpt><trkpt lat="40.46392256000879" lon="-3.173807065873665"><ele>877.1428571428572</ele><time>2026-04-30T18:22:50Z</time></trkpt><trkpt lat="40.46385801798246" lon="-3.1737529418769306"><ele>877.0</ele><time>2026-04-30T18:22:51Z</time></trkpt><trkpt lat="40.46380592591184" lon="-3.173703254080989"><ele>876.8</ele><time>2026-04-30T18:22:52Z</time></trkpt><trkpt lat="40.46370464496852" lon="-3.1736548441032677"><ele>876.6</ele><time>2026-04-30T18:22:54Z</time></trkpt><trkpt lat="40.4635977664162" lon="-3.1736540426138156"><ele>876.3999999999999</ele><time>2026-04-30T18:22:56Z</time></trkpt><trkpt lat="40.46348099852106" lon="-3.1736546558767667"><ele>876.1999999999999</ele><time>2026-04-30T18:22:58Z</time></trkpt><trkpt lat="40.46341408034282" lon="-3.173664397717623"><ele>876.0</ele><time>2026-04-30T18:22:59Z</time></trkpt><trkpt lat="40.463349652490116" lon="-3.1736774923015965"><ele>876.0</ele><time>2026-04-30T18:23:00Z</time></trkpt><trkpt lat="40.463277468371736" lon="-3.1736934534810533"><ele>876.0</ele><time>2026-04-30T18:23:01Z</time></trkpt><trkpt lat="40.463198201936315" lon="-3.1736957628285944"><ele>876.0</ele><time>2026-04-30T18:23:02Z</time></trkpt><trkpt lat="40.463127463245335" lon="-3.173748942574501"><ele>876.0</ele><time>2026-04-30T18:23:03Z</time></trkpt><trkpt lat="40.463051689994025" lon="-3.173785280214615"><ele>876.0</ele><time>2026-04-30T18:23:04Z</time></trkpt><trkpt lat="40.46297361037317" lon="-3.1738161988578257"><ele>876.0</ele><time>2026-04-30T18:23:05Z</time></trkpt><trkpt lat="40.46288607781894" lon="-3.173817773429246"><ele>875.3333333333334</ele><time>2026-04-30T18:23:06Z</time></trkpt><trkpt lat="40.46280910925525" lon="-3.1738036541712646"><ele>874.6666666666667</ele><time>2026-04-30T18:23:07Z</time></trkpt><trkpt lat="40.4627358989665" lon="-3.1737882973847724"><ele>874.0</ele><time>2026-04-30T18:23:08Z</time></trkpt><trkpt lat="40.462675245912465" lon="-3.1737250552598217"><ele>873.3333333333334</ele><time>2026-04-30T18:23:09Z</time></trkpt><trkpt lat="40.462584128542346" lon="-3.173648706235611"><ele>872.6666666666667</ele><time>2026-04-30T18:23:11Z</time></trkpt><trkpt lat="40.4625088174911" lon="-3.173622987218377"><ele>872.0</ele><time>2026-04-30T18:23:13Z</time></trkpt><trkpt lat="40.46243918976078" lon="-3.173716369831453"><ele>872.0</ele><time>2026-04-30T18:23:14Z</time></trkpt><trkpt lat="40.46238213604752" lon="-3.1737927943619924"><ele>872.0</ele><time>2026-04-30T18:23:15Z</time></trkpt><trkpt lat="40.462313822623834" lon="-3.1738790491535154"><ele>872.0</ele><time>2026-04-30T18:23:16Z</time></trkpt><trkpt lat="40.46224693464221" lon="-3.1739625227831287"><ele>872.0</ele><time>2026-04-30T18:23:17Z</time></trkpt><trkpt lat="40.46217668045388" lon="-3.1740687496414868"><ele>872.0</ele><time>2026-04-30T18:23:18Z</time></trkpt><trkpt lat="40.4621123027274" lon="-3.1741832605860867"><ele>871.1666666666667</ele><time>2026-04-30T18:23:19Z</time></trkpt><trkpt lat="40.462061018346795" lon="-3.174296232435054"><ele>870.3333333333334</ele><time>2026-04-30T18:23:20Z</time></trkpt><trkpt lat="40.462016096878955" lon="-3.1743947200472595"><ele>869.5</ele><time>2026-04-30T18:23:21Z</time></trkpt><trkpt lat="40.46198203586321" lon="-3.174480078399075"><ele>868.6666666666667</ele><time>2026-04-30T18:23:22Z</time></trkpt><trkpt lat="40.461952316163725" lon="-3.1745564784938147"><ele>867.8333333333334</ele><time>2026-04-30T18:23:22.999Z</time></trkpt><trkpt lat="40.461922338547886" lon="-3.1746293697298418"><ele>867.0</ele><time>2026-04-30T18:23:23.999Z</time></trkpt><trkpt lat="40.46188967583556" lon="-3.174707032042299"><ele>867.0</ele><time>2026-04-30T18:23:24.999Z</time></trkpt><trkpt lat="40.46186074122169" lon="-3.1747957897574577"><ele>867.0</ele><time>2026-04-30T18:23:25.999Z</time></trkpt><trkpt lat="40.461867523886134" lon="-3.1749770865392506"><ele>867.0</ele><time>2026-04-30T18:23:27.999Z</time></trkpt><trkpt lat="40.46190743027427" lon="-3.1750634957334594"><ele>867.0</ele><time>2026-04-30T18:23:28.999Z</time></trkpt><trkpt lat="40.461960853079155" lon="-3.17514209271687"><ele>867.0</ele><time>2026-04-30T18:23:29.999Z</time></trkpt><trkpt lat="40.46201955693031" lon="-3.1752264083976587"><ele>867.0</ele><time>2026-04-30T18:23:30.999Z</time></trkpt><trkpt lat="40.46207401265951" lon="-3.1753047734458533"><ele>867.0</ele><time>2026-04-30T18:23:31.999Z</time></trkpt><trkpt lat="40.462122171486314" lon="-3.175373403966826"><ele>867.0</ele><time>2026-04-30T18:23:32.999Z</time></trkpt><trkpt lat="40.462200937028015" lon="-3.175495552342655"><ele>867.0</ele><time>2026-04-30T18:23:34.999Z</time></trkpt><trkpt lat="40.462243597402086" lon="-3.1755597812863714"><ele>867.0</ele><time>2026-04-30T18:23:35.999Z</time></trkpt><trkpt lat="40.4622869192726" lon="-3.175634469985176"><ele>867.0</ele><time>2026-04-30T18:23:36.999Z</time></trkpt><trkpt lat="40.4623260898702" lon="-3.175702665318053"><ele>868.0</ele><time>2026-04-30T18:23:37.999Z</time></trkpt><trkpt lat="40.46239183034693" lon="-3.1758319805812056"><ele>869.0</ele><time>2026-04-30T18:23:39.999Z</time></trkpt><trkpt lat="40.46244481052189" lon="-3.1759583169048833"><ele>870.0</ele><time>2026-04-30T18:23:41.999Z</time></trkpt><trkpt lat="40.462446435826536" lon="-3.1760464107454776"><ele>871.0</ele><time>2026-04-30T18:23:43.999Z</time></trkpt><trkpt lat="40.462360755412625" lon="-3.1761411040853806"><ele>872.0</ele><time>2026-04-30T18:23:45.999Z</time></trkpt><trkpt lat="40.46228608881337" lon="-3.1761795477057837"><ele>872.0000000000001</ele><time>2026-04-30T18:23:46.999Z</time></trkpt><trkpt lat="40.462218254338644" lon="-3.176230198349931"><ele>872.0</ele><time>2026-04-30T18:23:47.999Z</time></trkpt><trkpt lat="40.46215684400219" lon="-3.1762713463501293"><ele>872.0</ele><time>2026-04-30T18:23:48.999Z</time></trkpt><trkpt lat="40.46209996711105" lon="-3.1763142559166395"><ele>872.0</ele><time>2026-04-30T18:23:49.999Z</time></trkpt><trkpt lat="40.4620164694312" lon="-3.176388094931832"><ele>872.0000000000001</ele><time>2026-04-30T18:23:51.999Z</time></trkpt><trkpt lat="40.4619203077644" lon="-3.1764613327004234"><ele>872.0</ele><time>2026-04-30T18:23:54.999Z</time></trkpt><trkpt lat="40.46180461200428" lon="-3.176418607901647"><ele>871.0000000000001</ele><time>2026-04-30T18:23:55.999Z</time></trkpt><trkpt lat="40.461727316875304" lon="-3.176373199237807"><ele>870.0</ele><time>2026-04-30T18:23:57.999Z</time></trkpt><trkpt lat="40.4616448078852" lon="-3.1763288359014363"><ele>869.0</ele><time>2026-04-30T18:24:00.999Z</time></trkpt><trkpt lat="40.461553244164115" lon="-3.176282203345903"><ele>868.0</ele><time>2026-04-30T18:24:02.999Z</time></trkpt><trkpt lat="40.461486763405595" lon="-3.1762535721627305"><ele>867.0000000000001</ele><time>2026-04-30T18:24:03.999Z</time></trkpt><trkpt lat="40.46141827248221" lon="-3.176223543220135"><ele>866.0</ele><time>2026-04-30T18:24:04.999Z</time></trkpt><trkpt lat="40.4613481318174" lon="-3.1761938127235925"><ele>866.0000000000001</ele><time>2026-04-30T18:24:05.999Z</time></trkpt><trkpt lat="40.46127325343208" lon="-3.176163904278824"><ele>866.0</ele><time>2026-04-30T18:24:06.999Z</time></trkpt><trkpt lat="40.46119978119901" lon="-3.176134557490804"><ele>866.0</ele><time>2026-04-30T18:24:07.999Z</time></trkpt><trkpt lat="40.46112592349429" lon="-3.176110291676196"><ele>866.0</ele><time>2026-04-30T18:24:08.999Z</time></trkpt><trkpt lat="40.461040507374726" lon="-3.176093780713707"><ele>866.0000000000001</ele><time>2026-04-30T18:24:09.999Z</time></trkpt><trkpt lat="40.4609478766782" lon="-3.176093772676335"><ele>866.0</ele><time>2026-04-30T18:24:10.999Z</time></trkpt><trkpt lat="40.460854316295155" lon="-3.176129768335659"><ele>866.0</ele><time>2026-04-30T18:24:11.999Z</time></trkpt><trkpt lat="40.46076681878633" lon="-3.1761848779070556"><ele>865.9999999999999</ele><time>2026-04-30T18:24:12.999Z</time></trkpt><trkpt lat="40.460684178029155" lon="-3.1762398386186326"><ele>865.9999999999999</ele><time>2026-04-30T18:24:13.999Z</time></trkpt><trkpt lat="40.46061731522546" lon="-3.176268771853839"><ele>866.0</ele><time>2026-04-30T18:24:14.999Z</time></trkpt><trkpt lat="40.46052026372718" lon="-3.176346382392585"><ele>866.0</ele><time>2026-04-30T18:24:16.999Z</time></trkpt><trkpt lat="40.46044428404042" lon="-3.1763936419254284"><ele>866.0000000000001</ele><time>2026-04-30T18:24:18.999Z</time></trkpt><trkpt lat="40.460396527915094" lon="-3.176452525025402"><ele>866.0</ele><time>2026-04-30T18:24:21.999Z</time></trkpt><trkpt lat="40.46046639269412" lon="-3.1763927409261496"><ele>866.0</ele><time>2026-04-30T18:24:46Z</time></trkpt><trkpt lat="40.46053088398013" lon="-3.1763418721799708"><ele>866.0</ele><time>2026-04-30T18:24:48Z</time></trkpt><trkpt lat="40.4606198667157" lon="-3.1762763794916338"><ele>866.0000000000001</ele><time>2026-04-30T18:24:50Z</time></trkpt><trkpt lat="40.460685828412466" lon="-3.176240404988868"><ele>866.0</ele><time>2026-04-30T18:24:52Z</time></trkpt><trkpt lat="40.46052728345711" lon="-3.176073135261682"><ele>866.0000000000001</ele><time>2026-04-30T18:24:58Z</time></trkpt><trkpt lat="40.46047631446818" lon="-3.1760236701505646"><ele>866.0</ele><time>2026-04-30T18:25:01Z</time></trkpt><trkpt lat="40.460426209044925" lon="-3.1759696228716114"><ele>866.0</ele><time>2026-04-30T18:25:04Z</time></trkpt><trkpt lat="40.46035946853546" lon="-3.1758904088493662"><ele>866.0</ele><time>2026-04-30T18:25:07Z</time></trkpt><trkpt lat="40.46029260785232" lon="-3.175813202291044"><ele>866.0000000000001</ele><time>2026-04-30T18:25:10Z</time></trkpt><trkpt lat="40.4602110916251" lon="-3.1757451599913384"><ele>866.0</ele><time>2026-04-30T18:25:13Z</time></trkpt><trkpt lat="40.460143093710165" lon="-3.17573108082706"><ele>866.0000000000001</ele><time>2026-04-30T18:25:15Z</time></trkpt><trkpt lat="40.46006053234066" lon="-3.1757205280195193"><ele>866.0</ele><time>2026-04-30T18:25:17Z</time></trkpt><trkpt lat="40.45997006075964" lon="-3.1757092788646673"><ele>866.0</ele><time>2026-04-30T18:25:19Z</time></trkpt><trkpt lat="40.45987096261022" lon="-3.1756969570910853"><ele>866.0</ele><time>2026-04-30T18:25:21Z</time></trkpt><trkpt lat="40.45977125829884" lon="-3.175659342670674"><ele>866.0000000000001</ele><time>2026-04-30T18:25:23Z</time></trkpt><trkpt lat="40.459705089162966" lon="-3.1756704869015193"><ele>866.0</ele><time>2026-04-30T18:25:25Z</time></trkpt><trkpt lat="40.45961630415983" lon="-3.1756937738929163"><ele>865.1999999999999</ele><time>2026-04-30T18:25:27.999Z</time></trkpt><trkpt lat="40.459518715705045" lon="-3.1756643694659092"><ele>864.3999999999999</ele><time>2026-04-30T18:25:30.999Z</time></trkpt><trkpt lat="40.45943447780032" lon="-3.175673428024772"><ele>863.6</ele><time>2026-04-30T18:25:32.999Z</time></trkpt><trkpt lat="40.459339591445875" lon="-3.175697335292595"><ele>862.8</ele><time>2026-04-30T18:25:34.999Z</time></trkpt><trkpt lat="40.459239065654586" lon="-3.1757192754331975"><ele>862.0</ele><time>2026-04-30T18:25:36.999Z</time></trkpt><trkpt lat="40.45915116205388" lon="-3.1757252867124586"><ele>861.9999999999999</ele><time>2026-04-30T18:25:38.999Z</time></trkpt><trkpt lat="40.459074953590445" lon="-3.1757335938232822"><ele>862.0</ele><time>2026-04-30T18:25:41.999Z</time></trkpt><trkpt lat="40.45899110598275" lon="-3.175695211601927"><ele>862.0</ele><time>2026-04-30T18:25:44.999Z</time></trkpt><trkpt lat="40.45890377241102" lon="-3.1756903336073314"><ele>862.0</ele><time>2026-04-30T18:25:47.999Z</time></trkpt><trkpt lat="40.45883490082171" lon="-3.175740762955064"><ele>861.9999999999999</ele><time>2026-04-30T18:25:49.999Z</time></trkpt><trkpt lat="40.458751041276656" lon="-3.1757965120818312"><ele>862.0</ele><time>2026-04-30T18:25:51.999Z</time></trkpt><trkpt lat="40.458651096006776" lon="-3.1758667941904"><ele>862.8</ele><time>2026-04-30T18:25:53.999Z</time></trkpt><trkpt lat="40.45853881352282" lon="-3.175919415294619"><ele>863.6</ele><time>2026-04-30T18:25:55.999Z</time></trkpt><trkpt lat="40.458434620061205" lon="-3.1759665356070736"><ele>864.3999999999999</ele><time>2026-04-30T18:25:57.999Z</time></trkpt><trkpt lat="40.45832776777637" lon="-3.1760054411976735"><ele>865.1999999999999</ele><time>2026-04-30T18:25:59.999Z</time></trkpt><trkpt lat="40.45823914261635" lon="-3.1760358578366765"><ele>866.0</ele><time>2026-04-30T18:26:01.999Z</time></trkpt><trkpt lat="40.45814556104457" lon="-3.1760606817691532"><ele>866.0000000000001</ele><time>2026-04-30T18:26:03.999Z</time></trkpt><trkpt lat="40.458058891845134" lon="-3.1760851845431084"><ele>866.0</ele><time>2026-04-30T18:26:05.999Z</time></trkpt><trkpt lat="40.4579446326804" lon="-3.1761381270509474"><ele>866.0</ele><time>2026-04-30T18:26:07.999Z</time></trkpt><trkpt lat="40.45787421707172" lon="-3.17614834745884"><ele>866.0</ele><time>2026-04-30T18:26:08.999Z</time></trkpt><trkpt lat="40.45780115459639" lon="-3.1761447098478137"><ele>866.0000000000001</ele><time>2026-04-30T18:26:09.999Z</time></trkpt><trkpt lat="40.45772837249682" lon="-3.176136586881248"><ele>866.0</ele><time>2026-04-30T18:26:10.999Z</time></trkpt><trkpt lat="40.457663208347114" lon="-3.1761295901410835"><ele>866.0</ele><time>2026-04-30T18:26:11.999Z</time></trkpt><trkpt lat="40.4575589987167" lon="-3.176137451983565"><ele>865.9999999999999</ele><time>2026-04-30T18:26:13.999Z</time></trkpt><trkpt lat="40.45763457569122" lon="-3.17612637675905"><ele>865.9999999999999</ele><time>2026-04-30T18:26:58Z</time></trkpt><trkpt lat="40.45773941808579" lon="-3.1761211936029907"><ele>866.0</ele><time>2026-04-30T18:27:00Z</time></trkpt><trkpt lat="40.45784210722867" lon="-3.176134829764286"><ele>866.0</ele><time>2026-04-30T18:27:02Z</time></trkpt><trkpt lat="40.457961587482075" lon="-3.1761312181898527"><ele>866.0000000000001</ele><time>2026-04-30T18:27:04Z</time></trkpt><trkpt lat="40.45806614160621" lon="-3.1760876976110373"><ele>866.0</ele><time>2026-04-30T18:27:06Z</time></trkpt><trkpt lat="40.45814319783915" lon="-3.176037660671171"><ele>866.0</ele><time>2026-04-30T18:27:08Z</time></trkpt><trkpt lat="40.45821648592947" lon="-3.176020133462555"><ele>866.0</ele><time>2026-04-30T18:27:10Z</time></trkpt><trkpt lat="40.45829944316842" lon="-3.176008914521666"><ele>866.0000000000001</ele><time>2026-04-30T18:27:12Z</time></trkpt><trkpt lat="40.45838976096213" lon="-3.175974254652938"><ele>866.0</ele><time>2026-04-30T18:27:14Z</time></trkpt><trkpt lat="40.45848834976482" lon="-3.1759452142527023"><ele>866.0</ele><time>2026-04-30T18:27:16Z</time></trkpt><trkpt lat="40.458578389654164" lon="-3.1759030941332966"><ele>865.9999999999999</ele><time>2026-04-30T18:27:18Z</time></trkpt><trkpt lat="40.45867739301054" lon="-3.175850891194141"><ele>865.9999999999999</ele><time>2026-04-30T18:27:20Z</time></trkpt><trkpt lat="40.45878127468135" lon="-3.175779114989827"><ele>866.0</ele><time>2026-04-30T18:27:22Z</time></trkpt><trkpt lat="40.458878342833785" lon="-3.175718122907541"><ele>866.0</ele><time>2026-04-30T18:27:24Z</time></trkpt><trkpt lat="40.45895016771606" lon="-3.1756591850670417"><ele>865.3333333333334</ele><time>2026-04-30T18:27:28Z</time></trkpt><trkpt lat="40.459040185091446" lon="-3.175710168049361"><ele>864.6666666666667</ele><time>2026-04-30T18:27:30.999Z</time></trkpt><trkpt lat="40.45909915654202" lon="-3.175740010723856"><ele>864.0</ele><time>2026-04-30T18:27:32.999Z</time></trkpt><trkpt lat="40.45917118861737" lon="-3.1757291183705485"><ele>863.3333333333333</ele><time>2026-04-30T18:27:34.999Z</time></trkpt><trkpt lat="40.45925980702958" lon="-3.17571044207221"><ele>862.6666666666666</ele><time>2026-04-30T18:27:36.999Z</time></trkpt><trkpt lat="40.4593624830999" lon="-3.1756974343097295"><ele>862.0</ele><time>2026-04-30T18:27:38.999Z</time></trkpt><trkpt lat="40.459470823856364" lon="-3.1756747980868227"><ele>862.0</ele><time>2026-04-30T18:27:40.999Z</time></trkpt><trkpt lat="40.459555605241015" lon="-3.17566287584676"><ele>862.0</ele><time>2026-04-30T18:27:42.999Z</time></trkpt><trkpt lat="40.459639384307" lon="-3.1756951445708164"><ele>862.0</ele><time>2026-04-30T18:27:44.999Z</time></trkpt><trkpt lat="40.459732364728175" lon="-3.1756859788751415"><ele>862.0</ele><time>2026-04-30T18:27:46.999Z</time></trkpt><trkpt lat="40.45982230106841" lon="-3.175663650285399"><ele>862.0</ele><time>2026-04-30T18:27:48.999Z</time></trkpt><trkpt lat="40.45993201958654" lon="-3.175676775803964"><ele>862.8</ele><time>2026-04-30T18:27:50.999Z</time></trkpt><trkpt lat="40.460058037269555" lon="-3.1756913012026144"><ele>863.6</ele><time>2026-04-30T18:27:52.999Z</time></trkpt><trkpt lat="40.46015732540815" lon="-3.1757066821867714"><ele>864.3999999999999</ele><time>2026-04-30T18:27:54.999Z</time></trkpt><trkpt lat="40.460256385612816" lon="-3.175734880116105"><ele>865.1999999999999</ele><time>2026-04-30T18:27:56.999Z</time></trkpt><trkpt lat="40.46032223089037" lon="-3.1758123835471155"><ele>866.0</ele><time>2026-04-30T18:27:58.999Z</time></trkpt><trkpt lat="40.460377389439046" lon="-3.175876698880306"><ele>865.9999999999999</ele><time>2026-04-30T18:28:00.999Z</time></trkpt><trkpt lat="40.460429020188904" lon="-3.17593451889617"><ele>866.0</ele><time>2026-04-30T18:28:02.999Z</time></trkpt><trkpt lat="40.46048535527435" lon="-3.1759769057592004"><ele>866.0</ele><time>2026-04-30T18:28:04.999Z</time></trkpt><trkpt lat="40.46054810319644" lon="-3.176055053134314"><ele>866.0</ele><time>2026-04-30T18:28:08.999Z</time></trkpt><trkpt lat="40.4606044789264" lon="-3.176112241790188"><ele>866.0</ele><time>2026-04-30T18:28:10.999Z</time></trkpt><trkpt lat="40.460670732177576" lon="-3.176154311809677"><ele>865.9999999999999</ele><time>2026-04-30T18:28:12.999Z</time></trkpt><trkpt lat="40.46075531240817" lon="-3.176149725656582"><ele>866.0</ele><time>2026-04-30T18:28:14.999Z</time></trkpt><trkpt lat="40.460851024315225" lon="-3.1760841583460513"><ele>866.0000000000001</ele><time>2026-04-30T18:28:16.999Z</time></trkpt><trkpt lat="40.46097768314047" lon="-3.176042706736865"><ele>866.0</ele><time>2026-04-30T18:28:18.999Z</time></trkpt><trkpt lat="40.461049340179876" lon="-3.176054768619501"><ele>866.0</ele><time>2026-04-30T18:28:19.999Z</time></trkpt><trkpt lat="40.461120741157245" lon="-3.176073271505389"><ele>866.0</ele><time>2026-04-30T18:28:20.999Z</time></trkpt><trkpt lat="40.46119498722108" lon="-3.176106009184275"><ele>866.0000000000001</ele><time>2026-04-30T18:28:21.999Z</time></trkpt><trkpt lat="40.461270230607184" lon="-3.176137494425238"><ele>866.0</ele><time>2026-04-30T18:28:22.999Z</time></trkpt><trkpt lat="40.46134668463061" lon="-3.1761639966312045"><ele>866.0000000000001</ele><time>2026-04-30T18:28:23.999Z</time></trkpt><trkpt lat="40.46142633239705" lon="-3.1761915608869202"><ele>866.0</ele><time>2026-04-30T18:28:24.999Z</time></trkpt><trkpt lat="40.46150779533981" lon="-3.1762263765314134"><ele>866.0</ele><time>2026-04-30T18:28:25.999Z</time></trkpt><trkpt lat="40.461572575430836" lon="-3.1762547613851733"><ele>866.0</ele><time>2026-04-30T18:28:26.999Z</time></trkpt><trkpt lat="40.46164885375999" lon="-3.1762784929669152"><ele>866.0000000000001</ele><time>2026-04-30T18:28:27.999Z</time></trkpt><trkpt lat="40.461718989816625" lon="-3.1763142094034236"><ele>866.0</ele><time>2026-04-30T18:28:28.999Z</time></trkpt><trkpt lat="40.46177830915818" lon="-3.1763492110384886"><ele>866.0</ele><time>2026-04-30T18:28:29.999Z</time></trkpt><trkpt lat="40.46187433467374" lon="-3.176433583106051"><ele>865.9999999999999</ele><time>2026-04-30T18:28:31.999Z</time></trkpt><trkpt lat="40.4619234516665" lon="-3.176572777767845"><ele>865.9999999999999</ele><time>2026-04-30T18:28:33.999Z</time></trkpt><trkpt lat="40.46195153231363" lon="-3.176728712892427"><ele>866.0</ele><time>2026-04-30T18:28:35.999Z</time></trkpt><trkpt lat="40.461948227849845" lon="-3.1768156510156174"><ele>866.0</ele><time>2026-04-30T18:28:36.999Z</time></trkpt><trkpt lat="40.461977011852625" lon="-3.1768925723947365"><ele>866.0000000000001</ele><time>2026-04-30T18:28:37.998Z</time></trkpt><trkpt lat="40.461992232669516" lon="-3.1769811015266707"><ele>866.0</ele><time>2026-04-30T18:28:38.998Z</time></trkpt><trkpt lat="40.461990130568275" lon="-3.1770803551791347"><ele>866.0</ele><time>2026-04-30T18:28:39.998Z</time></trkpt><trkpt lat="40.46202693143271" lon="-3.177204731484042"><ele>866.0</ele><time>2026-04-30T18:28:41.998Z</time></trkpt><trkpt lat="40.46202588656755" lon="-3.1773405597455358"><ele>866.0000000000001</ele><time>2026-04-30T18:28:43.998Z</time></trkpt><trkpt lat="40.462011110927634" lon="-3.17742540904135"><ele>866.0</ele><time>2026-04-30T18:28:44.998Z</time></trkpt><trkpt lat="40.462002021914486" lon="-3.1775251410653773"><ele>866.3333333333334</ele><time>2026-04-30T18:28:45.998Z</time></trkpt><trkpt lat="40.4619962308924" lon="-3.1776216204661947"><ele>866.6666666666667</ele><time>2026-04-30T18:28:46.998Z</time></trkpt><trkpt lat="40.46198539298943" lon="-3.1777174852060757"><ele>867.0</ele><time>2026-04-30T18:28:47.998Z</time></trkpt><trkpt lat="40.4619645444682" lon="-3.1778236733920084"><ele>867.3333333333333</ele><time>2026-04-30T18:28:48.998Z</time></trkpt><trkpt lat="40.46193939490293" lon="-3.1779301406260294"><ele>867.6666666666666</ele><time>2026-04-30T18:28:50Z</time></trkpt><trkpt lat="40.461910264623704" lon="-3.178042891391722"><ele>868.0</ele><time>2026-04-30T18:28:51Z</time></trkpt><trkpt lat="40.461876898682625" lon="-3.1781571788088923"><ele>868.4</ele><time>2026-04-30T18:28:52Z</time></trkpt><trkpt lat="40.46184118309529" lon="-3.1782680929246414"><ele>868.8</ele><time>2026-04-30T18:28:53Z</time></trkpt><trkpt lat="40.461805461075016" lon="-3.1783865115704146"><ele>869.2</ele><time>2026-04-30T18:28:54Z</time></trkpt><trkpt lat="40.4617678842123" lon="-3.1785060689595337"><ele>869.6</ele><time>2026-04-30T18:28:55Z</time></trkpt><trkpt lat="40.46172241956212" lon="-3.178623451578638"><ele>870.0</ele><time>2026-04-30T18:28:56Z</time></trkpt><trkpt lat="40.461675411212035" lon="-3.1787458841210943"><ele>870.0</ele><time>2026-04-30T18:28:57Z</time></trkpt><trkpt lat="40.46163155327433" lon="-3.1788734277898008"><ele>870.0</ele><time>2026-04-30T18:28:58Z</time></trkpt><trkpt lat="40.461587004055815" lon="-3.179003631827062"><ele>870.0</ele><time>2026-04-30T18:28:59Z</time></trkpt><trkpt lat="40.461539618127304" lon="-3.1791305362619315"><ele>870.0</ele><time>2026-04-30T18:29:00Z</time></trkpt><trkpt lat="40.46149935965442" lon="-3.179264177442619"><ele>870.0</ele><time>2026-04-30T18:29:01Z</time></trkpt><trkpt lat="40.461461905372744" lon="-3.1794016096512876"><ele>870.0</ele><time>2026-04-30T18:29:02Z</time></trkpt><trkpt lat="40.46142624464525" lon="-3.1795423798298574"><ele>870.0</ele><time>2026-04-30T18:29:03Z</time></trkpt><trkpt lat="40.46141374635381" lon="-3.1796921768698065"><ele>870.0</ele><time>2026-04-30T18:29:04Z</time></trkpt><trkpt lat="40.46139186178155" lon="-3.1798406236614767"><ele>870.0</ele><time>2026-04-30T18:29:05Z</time></trkpt><trkpt lat="40.46137385756355" lon="-3.17999099400051"><ele>870.0</ele><time>2026-04-30T18:29:06Z</time></trkpt><trkpt lat="40.461355441110946" lon="-3.180144896343515"><ele>870.0</ele><time>2026-04-30T18:29:07Z</time></trkpt><trkpt lat="40.46133662578096" lon="-3.1802956603034054"><ele>870.0</ele><time>2026-04-30T18:29:08Z</time></trkpt><trkpt lat="40.4613175183583" lon="-3.180447318073243"><ele>870.0</ele><time>2026-04-30T18:29:09Z</time></trkpt><trkpt lat="40.46129810296674" lon="-3.180601420273055"><ele>870.0</ele><time>2026-04-30T18:29:10Z</time></trkpt><trkpt lat="40.461280663516355" lon="-3.18073983914904"><ele>870.0</ele><time>2026-04-30T18:29:11Z</time></trkpt><trkpt lat="40.46126708896999" lon="-3.180847581848191"><ele>870.0</ele><time>2026-04-30T18:29:12Z</time></trkpt><trkpt lat="40.46124329503842" lon="-3.1810006482310436"><ele>870.0</ele><time>2026-04-30T18:29:14Z</time></trkpt><trkpt lat="40.46123738070334" lon="-3.181087180789109"><ele>870.0</ele><time>2026-04-30T18:29:48.999Z</time></trkpt><trkpt lat="40.46121679607545" lon="-3.181254993622752"><ele>870.0</ele><time>2026-04-30T18:29:50.999Z</time></trkpt><trkpt lat="40.461197664085944" lon="-3.1813469620285653"><ele>870.0</ele><time>2026-04-30T18:29:51.999Z</time></trkpt><trkpt lat="40.461199622460214" lon="-3.1814507270712125"><ele>870.0</ele><time>2026-04-30T18:29:52.999Z</time></trkpt><trkpt lat="40.461187288705226" lon="-3.181570752961447"><ele>870.0</ele><time>2026-04-30T18:29:53.999Z</time></trkpt><trkpt lat="40.46116438746211" lon="-3.1816875564897495"><ele>870.0</ele><time>2026-04-30T18:29:54.999Z</time></trkpt><trkpt lat="40.461141283717424" lon="-3.1818197134898702"><ele>870.0</ele><time>2026-04-30T18:29:55.999Z</time></trkpt><trkpt lat="40.461126257786475" lon="-3.18196516363019"><ele>870.2</ele><time>2026-04-30T18:29:56.999Z</time></trkpt><trkpt lat="40.46110694965164" lon="-3.1821116219818886"><ele>870.4</ele><time>2026-04-30T18:29:57.999Z</time></trkpt><trkpt lat="40.461090449062496" lon="-3.182248408257512"><ele>870.5999999999999</ele><time>2026-04-30T18:29:58.999Z</time></trkpt><trkpt lat="40.461082122487745" lon="-3.182358335654996"><ele>870.8</ele><time>2026-04-30T18:29:59.999Z</time></trkpt><trkpt lat="40.461070313020635" lon="-3.182457496816237"><ele>871.0</ele><time>2026-04-30T18:30:00.999Z</time></trkpt><trkpt lat="40.46104606189378" lon="-3.1825704436001616"><ele>870.5999999999999</ele><time>2026-04-30T18:30:01.999Z</time></trkpt><trkpt lat="40.461023617581425" lon="-3.182700040450194"><ele>870.1999999999999</ele><time>2026-04-30T18:30:02.999Z</time></trkpt><trkpt lat="40.461006478301556" lon="-3.182839003808845"><ele>869.8000000000001</ele><time>2026-04-30T18:30:03.999Z</time></trkpt><trkpt lat="40.46098476631605" lon="-3.1829775748131786"><ele>869.4000000000001</ele><time>2026-04-30T18:30:04.999Z</time></trkpt><trkpt lat="40.46096014900954" lon="-3.183123751893647"><ele>869.0</ele><time>2026-04-30T18:30:05.999Z</time></trkpt><trkpt lat="40.460944330318156" lon="-3.1832745011683232"><ele>869.0</ele><time>2026-04-30T18:30:06.999Z</time></trkpt><trkpt lat="40.46092403166169" lon="-3.1834279800510794"><ele>869.0</ele><time>2026-04-30T18:30:07.999Z</time></trkpt><trkpt lat="40.4609057429455" lon="-3.1835814966144524"><ele>869.0</ele><time>2026-04-30T18:30:08.999Z</time></trkpt><trkpt lat="40.46088642861544" lon="-3.1837387414975833"><ele>869.0</ele><time>2026-04-30T18:30:09.999Z</time></trkpt><trkpt lat="40.4608655010557" lon="-3.1838958882104804"><ele>869.75</ele><time>2026-04-30T18:30:10.999Z</time></trkpt><trkpt lat="40.46084482646167" lon="-3.1840538750989884"><ele>870.5</ele><time>2026-04-30T18:30:11.999Z</time></trkpt><trkpt lat="40.46082783098759" lon="-3.184213660477626"><ele>871.25</ele><time>2026-04-30T18:30:12.999Z</time></trkpt><trkpt lat="40.460804916788774" lon="-3.184381780843235"><ele>872.0</ele><time>2026-04-30T18:30:13.999Z</time></trkpt><trkpt lat="40.46078114156295" lon="-3.184550655339939"><ele>872.0</ele><time>2026-04-30T18:30:14.999Z</time></trkpt><trkpt lat="40.46076797167614" lon="-3.1847103632735747"><ele>872.0</ele><time>2026-04-30T18:30:15.999Z</time></trkpt><trkpt lat="40.46074618794486" lon="-3.184877682563567"><ele>872.0</ele><time>2026-04-30T18:30:16.999Z</time></trkpt><trkpt lat="40.46073673615737" lon="-3.1850274493242754"><ele>872.0</ele><time>2026-04-30T18:30:17.999Z</time></trkpt><trkpt lat="40.46069821284242" lon="-3.185234899255595"><ele>872.75</ele><time>2026-04-30T18:30:18.999Z</time></trkpt><trkpt lat="40.46067781445118" lon="-3.1854080185959983"><ele>873.5</ele><time>2026-04-30T18:30:19.999Z</time></trkpt><trkpt lat="40.4606557775212" lon="-3.185578801973759"><ele>874.25</ele><time>2026-04-30T18:30:20.999Z</time></trkpt><trkpt lat="40.460639115700225" lon="-3.185729452758336"><ele>875.0</ele><time>2026-04-30T18:30:21.999Z</time></trkpt><trkpt lat="40.46062600649737" lon="-3.185870168628588"><ele>875.0</ele><time>2026-04-30T18:30:22.999Z</time></trkpt><trkpt lat="40.46060439554612" lon="-3.1860263440199565"><ele>875.0</ele><time>2026-04-30T18:30:23.999Z</time></trkpt><trkpt lat="40.46058237281424" lon="-3.1861911451958282"><ele>875.0</ele><time>2026-04-30T18:30:24.999Z</time></trkpt><trkpt lat="40.460557729444005" lon="-3.1863579863333724"><ele>875.0</ele><time>2026-04-30T18:30:25.999Z</time></trkpt><trkpt lat="40.46054045663972" lon="-3.186512162917429"><ele>874.6</ele><time>2026-04-30T18:30:26.999Z</time></trkpt><trkpt lat="40.46052410210342" lon="-3.1866503817248977"><ele>874.2</ele><time>2026-04-30T18:30:27.999Z</time></trkpt><trkpt lat="40.46050693986403" lon="-3.1867841233110874"><ele>873.8</ele><time>2026-04-30T18:30:28.999Z</time></trkpt><trkpt lat="40.4604916994767" lon="-3.1869047074289623"><ele>873.4</ele><time>2026-04-30T18:30:29.999Z</time></trkpt><trkpt lat="40.46047343059485" lon="-3.187020551839759"><ele>873.0</ele><time>2026-04-30T18:30:30.999Z</time></trkpt><trkpt lat="40.46045774836549" lon="-3.187128421342134"><ele>872.6666666666666</ele><time>2026-04-30T18:30:31.999Z</time></trkpt><trkpt lat="40.46044546757897" lon="-3.187231675882977"><ele>872.3333333333333</ele><time>2026-04-30T18:30:32.999Z</time></trkpt><trkpt lat="40.46043604022422" lon="-3.187321182285294"><ele>872.0</ele><time>2026-04-30T18:30:33.999Z</time></trkpt><trkpt lat="40.46042500492813" lon="-3.1874317870954045"><ele>871.6666666666666</ele><time>2026-04-30T18:30:35.999Z</time></trkpt><trkpt lat="40.460413615673865" lon="-3.187515104213669"><ele>871.3333333333333</ele><time>2026-04-30T18:30:39.999Z</time></trkpt><trkpt lat="40.46039848937316" lon="-3.1876324847678337"><ele>871.0</ele><time>2026-04-30T18:31:04Z</time></trkpt><trkpt lat="40.46038747039846" lon="-3.187774958571806"><ele>870.6666666666666</ele><time>2026-04-30T18:31:06Z</time></trkpt><trkpt lat="40.460363051874644" lon="-3.1879413490846167"><ele>870.3333333333333</ele><time>2026-04-30T18:31:08Z</time></trkpt><trkpt lat="40.46035237315869" lon="-3.1880431855629214"><ele>870.0</ele><time>2026-04-30T18:31:09Z</time></trkpt><trkpt lat="40.46034163992925" lon="-3.1881305536443363"><ele>869.6666666666667</ele><time>2026-04-30T18:31:10Z</time></trkpt><trkpt lat="40.46032758718791" lon="-3.1882272927021207"><ele>869.3333333333334</ele><time>2026-04-30T18:31:11Z</time></trkpt><trkpt lat="40.46030932442823" lon="-3.188333718863018"><ele>869.0</ele><time>2026-04-30T18:31:12Z</time></trkpt><trkpt lat="40.46029290620193" lon="-3.1884294979490595"><ele>868.5000000000001</ele><time>2026-04-30T18:31:13Z</time></trkpt><trkpt lat="40.46027845867788" lon="-3.188539594732203"><ele>868.0</ele><time>2026-04-30T18:31:14Z</time></trkpt><trkpt lat="40.460265081816516" lon="-3.188647230714404"><ele>867.5</ele><time>2026-04-30T18:31:15Z</time></trkpt><trkpt lat="40.46025464397316" lon="-3.1887613158848573"><ele>867.0</ele><time>2026-04-30T18:31:16Z</time></trkpt><trkpt lat="40.460239575678465" lon="-3.188873860292417"><ele>866.5000000000001</ele><time>2026-04-30T18:31:17Z</time></trkpt><trkpt lat="40.4602272435022" lon="-3.188989438058903"><ele>866.0</ele><time>2026-04-30T18:31:18Z</time></trkpt><trkpt lat="40.46021828859582" lon="-3.189111638935636"><ele>865.5999999999999</ele><time>2026-04-30T18:31:19Z</time></trkpt><trkpt lat="40.46020804764872" lon="-3.189233727083898"><ele>865.1999999999999</ele><time>2026-04-30T18:31:20Z</time></trkpt><trkpt lat="40.460186521759695" lon="-3.1893662002288976"><ele>864.8000000000001</ele><time>2026-04-30T18:31:21Z</time></trkpt><trkpt lat="40.4601665466506" lon="-3.1895000985241624"><ele>864.4000000000001</ele><time>2026-04-30T18:31:22Z</time></trkpt><trkpt lat="40.460147840466135" lon="-3.1896365453341993"><ele>864.0</ele><time>2026-04-30T18:31:23Z</time></trkpt><trkpt lat="40.46013010870538" lon="-3.1897711505933892"><ele>863.8333333333334</ele><time>2026-04-30T18:31:24Z</time></trkpt><trkpt lat="40.46011221392372" lon="-3.1898919912469172"><ele>863.6666666666667</ele><time>2026-04-30T18:31:25Z</time></trkpt><trkpt lat="40.46009007031322" lon="-3.1900135910190044"><ele>863.5</ele><time>2026-04-30T18:31:26Z</time></trkpt><trkpt lat="40.46009139515169" lon="-3.1901389924262475"><ele>863.3333333333334</ele><time>2026-04-30T18:31:27Z</time></trkpt><trkpt lat="40.46006335903056" lon="-3.1902450967700484"><ele>863.1666666666667</ele><time>2026-04-30T18:31:28Z</time></trkpt><trkpt lat="40.460063697358436" lon="-3.190349737171766"><ele>863.0</ele><time>2026-04-30T18:31:29Z</time></trkpt><trkpt lat="40.46004492092912" lon="-3.190491271826443"><ele>863.0</ele><time>2026-04-30T18:31:31Z</time></trkpt><trkpt lat="40.460033341811254" lon="-3.190621143396265"><ele>863.0</ele><time>2026-04-30T18:31:33Z</time></trkpt><trkpt lat="40.46001134512403" lon="-3.1907607874475237"><ele>863.0</ele><time>2026-04-30T18:31:34.999Z</time></trkpt><trkpt lat="40.45998655813115" lon="-3.1908605719637033"><ele>863.0</ele><time>2026-04-30T18:31:35.999Z</time></trkpt><trkpt lat="40.45996728268025" lon="-3.1909756947824865"><ele>863.0</ele><time>2026-04-30T18:31:36.999Z</time></trkpt><trkpt lat="40.45994947237035" lon="-3.1911026251358936"><ele>863.5999999999999</ele><time>2026-04-30T18:31:37.999Z</time></trkpt><trkpt lat="40.459934095055566" lon="-3.191236112563292"><ele>864.1999999999999</ele><time>2026-04-30T18:31:38.999Z</time></trkpt><trkpt lat="40.45991750908368" lon="-3.1913812926361484"><ele>864.8</ele><time>2026-04-30T18:31:39.999Z</time></trkpt><trkpt lat="40.45989898552176" lon="-3.1915255924001165"><ele>865.4</ele><time>2026-04-30T18:31:40.999Z</time></trkpt><trkpt lat="40.45988087493261" lon="-3.1916758706568595"><ele>866.0</ele><time>2026-04-30T18:31:41.999Z</time></trkpt><trkpt lat="40.45986399697679" lon="-3.1918419243905394"><ele>866.5</ele><time>2026-04-30T18:31:42.999Z</time></trkpt><trkpt lat="40.459844582288525" lon="-3.192007480030238"><ele>867.0</ele><time>2026-04-30T18:31:43.999Z</time></trkpt><trkpt lat="40.45981975576517" lon="-3.192175124552133"><ele>867.5</ele><time>2026-04-30T18:31:44.999Z</time></trkpt><trkpt lat="40.459796294465136" lon="-3.192352294824134"><ele>868.0</ele><time>2026-04-30T18:31:45.999Z</time></trkpt><trkpt lat="40.45978475460385" lon="-3.1925114907437906"><ele>868.0</ele><time>2026-04-30T18:31:46.999Z</time></trkpt><trkpt lat="40.45978109917075" lon="-3.1926591232975965"><ele>868.0</ele><time>2026-04-30T18:31:47.999Z</time></trkpt><trkpt lat="40.459785170734555" lon="-3.1927944321653663"><ele>868.0</ele><time>2026-04-30T18:31:48.999Z</time></trkpt><trkpt lat="40.459785397831794" lon="-3.1929214521785414"><ele>868.0</ele><time>2026-04-30T18:31:49.999Z</time></trkpt><trkpt lat="40.459767610200224" lon="-3.1930505140442373"><ele>868.0</ele><time>2026-04-30T18:31:50.999Z</time></trkpt><trkpt lat="40.45977529534502" lon="-3.193177043100092"><ele>867.2</ele><time>2026-04-30T18:31:51.999Z</time></trkpt><trkpt lat="40.4597747081513" lon="-3.193303397035101"><ele>866.4</ele><time>2026-04-30T18:31:52.999Z</time></trkpt><trkpt lat="40.45976583101943" lon="-3.1934257634921868"><ele>865.6000000000001</ele><time>2026-04-30T18:31:53.999Z</time></trkpt><trkpt lat="40.4597766648662" lon="-3.1935623968848486"><ele>864.8000000000001</ele><time>2026-04-30T18:31:54.999Z</time></trkpt><trkpt lat="40.4597769053215" lon="-3.193703623709335"><ele>864.0</ele><time>2026-04-30T18:31:55.999Z</time></trkpt><trkpt lat="40.45977925207575" lon="-3.1938356352806223"><ele>864.0</ele><time>2026-04-30T18:31:56.999Z</time></trkpt><trkpt lat="40.459774816134086" lon="-3.1939467865643256"><ele>864.0</ele><time>2026-04-30T18:31:57.999Z</time></trkpt><trkpt lat="40.459774364621424" lon="-3.194050701051785"><ele>864.0</ele><time>2026-04-30T18:31:58.999Z</time></trkpt><trkpt lat="40.459792677620236" lon="-3.1941855639552434"><ele>864.0</ele><time>2026-04-30T18:32:00.999Z</time></trkpt><trkpt lat="40.45977779549911" lon="-3.194325601535237"><ele>864.0</ele><time>2026-04-30T18:32:02.999Z</time></trkpt><trkpt lat="40.45977811307535" lon="-3.194419617853333"><ele>864.0</ele><time>2026-04-30T18:32:03.999Z</time></trkpt><trkpt lat="40.45977632320157" lon="-3.1945128439800685"><ele>863.6</ele><time>2026-04-30T18:32:04.999Z</time></trkpt><trkpt lat="40.45977102358789" lon="-3.1946244341913306"><ele>863.2</ele><time>2026-04-30T18:32:05.999Z</time></trkpt><trkpt lat="40.45976803349843" lon="-3.194746282689105"><ele>862.8000000000001</ele><time>2026-04-30T18:32:06.999Z</time></trkpt><trkpt lat="40.45976552576438" lon="-3.1948783710248367"><ele>862.4000000000001</ele><time>2026-04-30T18:32:07.999Z</time></trkpt><trkpt lat="40.45976078570022" lon="-3.1950142705996716"><ele>862.0</ele><time>2026-04-30T18:32:08.999Z</time></trkpt><trkpt lat="40.45976033742248" lon="-3.195154543947552"><ele>862.0</ele><time>2026-04-30T18:32:09.999Z</time></trkpt><trkpt lat="40.459761837582896" lon="-3.1952971985901244"><ele>862.0</ele><time>2026-04-30T18:32:10.999Z</time></trkpt><trkpt lat="40.459764152089875" lon="-3.195441440495422"><ele>862.0</ele><time>2026-04-30T18:32:11.999Z</time></trkpt><trkpt lat="40.45976328621322" lon="-3.195582347732764"><ele>862.0</ele><time>2026-04-30T18:32:12.999Z</time></trkpt><trkpt lat="40.45977138582878" lon="-3.1957055271961248"><ele>862.0</ele><time>2026-04-30T18:32:13.999Z</time></trkpt><trkpt lat="40.45976557804288" lon="-3.1958150658469338"><ele>862.4999999999999</ele><time>2026-04-30T18:32:14.999Z</time></trkpt><trkpt lat="40.45976241562073" lon="-3.195922265018161"><ele>863.0</ele><time>2026-04-30T18:32:15.999Z</time></trkpt><trkpt lat="40.45976292023491" lon="-3.1960353890295217"><ele>863.5</ele><time>2026-04-30T18:32:16.999Z</time></trkpt><trkpt lat="40.45975747601034" lon="-3.1961551621730684"><ele>864.0</ele><time>2026-04-30T18:32:17.999Z</time></trkpt><trkpt lat="40.45975159736677" lon="-3.1962672582113134"><ele>864.4999999999999</ele><time>2026-04-30T18:32:18.999Z</time></trkpt><trkpt lat="40.459752915102" lon="-3.196390435396086"><ele>865.0</ele><time>2026-04-30T18:32:19.999Z</time></trkpt><trkpt lat="40.45975464262571" lon="-3.196521445720446"><ele>865.2</ele><time>2026-04-30T18:32:20.999Z</time></trkpt><trkpt lat="40.45975049794156" lon="-3.196660794610111"><ele>865.4</ele><time>2026-04-30T18:32:21.999Z</time></trkpt><trkpt lat="40.45974638202518" lon="-3.1968060955300928"><ele>865.5999999999999</ele><time>2026-04-30T18:32:22.999Z</time></trkpt><trkpt lat="40.45973654472516" lon="-3.196950284702833"><ele>865.8</ele><time>2026-04-30T18:32:23.999Z</time></trkpt><trkpt lat="40.459733820353584" lon="-3.1970815417979903"><ele>866.0</ele><time>2026-04-30T18:32:24.999Z</time></trkpt><trkpt lat="40.459740838032644" lon="-3.1972095351146357"><ele>866.4</ele><time>2026-04-30T18:32:25.999Z</time></trkpt><trkpt lat="40.45974207053869" lon="-3.1973379879640036"><ele>866.8</ele><time>2026-04-30T18:32:26.999Z</time></trkpt><trkpt lat="40.45973085421951" lon="-3.1974745693322437"><ele>867.1999999999999</ele><time>2026-04-30T18:32:27.999Z</time></trkpt><trkpt lat="40.459726254238795" lon="-3.1976194602664343"><ele>867.5999999999999</ele><time>2026-04-30T18:32:28.999Z</time></trkpt><trkpt lat="40.45972790873394" lon="-3.19777276913905"><ele>868.0</ele><time>2026-04-30T18:32:29.999Z</time></trkpt><trkpt lat="40.459728561758276" lon="-3.197926884482854"><ele>868.0</ele><time>2026-04-30T18:32:30.999Z</time></trkpt><trkpt lat="40.45973238120469" lon="-3.1980797841144035"><ele>868.0</ele><time>2026-04-30T18:32:31.999Z</time></trkpt><trkpt lat="40.459739451324225" lon="-3.198225164102047"><ele>868.0</ele><time>2026-04-30T18:32:32.999Z</time></trkpt><trkpt lat="40.45974345196167" lon="-3.1983697649374316"><ele>868.0</ele><time>2026-04-30T18:32:33.999Z</time></trkpt><trkpt lat="40.45974113465493" lon="-3.198516242549839"><ele>868.0</ele><time>2026-04-30T18:32:34.999Z</time></trkpt><trkpt lat="40.4597390334946" lon="-3.1986665094396707"><ele>869.0</ele><time>2026-04-30T18:32:35.999Z</time></trkpt><trkpt lat="40.45974116186548" lon="-3.1988198153217677"><ele>870.0</ele><time>2026-04-30T18:32:36.999Z</time></trkpt><trkpt lat="40.459743794630164" lon="-3.198974594968425"><ele>871.0</ele><time>2026-04-30T18:32:37.999Z</time></trkpt><trkpt lat="40.459738555360204" lon="-3.1991303266537185"><ele>872.0</ele><time>2026-04-30T18:32:38.999Z</time></trkpt><trkpt lat="40.45972998747491" lon="-3.199275828508683"><ele>872.2</ele><time>2026-04-30T18:32:39.999Z</time></trkpt><trkpt lat="40.4597138160972" lon="-3.199412814066088"><ele>872.4000000000001</ele><time>2026-04-30T18:32:40.999Z</time></trkpt><trkpt lat="40.45969267523295" lon="-3.199541447664618"><ele>872.5999999999999</ele><time>2026-04-30T18:32:41.999Z</time></trkpt><trkpt lat="40.45966727948091" lon="-3.1996686145232855"><ele>872.8</ele><time>2026-04-30T18:32:42.998Z</time></trkpt><trkpt lat="40.45964674477812" lon="-3.199792200956377"><ele>873.0</ele><time>2026-04-30T18:32:43.998Z</time></trkpt><trkpt lat="40.459646501707994" lon="-3.1999132672425232"><ele>873.0</ele><time>2026-04-30T18:32:44.998Z</time></trkpt><trkpt lat="40.45964368535088" lon="-3.2000364295537405"><ele>873.0</ele><time>2026-04-30T18:32:45.998Z</time></trkpt><trkpt lat="40.45963964306561" lon="-3.200161995002701"><ele>873.0</ele><time>2026-04-30T18:32:46.998Z</time></trkpt><trkpt lat="40.45964465348299" lon="-3.200277893498053"><ele>873.0</ele><time>2026-04-30T18:32:47.998Z</time></trkpt><trkpt lat="40.45963963107907" lon="-3.2004209089881193"><ele>873.0</ele><time>2026-04-30T18:32:48.998Z</time></trkpt><trkpt lat="40.45964468963359" lon="-3.200563125791504"><ele>872.5</ele><time>2026-04-30T18:32:49.998Z</time></trkpt><trkpt lat="40.459621862197366" lon="-3.200718652999328"><ele>872.0</ele><time>2026-04-30T18:32:50.998Z</time></trkpt><trkpt lat="40.45960317779304" lon="-3.2008744286120163"><ele>871.5</ele><time>2026-04-30T18:32:51.998Z</time></trkpt><trkpt lat="40.45957154327015" lon="-3.2010356846715324"><ele>871.0</ele><time>2026-04-30T18:32:52.998Z</time></trkpt><trkpt lat="40.45954476444148" lon="-3.20120401384049"><ele>870.75</ele><time>2026-04-30T18:32:53.998Z</time></trkpt><trkpt lat="40.45950832590648" lon="-3.2013619912041116"><ele>870.5</ele><time>2026-04-30T18:32:54.998Z</time></trkpt><trkpt lat="40.4594914811981" lon="-3.201528791462206"><ele>870.25</ele><time>2026-04-30T18:32:55.998Z</time></trkpt><trkpt lat="40.45945072984656" lon="-3.2016935842751892"><ele>870.0</ele><time>2026-04-30T18:32:56.998Z</time></trkpt><trkpt lat="40.459383849870456" lon="-3.2018393933800278"><ele>870.0</ele><time>2026-04-30T18:32:57.998Z</time></trkpt><trkpt lat="40.45932833777812" lon="-3.201990671676933"><ele>870.0</ele><time>2026-04-30T18:32:58.998Z</time></trkpt><trkpt lat="40.45927148804279" lon="-3.202138815313346"><ele>870.0</ele><time>2026-04-30T18:32:59.998Z</time></trkpt><trkpt lat="40.45921308700984" lon="-3.202284643414031"><ele>870.0</ele><time>2026-04-30T18:33:00.998Z</time></trkpt><trkpt lat="40.45917146207649" lon="-3.202443651872023"><ele>870.5</ele><time>2026-04-30T18:33:02Z</time></trkpt><trkpt lat="40.45911627178243" lon="-3.202600147553013"><ele>871.0</ele><time>2026-04-30T18:33:03Z</time></trkpt><trkpt lat="40.459066595343124" lon="-3.2027429041137907"><ele>871.5</ele><time>2026-04-30T18:33:04Z</time></trkpt><trkpt lat="40.459021605249745" lon="-3.202876223230932"><ele>872.0</ele><time>2026-04-30T18:33:05Z</time></trkpt><trkpt lat="40.45897078597982" lon="-3.2029796383430273"><ele>872.0</ele><time>2026-04-30T18:33:06Z</time></trkpt><trkpt lat="40.45894686898651" lon="-3.2030716648548703"><ele>872.0</ele><time>2026-04-30T18:33:07Z</time></trkpt><trkpt lat="40.45893163577035" lon="-3.2031906303026787"><ele>872.0</ele><time>2026-04-30T18:33:09Z</time></trkpt><trkpt lat="40.45887905773804" lon="-3.2033183202524795"><ele>872.0</ele><time>2026-04-30T18:33:11Z</time></trkpt><trkpt lat="40.458872740965916" lon="-3.2034311896552383"><ele>872.0</ele><time>2026-04-30T18:33:12Z</time></trkpt><trkpt lat="40.45884729554995" lon="-3.203554282538962"><ele>872.2</ele><time>2026-04-30T18:33:13Z</time></trkpt><trkpt lat="40.45881888376043" lon="-3.2036819639530867"><ele>872.4000000000001</ele><time>2026-04-30T18:33:14Z</time></trkpt><trkpt lat="40.4587869719218" lon="-3.2038236836545533"><ele>872.5999999999999</ele><time>2026-04-30T18:33:15Z</time></trkpt><trkpt lat="40.45875533609161" lon="-3.2039641778897723"><ele>872.8</ele><time>2026-04-30T18:33:16Z</time></trkpt><trkpt lat="40.458716620846545" lon="-3.2041141996453493"><ele>873.0</ele><time>2026-04-30T18:33:17Z</time></trkpt><trkpt lat="40.45867459230658" lon="-3.2042679250655417"><ele>872.5999999999999</ele><time>2026-04-30T18:33:18Z</time></trkpt><trkpt lat="40.45863776485981" lon="-3.2044099158842614"><ele>872.1999999999999</ele><time>2026-04-30T18:33:19Z</time></trkpt><trkpt lat="40.45861660519513" lon="-3.204526736269473"><ele>871.8</ele><time>2026-04-30T18:33:20Z</time></trkpt><trkpt lat="40.45860579016525" lon="-3.2046343648487405"><ele>871.4</ele><time>2026-04-30T18:33:22Z</time></trkpt><trkpt lat="40.458576683373614" lon="-3.2047636227058294"><ele>871.0</ele><time>2026-04-30T18:33:26Z</time></trkpt><trkpt lat="40.45855449803568" lon="-3.2049256893335123"><ele>871.0</ele><time>2026-04-30T18:33:28Z</time></trkpt><trkpt lat="40.45853209790112" lon="-3.205029981575138"><ele>870.9999999999999</ele><time>2026-04-30T18:33:29Z</time></trkpt><trkpt lat="40.45850944306097" lon="-3.2051436040707024"><ele>870.9999999999999</ele><time>2026-04-30T18:33:30Z</time></trkpt><trkpt lat="40.45848325146248" lon="-3.2052659980407388"><ele>871.0</ele><time>2026-04-30T18:33:31Z</time></trkpt><trkpt lat="40.458457707611394" lon="-3.2053945004868676"><ele>871.0</ele><time>2026-04-30T18:33:32Z</time></trkpt><trkpt lat="40.45843513807569" lon="-3.2055314483836366"><ele>871.75</ele><time>2026-04-30T18:33:33Z</time></trkpt><trkpt lat="40.45841297772681" lon="-3.2056744168003797"><ele>872.5</ele><time>2026-04-30T18:33:34Z</time></trkpt><trkpt lat="40.45839136323742" lon="-3.2058200327035404"><ele>873.25</ele><time>2026-04-30T18:33:35Z</time></trkpt><trkpt lat="40.4583721060248" lon="-3.205969408892461"><ele>874.0</ele><time>2026-04-30T18:33:36Z</time></trkpt><trkpt lat="40.4583575976769" lon="-3.2061238864085073"><ele>874.0</ele><time>2026-04-30T18:33:37Z</time></trkpt><trkpt lat="40.458337308239386" lon="-3.2062777480030764"><ele>874.0</ele><time>2026-04-30T18:33:38Z</time></trkpt><trkpt lat="40.45831422011903" lon="-3.2064419075059245"><ele>874.0</ele><time>2026-04-30T18:33:38.999Z</time></trkpt><trkpt lat="40.458295881801575" lon="-3.206607954357163"><ele>874.0</ele><time>2026-04-30T18:33:39.999Z</time></trkpt><trkpt lat="40.45827715683515" lon="-3.2067782031396184"><ele>873.75</ele><time>2026-04-30T18:33:40.999Z</time></trkpt><trkpt lat="40.458254450517124" lon="-3.206940743020107"><ele>873.5</ele><time>2026-04-30T18:33:41.999Z</time></trkpt><trkpt lat="40.458226619009714" lon="-3.2071146498685814"><ele>873.25</ele><time>2026-04-30T18:33:42.999Z</time></trkpt><trkpt lat="40.458201531883724" lon="-3.2072796907133836"><ele>873.0</ele><time>2026-04-30T18:33:43.999Z</time></trkpt><trkpt lat="40.45817551446659" lon="-3.2074450323867363"><ele>873.0</ele><time>2026-04-30T18:33:44.999Z</time></trkpt><trkpt lat="40.458151171764904" lon="-3.2076175431212564"><ele>873.0</ele><time>2026-04-30T18:33:45.999Z</time></trkpt><trkpt lat="40.458127587468645" lon="-3.20779843277655"><ele>873.0</ele><time>2026-04-30T18:33:46.999Z</time></trkpt><trkpt lat="40.45812090923935" lon="-3.2079551482652664"><ele>873.0</ele><time>2026-04-30T18:33:47.999Z</time></trkpt><trkpt lat="40.458138332625644" lon="-3.208089114705534"><ele>873.0</ele><time>2026-04-30T18:33:48.999Z</time></trkpt><trkpt lat="40.458171147832715" lon="-3.2081910157625946"><ele>873.0</ele><time>2026-04-30T18:33:49.999Z</time></trkpt><trkpt lat="40.45822251908703" lon="-3.208302052117204"><ele>873.0</ele><time>2026-04-30T18:33:50.999Z</time></trkpt><trkpt lat="40.45828603969383" lon="-3.2084314515019203"><ele>873.0</ele><time>2026-04-30T18:33:51.999Z</time></trkpt><trkpt lat="40.45836031164955" lon="-3.2085641611097553"><ele>873.0</ele><time>2026-04-30T18:33:52.999Z</time></trkpt><trkpt lat="40.45842283874281" lon="-3.208709959265882"><ele>873.0</ele><time>2026-04-30T18:33:53.999Z</time></trkpt><trkpt lat="40.458481651369745" lon="-3.2088510096293836"><ele>873.0</ele><time>2026-04-30T18:33:54.999Z</time></trkpt><trkpt lat="40.458547283778174" lon="-3.2089842496709364"><ele>873.0</ele><time>2026-04-30T18:33:55.999Z</time></trkpt><trkpt lat="40.45862962945582" lon="-3.2091130496414704"><ele>873.0</ele><time>2026-04-30T18:33:56.999Z</time></trkpt><trkpt lat="40.45869526855373" lon="-3.2092502964865703"><ele>873.25</ele><time>2026-04-30T18:33:57.999Z</time></trkpt><trkpt lat="40.45877250310556" lon="-3.2093963130919954"><ele>873.5</ele><time>2026-04-30T18:33:58.999Z</time></trkpt><trkpt lat="40.45885609113922" lon="-3.209537447627833"><ele>873.75</ele><time>2026-04-30T18:33:59.999Z</time></trkpt><trkpt lat="40.45892855159274" lon="-3.209680105471418"><ele>874.0</ele><time>2026-04-30T18:34:00.999Z</time></trkpt><trkpt lat="40.459008529432104" lon="-3.2098064336068832"><ele>874.5</ele><time>2026-04-30T18:34:01.999Z</time></trkpt><trkpt lat="40.45907883262255" lon="-3.2099531134381856"><ele>875.0</ele><time>2026-04-30T18:34:02.999Z</time></trkpt><trkpt lat="40.45914732221818" lon="-3.210101337472891"><ele>875.5</ele><time>2026-04-30T18:34:03.999Z</time></trkpt><trkpt lat="40.45920847501502" lon="-3.21025955413502"><ele>876.0</ele><time>2026-04-30T18:34:04.999Z</time></trkpt><trkpt lat="40.4592591893565" lon="-3.2104256919600935"><ele>876.0</ele><time>2026-04-30T18:34:05.999Z</time></trkpt><trkpt lat="40.45930784871006" lon="-3.210591994248273"><ele>876.0</ele><time>2026-04-30T18:34:06.999Z</time></trkpt><trkpt lat="40.459365090822445" lon="-3.2107498842231394"><ele>876.0</ele><time>2026-04-30T18:34:07.999Z</time></trkpt><trkpt lat="40.459418833753794" lon="-3.210899446974588"><ele>876.0</ele><time>2026-04-30T18:34:08.999Z</time></trkpt><trkpt lat="40.45947098653141" lon="-3.211042146532002"><ele>876.0</ele><time>2026-04-30T18:34:09.999Z</time></trkpt><trkpt lat="40.45952404653153" lon="-3.211191038111362"><ele>876.0</ele><time>2026-04-30T18:34:10.999Z</time></trkpt><trkpt lat="40.45959111340207" lon="-3.2113252915429666"><ele>876.0</ele><time>2026-04-30T18:34:11.999Z</time></trkpt><trkpt lat="40.45966519806226" lon="-3.2114577505788025"><ele>876.0</ele><time>2026-04-30T18:34:12.999Z</time></trkpt><trkpt lat="40.45973584997483" lon="-3.2115930180926355"><ele>875.25</ele><time>2026-04-30T18:34:13.999Z</time></trkpt><trkpt lat="40.45979799884069" lon="-3.211736508634214"><ele>874.5</ele><time>2026-04-30T18:34:14.999Z</time></trkpt><trkpt lat="40.45986108384901" lon="-3.2118821201970356"><ele>873.75</ele><time>2026-04-30T18:34:15.999Z</time></trkpt><trkpt lat="40.459918103493536" lon="-3.212029619967459"><ele>873.0</ele><time>2026-04-30T18:34:16.999Z</time></trkpt><trkpt lat="40.459973172132706" lon="-3.212187586936711"><ele>872.75</ele><time>2026-04-30T18:34:17.999Z</time></trkpt><trkpt lat="40.460026104157016" lon="-3.2123344759389747"><ele>872.5</ele><time>2026-04-30T18:34:18.999Z</time></trkpt><trkpt lat="40.46009483114581" lon="-3.2124728863417698"><ele>872.25</ele><time>2026-04-30T18:34:19.999Z</time></trkpt><trkpt lat="40.460160931987616" lon="-3.2126156065546865"><ele>872.0</ele><time>2026-04-30T18:34:20.999Z</time></trkpt><trkpt lat="40.460243914915864" lon="-3.2127426334010734"><ele>872.0</ele><time>2026-04-30T18:34:21.999Z</time></trkpt><trkpt lat="40.46032947507132" lon="-3.2128686000216886"><ele>872.0</ele><time>2026-04-30T18:34:22.999Z</time></trkpt><trkpt lat="40.46043030950452" lon="-3.2129696158604695"><ele>872.0</ele><time>2026-04-30T18:34:23.999Z</time></trkpt><trkpt lat="40.460530345293435" lon="-3.213075298700401"><ele>872.0</ele><time>2026-04-30T18:34:24.999Z</time></trkpt><trkpt lat="40.46062728004903" lon="-3.2131895268678976"><ele>872.25</ele><time>2026-04-30T18:34:25.999Z</time></trkpt><trkpt lat="40.460718425161865" lon="-3.2133130924377773"><ele>872.5</ele><time>2026-04-30T18:34:26.999Z</time></trkpt><trkpt lat="40.460809949142735" lon="-3.213443725667561"><ele>872.75</ele><time>2026-04-30T18:34:27.999Z</time></trkpt><trkpt lat="40.4608942995324" lon="-3.2135739129938417"><ele>873.0</ele><time>2026-04-30T18:34:28.999Z</time></trkpt><trkpt lat="40.46097081346533" lon="-3.2136869964049954"><ele>873.0</ele><time>2026-04-30T18:34:29.999Z</time></trkpt><trkpt lat="40.46102279428956" lon="-3.2137882865865213"><ele>873.0</ele><time>2026-04-30T18:34:30.999Z</time></trkpt><trkpt lat="40.46106944917026" lon="-3.2139210834621936"><ele>873.0</ele><time>2026-04-30T18:34:32.999Z</time></trkpt><trkpt lat="40.461089966860364" lon="-3.2140199771330273"><ele>873.0</ele><time>2026-04-30T18:34:33.999Z</time></trkpt><trkpt lat="40.46112273041283" lon="-3.2141474219203436"><ele>873.0</ele><time>2026-04-30T18:34:34.999Z</time></trkpt><trkpt lat="40.46114958412355" lon="-3.2142931996792194"><ele>873.25</ele><time>2026-04-30T18:34:35.999Z</time></trkpt><trkpt lat="40.461172087697" lon="-3.214447163524841"><ele>873.5</ele><time>2026-04-30T18:34:36.999Z</time></trkpt><trkpt lat="40.461195889879605" lon="-3.2146070586238427"><ele>873.75</ele><time>2026-04-30T18:34:37.999Z</time></trkpt><trkpt lat="40.46121365318024" lon="-3.2147783670301924"><ele>874.0</ele><time>2026-04-30T18:34:38.999Z</time></trkpt><trkpt lat="40.46122023045302" lon="-3.2149422970399453"><ele>874.0</ele><time>2026-04-30T18:34:39.999Z</time></trkpt><trkpt lat="40.46122453722302" lon="-3.2150864548625537"><ele>874.0</ele><time>2026-04-30T18:34:40.999Z</time></trkpt><trkpt lat="40.461224619468716" lon="-3.21523149033782"><ele>874.0</ele><time>2026-04-30T18:34:41.999Z</time></trkpt><trkpt lat="40.46122727360217" lon="-3.215393732091437"><ele>874.0</ele><time>2026-04-30T18:34:42.999Z</time></trkpt><trkpt lat="40.46123400680668" lon="-3.21556271080026"><ele>874.0</ele><time>2026-04-30T18:34:43.999Z</time></trkpt><trkpt lat="40.46123910566137" lon="-3.2157399156527426"><ele>874.0</ele><time>2026-04-30T18:34:44.999Z</time></trkpt><trkpt lat="40.461246535134656" lon="-3.2159212433318722"><ele>874.0</ele><time>2026-04-30T18:34:45.999Z</time></trkpt><trkpt lat="40.46126039598833" lon="-3.2160995009166586"><ele>874.0</ele><time>2026-04-30T18:34:46.998Z</time></trkpt><trkpt lat="40.46128307481353" lon="-3.2162536221985563"><ele>874.0</ele><time>2026-04-30T18:34:47.998Z</time></trkpt><trkpt lat="40.4613079750823" lon="-3.2163917758261547"><ele>874.0000000000001</ele><time>2026-04-30T18:34:48.998Z</time></trkpt><trkpt lat="40.46133690542993" lon="-3.2165165530057562"><ele>874.0000000000001</ele><time>2026-04-30T18:34:49.998Z</time></trkpt><trkpt lat="40.461385148785865" lon="-3.216630238389695"><ele>874.0</ele><time>2026-04-30T18:34:50.998Z</time></trkpt><trkpt lat="40.46140762970685" lon="-3.216753620835341"><ele>874.0</ele><time>2026-04-30T18:34:51.998Z</time></trkpt><trkpt lat="40.46145210589865" lon="-3.2168649135493674"><ele>874.4000000000001</ele><time>2026-04-30T18:34:52.998Z</time></trkpt><trkpt lat="40.46149623124611" lon="-3.2169872794495413"><ele>874.8000000000001</ele><time>2026-04-30T18:34:53.998Z</time></trkpt><trkpt lat="40.46154529465304" lon="-3.2171173451897013"><ele>875.1999999999999</ele><time>2026-04-30T18:34:54.998Z</time></trkpt><trkpt lat="40.46157238012942" lon="-3.2172637586846053"><ele>875.5999999999999</ele><time>2026-04-30T18:34:55.998Z</time></trkpt><trkpt lat="40.46159987663423" lon="-3.217415367906321"><ele>876.0</ele><time>2026-04-30T18:34:56.998Z</time></trkpt><trkpt lat="40.46162613752503" lon="-3.217571082026953"><ele>876.0</ele><time>2026-04-30T18:34:57.998Z</time></trkpt><trkpt lat="40.46165315930552" lon="-3.217728973327139"><ele>876.0</ele><time>2026-04-30T18:34:58.998Z</time></trkpt><trkpt lat="40.46167864748615" lon="-3.217889226419963"><ele>876.0</ele><time>2026-04-30T18:34:59.998Z</time></trkpt><trkpt lat="40.46170213842355" lon="-3.2180530133790666"><ele>876.0</ele><time>2026-04-30T18:35:00.998Z</time></trkpt><trkpt lat="40.461730044264336" lon="-3.218220984550574"><ele>876.25</ele><time>2026-04-30T18:35:01.998Z</time></trkpt><trkpt lat="40.461754742484764" lon="-3.218385517311306"><ele>876.5</ele><time>2026-04-30T18:35:02.998Z</time></trkpt><trkpt lat="40.46178313149425" lon="-3.2185539160385583"><ele>876.75</ele><time>2026-04-30T18:35:03.998Z</time></trkpt><trkpt lat="40.46183093056056" lon="-3.218716586456954"><ele>877.0</ele><time>2026-04-30T18:35:04.998Z</time></trkpt><trkpt lat="40.46184615513056" lon="-3.218891034790014"><ele>877.0</ele><time>2026-04-30T18:35:05.998Z</time></trkpt><trkpt lat="40.4618724880797" lon="-3.2190586097364466"><ele>877.0</ele><time>2026-04-30T18:35:06.998Z</time></trkpt><trkpt lat="40.46190308088152" lon="-3.2192343078532555"><ele>877.0</ele><time>2026-04-30T18:35:08Z</time></trkpt><trkpt lat="40.46194021828624" lon="-3.2194041232892388"><ele>877.0</ele><time>2026-04-30T18:35:09Z</time></trkpt><trkpt lat="40.461983747328304" lon="-3.219572053544775"><ele>877.0</ele><time>2026-04-30T18:35:10Z</time></trkpt><trkpt lat="40.462040697506225" lon="-3.2197378132303456"><ele>877.0</ele><time>2026-04-30T18:35:11Z</time></trkpt><trkpt lat="40.46210878631284" lon="-3.219886037036422"><ele>877.0</ele><time>2026-04-30T18:35:12Z</time></trkpt><trkpt lat="40.46215803800972" lon="-3.220003770897006"><ele>877.0</ele><time>2026-04-30T18:35:13Z</time></trkpt><trkpt lat="40.46219776231682" lon="-3.2200985032367067"><ele>876.6</ele><time>2026-04-30T18:35:14Z</time></trkpt><trkpt lat="40.46229551219155" lon="-3.2202023901967265"><ele>876.2</ele><time>2026-04-30T18:35:16Z</time></trkpt><trkpt lat="40.462343603711645" lon="-3.2202790783898902"><ele>875.8</ele><time>2026-04-30T18:35:17Z</time></trkpt><trkpt lat="40.46242324508355" lon="-3.220323288465841"><ele>875.4</ele><time>2026-04-30T18:35:18Z</time></trkpt><trkpt lat="40.46249985049768" lon="-3.2203869405563874"><ele>875.0</ele><time>2026-04-30T18:35:19Z</time></trkpt><trkpt lat="40.46257504121556" lon="-3.2204664910618517"><ele>875.0</ele><time>2026-04-30T18:35:20Z</time></trkpt><trkpt lat="40.46265353916906" lon="-3.2205512537371868"><ele>875.0</ele><time>2026-04-30T18:35:21Z</time></trkpt><trkpt lat="40.46273797804224" lon="-3.220635224820749"><ele>875.0</ele><time>2026-04-30T18:35:22Z</time></trkpt><trkpt lat="40.46282574301861" lon="-3.220732279910741"><ele>875.0</ele><time>2026-04-30T18:35:23Z</time></trkpt><trkpt lat="40.462911088373566" lon="-3.220840789364957"><ele>875.0</ele><time>2026-04-30T18:35:24Z</time></trkpt><trkpt lat="40.462989904710874" lon="-3.2209674979701926"><ele>875.5</ele><time>2026-04-30T18:35:25Z</time></trkpt><trkpt lat="40.46307429216725" lon="-3.2210998216557725"><ele>876.0</ele><time>2026-04-30T18:35:26Z</time></trkpt><trkpt lat="40.463143252578185" lon="-3.221241126599203"><ele>876.5</ele><time>2026-04-30T18:35:27Z</time></trkpt><trkpt lat="40.46322036717005" lon="-3.2213783574002024"><ele>877.0</ele><time>2026-04-30T18:35:28Z</time></trkpt><trkpt lat="40.46329007242755" lon="-3.221514948725476"><ele>877.0</ele><time>2026-04-30T18:35:29Z</time></trkpt><trkpt lat="40.46335633372817" lon="-3.2216254409167773"><ele>877.0</ele><time>2026-04-30T18:35:30Z</time></trkpt><trkpt lat="40.46342178032513" lon="-3.2217356899180842"><ele>877.0</ele><time>2026-04-30T18:35:31Z</time></trkpt><trkpt lat="40.46350581120884" lon="-3.2218530978849675"><ele>877.0</ele><time>2026-04-30T18:35:32Z</time></trkpt><trkpt lat="40.46359655512683" lon="-3.2219736838210706"><ele>877.0</ele><time>2026-04-30T18:35:33Z</time></trkpt><trkpt lat="40.46369846006513" lon="-3.2220833275482494"><ele>877.0</ele><time>2026-04-30T18:35:34Z</time></trkpt><trkpt lat="40.46379420246327" lon="-3.2221992786653972"><ele>877.0</ele><time>2026-04-30T18:35:35Z</time></trkpt><trkpt lat="40.463893353230404" lon="-3.2223248866006333"><ele>877.0</ele><time>2026-04-30T18:35:36Z</time></trkpt><trkpt lat="40.463978208278164" lon="-3.222459343220041"><ele>877.0</ele><time>2026-04-30T18:35:37Z</time></trkpt><trkpt lat="40.4640607116794" lon="-3.222603922749555"><ele>877.0</ele><time>2026-04-30T18:35:38Z</time></trkpt><trkpt lat="40.464132108562964" lon="-3.2227563605925775"><ele>877.0</ele><time>2026-04-30T18:35:39Z</time></trkpt><trkpt lat="40.464179640788764" lon="-3.2229154862305682"><ele>877.0</ele><time>2026-04-30T18:35:40Z</time></trkpt><trkpt lat="40.464223233077576" lon="-3.2230682205102017"><ele>877.2</ele><time>2026-04-30T18:35:41Z</time></trkpt><trkpt lat="40.46425807356362" lon="-3.223207975927161"><ele>877.4000000000001</ele><time>2026-04-30T18:35:42Z</time></trkpt><trkpt lat="40.46429539899675" lon="-3.2233387395164863"><ele>877.5999999999999</ele><time>2026-04-30T18:35:42.999Z</time></trkpt><trkpt lat="40.46433536927056" lon="-3.2234752468366734"><ele>877.8</ele><time>2026-04-30T18:35:43.999Z</time></trkpt><trkpt lat="40.46439546397844" lon="-3.223599464666632"><ele>878.0</ele><time>2026-04-30T18:35:44.999Z</time></trkpt><trkpt lat="40.464452839413" lon="-3.2237290100792784"><ele>878.0</ele><time>2026-04-30T18:35:45.999Z</time></trkpt><trkpt lat="40.46451505223497" lon="-3.223850075612353"><ele>878.0</ele><time>2026-04-30T18:35:46.999Z</time></trkpt><trkpt lat="40.46458896159313" lon="-3.2239735429656498"><ele>878.0</ele><time>2026-04-30T18:35:47.999Z</time></trkpt><trkpt lat="40.464670199858276" lon="-3.2240937914468306"><ele>878.0</ele><time>2026-04-30T18:35:48.999Z</time></trkpt><trkpt lat="40.46475875533482" lon="-3.2242092116863645"><ele>878.0</ele><time>2026-04-30T18:35:49.999Z</time></trkpt><trkpt lat="40.464853054025255" lon="-3.2243209446551435"><ele>878.0</ele><time>2026-04-30T18:35:50.999Z</time></trkpt><trkpt lat="40.46494589536513" lon="-3.224438182659416"><ele>878.0</ele><time>2026-04-30T18:35:51.999Z</time></trkpt><trkpt lat="40.46504840787078" lon="-3.2245379514869064"><ele>878.0</ele><time>2026-04-30T18:35:52.999Z</time></trkpt><trkpt lat="40.465141878420845" lon="-3.224625360568454"><ele>878.0</ele><time>2026-04-30T18:35:53.999Z</time></trkpt><trkpt lat="40.46523224701711" lon="-3.224710658982593"><ele>878.0</ele><time>2026-04-30T18:35:54.999Z</time></trkpt><trkpt lat="40.465322586267895" lon="-3.2247942288468523"><ele>878.0</ele><time>2026-04-30T18:35:55.999Z</time></trkpt><trkpt lat="40.465410771009125" lon="-3.224883055141128"><ele>878.0</ele><time>2026-04-30T18:35:56.999Z</time></trkpt><trkpt lat="40.46550067570309" lon="-3.224963472316501"><ele>878.0</ele><time>2026-04-30T18:35:57.999Z</time></trkpt><trkpt lat="40.465585121933735" lon="-3.225037919816601"><ele>879.0</ele><time>2026-04-30T18:35:58.999Z</time></trkpt><trkpt lat="40.465674390920576" lon="-3.225108787524701"><ele>880.0</ele><time>2026-04-30T18:35:59.999Z</time></trkpt><trkpt lat="40.46577007284785" lon="-3.225168456330591"><ele>881.0</ele><time>2026-04-30T18:36:00.999Z</time></trkpt><trkpt lat="40.46587093618553" lon="-3.225221506304723"><ele>882.0</ele><time>2026-04-30T18:36:01.999Z</time></trkpt><trkpt lat="40.465972308226924" lon="-3.2252731576541716"><ele>883.0</ele><time>2026-04-30T18:36:02.999Z</time></trkpt><trkpt lat="40.466078432246476" lon="-3.225324292922526"><ele>883.0</ele><time>2026-04-30T18:36:03.999Z</time></trkpt><trkpt lat="40.466179028810636" lon="-3.2253846479731503"><ele>883.0</ele><time>2026-04-30T18:36:04.999Z</time></trkpt><trkpt lat="40.466279900985455" lon="-3.2254477714551024"><ele>883.0</ele><time>2026-04-30T18:36:05.999Z</time></trkpt><trkpt lat="40.46637608295129" lon="-3.22550939737329"><ele>883.0</ele><time>2026-04-30T18:36:06.999Z</time></trkpt><trkpt lat="40.46647409559365" lon="-3.2255694807273887"><ele>883.0</ele><time>2026-04-30T18:36:07.999Z</time></trkpt><trkpt lat="40.46657515655928" lon="-3.2256343807300545"><ele>882.75</ele><time>2026-04-30T18:36:08.999Z</time></trkpt><trkpt lat="40.46668180051037" lon="-3.2257016130827685"><ele>882.5</ele><time>2026-04-30T18:36:09.999Z</time></trkpt><trkpt lat="40.46678956334299" lon="-3.2257752342455017"><ele>882.25</ele><time>2026-04-30T18:36:10.999Z</time></trkpt><trkpt lat="40.46689856328597" lon="-3.2258524407927345"><ele>882.0</ele><time>2026-04-30T18:36:11.999Z</time></trkpt><trkpt lat="40.467005165044455" lon="-3.2259211422039815"><ele>882.0</ele><time>2026-04-30T18:36:12.999Z</time></trkpt><trkpt lat="40.46710518875105" lon="-3.2259785606453524"><ele>882.0</ele><time>2026-04-30T18:36:13.999Z</time></trkpt><trkpt lat="40.467193474934405" lon="-3.226033088088615"><ele>882.0</ele><time>2026-04-30T18:36:14.999Z</time></trkpt><trkpt lat="40.46728277574974" lon="-3.226083555569603"><ele>882.0</ele><time>2026-04-30T18:36:15.999Z</time></trkpt><trkpt lat="40.46736487614126" lon="-3.226140820210914"><ele>882.0</ele><time>2026-04-30T18:36:16.999Z</time></trkpt><trkpt lat="40.46744491929274" lon="-3.2261980380708386"><ele>882.0</ele><time>2026-04-30T18:36:17.999Z</time></trkpt><trkpt lat="40.467524202452154" lon="-3.22625243839688"><ele>882.0</ele><time>2026-04-30T18:36:18.999Z</time></trkpt><trkpt lat="40.46760065327333" lon="-3.226306719197049"><ele>882.0</ele><time>2026-04-30T18:36:19.999Z</time></trkpt><trkpt lat="40.467675103714306" lon="-3.226363355472263"><ele>882.0</ele><time>2026-04-30T18:36:20.999Z</time></trkpt><trkpt lat="40.46774960223992" lon="-3.226413543200407"><ele>882.0</ele><time>2026-04-30T18:36:21.999Z</time></trkpt><trkpt lat="40.467823298472645" lon="-3.226465059715362"><ele>882.0</ele><time>2026-04-30T18:36:22.999Z</time></trkpt><trkpt lat="40.46789609760194" lon="-3.2265174994064036"><ele>881.6</ele><time>2026-04-30T18:36:23.999Z</time></trkpt><trkpt lat="40.46796412563063" lon="-3.226564262578735"><ele>881.2</ele><time>2026-04-30T18:36:24.999Z</time></trkpt><trkpt lat="40.46803632091202" lon="-3.226607108605028"><ele>880.8</ele><time>2026-04-30T18:36:25.999Z</time></trkpt><trkpt lat="40.46810828468199" lon="-3.2266705402989495"><ele>880.4</ele><time>2026-04-30T18:36:26.999Z</time></trkpt><trkpt lat="40.46820505279139" lon="-3.2267459049017595"><ele>880.0</ele><time>2026-04-30T18:36:27.999Z</time></trkpt><trkpt lat="40.468310058278234" lon="-3.2268296134106227"><ele>880.0</ele><time>2026-04-30T18:36:28.999Z</time></trkpt><trkpt lat="40.468425177588905" lon="-3.2269161581060795"><ele>880.0</ele><time>2026-04-30T18:36:29.999Z</time></trkpt><trkpt lat="40.46854830930796" lon="-3.2270048495453363"><ele>880.0</ele><time>2026-04-30T18:36:30.999Z</time></trkpt><trkpt lat="40.46867592037082" lon="-3.227098893257991"><ele>880.0</ele><time>2026-04-30T18:36:31.999Z</time></trkpt><trkpt lat="40.46880331011245" lon="-3.2272072507207112"><ele>880.25</ele><time>2026-04-30T18:36:32.999Z</time></trkpt><trkpt lat="40.468912858511864" lon="-3.227311021968159"><ele>880.5</ele><time>2026-04-30T18:36:33.999Z</time></trkpt><trkpt lat="40.46900964026537" lon="-3.2274064262221076"><ele>880.75</ele><time>2026-04-30T18:36:34.999Z</time></trkpt><trkpt lat="40.46909994124772" lon="-3.2275008486235337"><ele>881.0</ele><time>2026-04-30T18:36:35.999Z</time></trkpt><trkpt lat="40.46919498754719" lon="-3.2276057895507915"><ele>881.0</ele><time>2026-04-30T18:36:36.999Z</time></trkpt><trkpt lat="40.469282282580885" lon="-3.227726915324626"><ele>881.0</ele><time>2026-04-30T18:36:37.999Z</time></trkpt><trkpt lat="40.469385956920334" lon="-3.2278556219739154"><ele>881.0</ele><time>2026-04-30T18:36:38.999Z</time></trkpt><trkpt lat="40.46949232631253" lon="-3.227962792785955"><ele>881.0</ele><time>2026-04-30T18:36:39.999Z</time></trkpt><trkpt lat="40.469592399649734" lon="-3.2280529601126404"><ele>880.0</ele><time>2026-04-30T18:36:40.999Z</time></trkpt><trkpt lat="40.469684956750676" lon="-3.2281366009394414"><ele>879.0</ele><time>2026-04-30T18:36:41.999Z</time></trkpt><trkpt lat="40.46979064898426" lon="-3.228196753768942"><ele>878.0</ele><time>2026-04-30T18:36:42.999Z</time></trkpt><trkpt lat="40.46988161839255" lon="-3.2282888444672846"><ele>877.0</ele><time>2026-04-30T18:36:43.999Z</time></trkpt><trkpt lat="40.46998046922088" lon="-3.228353536712535"><ele>877.0</ele><time>2026-04-30T18:36:44.999Z</time></trkpt><trkpt lat="40.470065717921536" lon="-3.228437023300177"><ele>877.0</ele><time>2026-04-30T18:36:45.999Z</time></trkpt><trkpt lat="40.47014514228077" lon="-3.228521194952958"><ele>877.0</ele><time>2026-04-30T18:36:46.999Z</time></trkpt><trkpt lat="40.470226731909975" lon="-3.2286037865227497"><ele>877.0</ele><time>2026-04-30T18:36:47.999Z</time></trkpt><trkpt lat="40.470307755609696" lon="-3.2286933023538076"><ele>877.0</ele><time>2026-04-30T18:36:48.999Z</time></trkpt><trkpt lat="40.47038100592104" lon="-3.2287797466971115"><ele>876.9999999999999</ele><time>2026-04-30T18:36:49.999Z</time></trkpt><trkpt lat="40.4704402275058" lon="-3.228866690718169"><ele>877.0</ele><time>2026-04-30T18:36:50.998Z</time></trkpt><trkpt lat="40.470492968388804" lon="-3.2289502977151647"><ele>877.0</ele><time>2026-04-30T18:36:51.998Z</time></trkpt><trkpt lat="40.47055451399047" lon="-3.229016717609972"><ele>877.0</ele><time>2026-04-30T18:36:52.998Z</time></trkpt><trkpt lat="40.4705935125767" lon="-3.229100058894943"><ele>876.9999999999999</ele><time>2026-04-30T18:36:53.998Z</time></trkpt><trkpt lat="40.470664709438935" lon="-3.229188014056011"><ele>877.0</ele><time>2026-04-30T18:36:55.998Z</time></trkpt><trkpt lat="40.47072454217781" lon="-3.229259481198658"><ele>876.2</ele><time>2026-04-30T18:36:57.998Z</time></trkpt><trkpt lat="40.47080745441369" lon="-3.2293446462926276"><ele>875.4000000000001</ele><time>2026-04-30T18:36:59.998Z</time></trkpt><trkpt lat="40.470891211562844" lon="-3.2294339212412515"><ele>874.5999999999999</ele><time>2026-04-30T18:37:01.998Z</time></trkpt><trkpt lat="40.47096516786009" lon="-3.229505886578611"><ele>873.8</ele><time>2026-04-30T18:37:03.998Z</time></trkpt><trkpt lat="40.47102286068372" lon="-3.2295626483440696"><ele>873.0</ele><time>2026-04-30T18:37:06.998Z</time></trkpt><trkpt lat="40.471090704330116" lon="-3.2296089454672483"><ele>873.0</ele><time>2026-04-30T18:37:09.998Z</time></trkpt><trkpt lat="40.4711118114406" lon="-3.229442789024213"><ele>873.0</ele><time>2026-04-30T18:37:10.998Z</time></trkpt><trkpt lat="40.47110611086458" lon="-3.2293499588137604"><ele>873.0</ele><time>2026-04-30T18:37:11.998Z</time></trkpt><trkpt lat="40.471100761349895" lon="-3.2292487480736134"><ele>873.0</ele><time>2026-04-30T18:37:13Z</time></trkpt><trkpt lat="40.47109634852209" lon="-3.2291316589363404"><ele>873.0</ele><time>2026-04-30T18:37:14Z</time></trkpt><trkpt lat="40.47109254217022" lon="-3.229008378528882"><ele>872.8</ele><time>2026-04-30T18:37:15Z</time></trkpt><trkpt lat="40.47110859051337" lon="-3.2288827472459194"><ele>872.5999999999999</ele><time>2026-04-30T18:37:16Z</time></trkpt><trkpt lat="40.47110345553461" lon="-3.228754692522807"><ele>872.4000000000001</ele><time>2026-04-30T18:37:17Z</time></trkpt><trkpt lat="40.47113690714632" lon="-3.2286413050500795"><ele>872.2</ele><time>2026-04-30T18:37:18Z</time></trkpt><trkpt lat="40.47115494775414" lon="-3.2285232357053824"><ele>872.0</ele><time>2026-04-30T18:37:19Z</time></trkpt><trkpt lat="40.471201283643694" lon="-3.2284120253284594"><ele>872.0</ele><time>2026-04-30T18:37:20Z</time></trkpt><trkpt lat="40.47122911010402" lon="-3.2282840233928565"><ele>872.0</ele><time>2026-04-30T18:37:21Z</time></trkpt><trkpt lat="40.471265664903605" lon="-3.2281657289518764"><ele>872.0</ele><time>2026-04-30T18:37:22Z</time></trkpt><trkpt lat="40.47130171568736" lon="-3.2280433414371026"><ele>872.0</ele><time>2026-04-30T18:37:23Z</time></trkpt><trkpt lat="40.471337335489835" lon="-3.2279224172267793"><ele>872.0</ele><time>2026-04-30T18:37:24Z</time></trkpt><trkpt lat="40.47137309105607" lon="-3.227799460489724"><ele>872.2</ele><time>2026-04-30T18:37:25Z</time></trkpt><trkpt lat="40.471413694125275" lon="-3.2276743948986577"><ele>872.4000000000001</ele><time>2026-04-30T18:37:26Z</time></trkpt><trkpt lat="40.47144762022937" lon="-3.2275585174916097"><ele>872.5999999999999</ele><time>2026-04-30T18:37:27Z</time></trkpt><trkpt lat="40.4714862467144" lon="-3.2274309193606254"><ele>872.8</ele><time>2026-04-30T18:37:28Z</time></trkpt><trkpt lat="40.47151861760666" lon="-3.227307353505326"><ele>873.0</ele><time>2026-04-30T18:37:29Z</time></trkpt><trkpt lat="40.471560205038074" lon="-3.2271669522751036"><ele>873.0</ele><time>2026-04-30T18:37:30Z</time></trkpt><trkpt lat="40.471606326267064" lon="-3.227029951807979"><ele>873.0</ele><time>2026-04-30T18:37:31Z</time></trkpt><trkpt lat="40.471649022037184" lon="-3.2268894551630853"><ele>873.0</ele><time>2026-04-30T18:37:32Z</time></trkpt><trkpt lat="40.47168645850134" lon="-3.2267549353500486"><ele>873.0</ele><time>2026-04-30T18:37:33Z</time></trkpt><trkpt lat="40.47173711905554" lon="-3.226636579041962"><ele>873.0</ele><time>2026-04-30T18:37:34Z</time></trkpt><trkpt lat="40.4717753902848" lon="-3.2265267475971733"><ele>873.4</ele><time>2026-04-30T18:37:35Z</time></trkpt><trkpt lat="40.47183235748382" lon="-3.2264258035379676"><ele>873.8</ele><time>2026-04-30T18:37:36Z</time></trkpt><trkpt lat="40.471885042488346" lon="-3.22632040652797"><ele>874.2</ele><time>2026-04-30T18:37:37Z</time></trkpt><trkpt lat="40.47191559813091" lon="-3.2262055392235838"><ele>874.6</ele><time>2026-04-30T18:37:38Z</time></trkpt><trkpt lat="40.47196374448641" lon="-3.226088362280485"><ele>875.0</ele><time>2026-04-30T18:37:39Z</time></trkpt><trkpt lat="40.472008319782724" lon="-3.2259727870861634"><ele>875.0</ele><time>2026-04-30T18:37:40Z</time></trkpt><trkpt lat="40.47205024453267" lon="-3.225851705051374"><ele>875.0</ele><time>2026-04-30T18:37:41Z</time></trkpt><trkpt lat="40.472092802174195" lon="-3.2257284517666416"><ele>875.0</ele><time>2026-04-30T18:37:42Z</time></trkpt><trkpt lat="40.472134162140875" lon="-3.225603191845904"><ele>875.0</ele><time>2026-04-30T18:37:43Z</time></trkpt><trkpt lat="40.47217543578368" lon="-3.225472051100163"><ele>875.0</ele><time>2026-04-30T18:37:44Z</time></trkpt><trkpt lat="40.4722147939239" lon="-3.2253418764409068"><ele>875.2</ele><time>2026-04-30T18:37:45Z</time></trkpt><trkpt lat="40.472248668252156" lon="-3.225209764098085"><ele>875.4</ele><time>2026-04-30T18:37:46Z</time></trkpt><trkpt lat="40.47226908417256" lon="-3.225075399963463"><ele>875.5999999999999</ele><time>2026-04-30T18:37:46.999Z</time></trkpt><trkpt lat="40.472303834091434" lon="-3.224937629412532"><ele>875.8</ele><time>2026-04-30T18:37:47.999Z</time></trkpt><trkpt lat="40.47231441774913" lon="-3.2247913319218666"><ele>876.0</ele><time>2026-04-30T18:37:48.999Z</time></trkpt><trkpt lat="40.47233187964991" lon="-3.224648454451908"><ele>876.4</ele><time>2026-04-30T18:37:49.999Z</time></trkpt><trkpt lat="40.47234217979258" lon="-3.2245065594943956"><ele>876.8</ele><time>2026-04-30T18:37:50.999Z</time></trkpt><trkpt lat="40.472356057425486" lon="-3.224364305162085"><ele>877.1999999999999</ele><time>2026-04-30T18:37:51.999Z</time></trkpt><trkpt lat="40.472354815463426" lon="-3.224221776005871"><ele>877.5999999999999</ele><time>2026-04-30T18:37:52.999Z</time></trkpt><trkpt lat="40.47234989415903" lon="-3.2240783429354156"><ele>878.0</ele><time>2026-04-30T18:37:53.999Z</time></trkpt><trkpt lat="40.47232217171533" lon="-3.2239349651146982"><ele>878.0</ele><time>2026-04-30T18:37:54.999Z</time></trkpt><trkpt lat="40.472326212876844" lon="-3.2237861202785556"><ele>878.0</ele><time>2026-04-30T18:37:55.999Z</time></trkpt><trkpt lat="40.47231406752917" lon="-3.2236505262815314"><ele>878.0</ele><time>2026-04-30T18:37:56.999Z</time></trkpt><trkpt lat="40.47230600416881" lon="-3.2235184470214864"><ele>878.0</ele><time>2026-04-30T18:37:57.999Z</time></trkpt><trkpt lat="40.472331374895035" lon="-3.223376450093033"><ele>878.0</ele><time>2026-04-30T18:37:58.999Z</time></trkpt><trkpt lat="40.4723548878742" lon="-3.2232270812213377"><ele>879.25</ele><time>2026-04-30T18:37:59.999Z</time></trkpt><trkpt lat="40.47238626218815" lon="-3.2230834954577445"><ele>880.5</ele><time>2026-04-30T18:38:00.999Z</time></trkpt><trkpt lat="40.472436459335434" lon="-3.2229479668865433"><ele>881.75</ele><time>2026-04-30T18:38:01.999Z</time></trkpt><trkpt lat="40.472492540500525" lon="-3.2228176868175984"><ele>883.0</ele><time>2026-04-30T18:38:02.999Z</time></trkpt><trkpt lat="40.47253957747745" lon="-3.2226830032571745"><ele>883.0</ele><time>2026-04-30T18:38:03.999Z</time></trkpt><trkpt lat="40.472591113317335" lon="-3.2225486401748356"><ele>883.0</ele><time>2026-04-30T18:38:04.999Z</time></trkpt><trkpt lat="40.47264239610734" lon="-3.2224121917035577"><ele>883.0</ele><time>2026-04-30T18:38:05.999Z</time></trkpt><trkpt lat="40.47269258645255" lon="-3.222274104028762"><ele>883.0</ele><time>2026-04-30T18:38:06.999Z</time></trkpt><trkpt lat="40.47274198572242" lon="-3.222138847065807"><ele>883.25</ele><time>2026-04-30T18:38:07.999Z</time></trkpt><trkpt lat="40.47278940727186" lon="-3.2220027517104506"><ele>883.5</ele><time>2026-04-30T18:38:08.999Z</time></trkpt><trkpt lat="40.4728279571309" lon="-3.221858381880451"><ele>883.75</ele><time>2026-04-30T18:38:09.999Z</time></trkpt><trkpt lat="40.47287223446179" lon="-3.2217137153903517"><ele>884.0</ele><time>2026-04-30T18:38:10.999Z</time></trkpt><trkpt lat="40.47289253851027" lon="-3.2215589865731156"><ele>883.6</ele><time>2026-04-30T18:38:11.999Z</time></trkpt><trkpt lat="40.4729157537378" lon="-3.221413493702914"><ele>883.2</ele><time>2026-04-30T18:38:12.999Z</time></trkpt><trkpt lat="40.47293233782012" lon="-3.221269766236849"><ele>882.8000000000001</ele><time>2026-04-30T18:38:13.999Z</time></trkpt><trkpt lat="40.472956963894006" lon="-3.221133231444758"><ele>882.4000000000001</ele><time>2026-04-30T18:38:14.999Z</time></trkpt><trkpt lat="40.47294034219304" lon="-3.220999403748752"><ele>882.0</ele><time>2026-04-30T18:38:15.999Z</time></trkpt><trkpt lat="40.47290995137208" lon="-3.220876112382666"><ele>882.0</ele><time>2026-04-30T18:38:16.999Z</time></trkpt><trkpt lat="40.47286480434281" lon="-3.220764671858816"><ele>882.0</ele><time>2026-04-30T18:38:17.999Z</time></trkpt><trkpt lat="40.47298183501542" lon="-3.220587260583451"><ele>882.0</ele><time>2026-04-30T18:38:18.999Z</time></trkpt><trkpt lat="40.472994628151774" lon="-3.220446281737523"><ele>882.0</ele><time>2026-04-30T18:38:19.999Z</time></trkpt><trkpt lat="40.473012377709196" lon="-3.22032001875432"><ele>882.0</ele><time>2026-04-30T18:38:20.999Z</time></trkpt><trkpt lat="40.47302875096323" lon="-3.220195354556649"><ele>882.0</ele><time>2026-04-30T18:38:21.999Z</time></trkpt><trkpt lat="40.47305149805701" lon="-3.220061413647311"><ele>882.0</ele><time>2026-04-30T18:38:22.999Z</time></trkpt><trkpt lat="40.473061913303894" lon="-3.219923652590948"><ele>882.0</ele><time>2026-04-30T18:38:23.999Z</time></trkpt><trkpt lat="40.473081314720055" lon="-3.2197828557576345"><ele>882.0</ele><time>2026-04-30T18:38:24.999Z</time></trkpt><trkpt lat="40.47310461495737" lon="-3.2196511964439263"><ele>881.6</ele><time>2026-04-30T18:38:25.999Z</time></trkpt><trkpt lat="40.47312660191748" lon="-3.2195177015216587"><ele>881.2</ele><time>2026-04-30T18:38:26.999Z</time></trkpt><trkpt lat="40.47313903396408" lon="-3.219383517063977"><ele>880.8</ele><time>2026-04-30T18:38:27.999Z</time></trkpt><trkpt lat="40.473159793161805" lon="-3.2192519413900245"><ele>880.4</ele><time>2026-04-30T18:38:28.999Z</time></trkpt><trkpt lat="40.47317552048135" lon="-3.219121814024177"><ele>880.0</ele><time>2026-04-30T18:38:29.999Z</time></trkpt><trkpt lat="40.47319461245481" lon="-3.2189906840089253"><ele>880.0</ele><time>2026-04-30T18:38:30.999Z</time></trkpt><trkpt lat="40.47321718392477" lon="-3.218865417306717"><ele>880.0</ele><time>2026-04-30T18:38:31.999Z</time></trkpt><trkpt lat="40.473237447396336" lon="-3.218741188530506"><ele>880.0</ele><time>2026-04-30T18:38:32.999Z</time></trkpt><trkpt lat="40.473248728183776" lon="-3.2186124870973267"><ele>880.0</ele><time>2026-04-30T18:38:33.999Z</time></trkpt><trkpt lat="40.4732581127779" lon="-3.2184880010880796"><ele>880.0</ele><time>2026-04-30T18:38:34.999Z</time></trkpt><trkpt lat="40.47327431495143" lon="-3.218360676788442"><ele>880.0</ele><time>2026-04-30T18:38:35.999Z</time></trkpt><trkpt lat="40.473281008666966" lon="-3.218232460415926"><ele>880.0</ele><time>2026-04-30T18:38:36.999Z</time></trkpt><trkpt lat="40.47328363678696" lon="-3.218107628398977"><ele>880.0</ele><time>2026-04-30T18:38:37.999Z</time></trkpt><trkpt lat="40.47328108196783" lon="-3.21797975499244"><ele>880.0</ele><time>2026-04-30T18:38:38.999Z</time></trkpt><trkpt lat="40.47327773471606" lon="-3.217845646218534"><ele>880.0</ele><time>2026-04-30T18:38:39.999Z</time></trkpt><trkpt lat="40.473268252388955" lon="-3.2177075139195135"><ele>880.0</ele><time>2026-04-30T18:38:40.999Z</time></trkpt><trkpt lat="40.473259770490706" lon="-3.2175707801908353"><ele>880.0</ele><time>2026-04-30T18:38:41.999Z</time></trkpt><trkpt lat="40.47324508430497" lon="-3.2174307551426935"><ele>880.0</ele><time>2026-04-30T18:38:42.999Z</time></trkpt><trkpt lat="40.473218161635764" lon="-3.2172880973544276"><ele>880.0</ele><time>2026-04-30T18:38:43.999Z</time></trkpt><trkpt lat="40.47317988752019" lon="-3.2171479456821466"><ele>880.0</ele><time>2026-04-30T18:38:44.999Z</time></trkpt><trkpt lat="40.473143113880994" lon="-3.2170109670563196"><ele>880.25</ele><time>2026-04-30T18:38:45.999Z</time></trkpt><trkpt lat="40.473106143012124" lon="-3.2168633378456093"><ele>880.5</ele><time>2026-04-30T18:38:46.999Z</time></trkpt><trkpt lat="40.47307884066834" lon="-3.2167290517880502"><ele>880.75</ele><time>2026-04-30T18:38:47.999Z</time></trkpt><trkpt lat="40.47304158249521" lon="-3.216577015943701"><ele>881.0</ele><time>2026-04-30T18:38:48.999Z</time></trkpt><trkpt lat="40.47300816915753" lon="-3.216434809032698"><ele>880.5</ele><time>2026-04-30T18:38:49.999Z</time></trkpt><trkpt lat="40.472972524228254" lon="-3.216286238091738"><ele>880.0</ele><time>2026-04-30T18:38:50.999Z</time></trkpt><trkpt lat="40.472945279235745" lon="-3.2161455979141333"><ele>879.5</ele><time>2026-04-30T18:38:51.999Z</time></trkpt><trkpt lat="40.47289934262505" lon="-3.216013594928752"><ele>879.0</ele><time>2026-04-30T18:38:52.999Z</time></trkpt><trkpt lat="40.47285555261939" lon="-3.2158765353697096"><ele>879.0</ele><time>2026-04-30T18:38:53.999Z</time></trkpt><trkpt lat="40.47281818955232" lon="-3.215727072787998"><ele>879.0</ele><time>2026-04-30T18:38:54.998Z</time></trkpt><trkpt lat="40.472779387937656" lon="-3.215578278572929"><ele>879.0</ele><time>2026-04-30T18:38:55.998Z</time></trkpt><trkpt lat="40.47273686832772" lon="-3.2154264085787743"><ele>879.0</ele><time>2026-04-30T18:38:56.998Z</time></trkpt><trkpt lat="40.47270050234149" lon="-3.2152798353031447"><ele>879.25</ele><time>2026-04-30T18:38:57.998Z</time></trkpt><trkpt lat="40.472667565806645" lon="-3.21513746089401"><ele>879.5</ele><time>2026-04-30T18:38:58.998Z</time></trkpt><trkpt lat="40.47263329623195" lon="-3.2149926925529906"><ele>879.75</ele><time>2026-04-30T18:38:59.998Z</time></trkpt><trkpt lat="40.47260702463332" lon="-3.2148515786122727"><ele>880.0</ele><time>2026-04-30T18:39:00.998Z</time></trkpt><trkpt lat="40.472579614105804" lon="-3.2147071622897756"><ele>879.5</ele><time>2026-04-30T18:39:01.998Z</time></trkpt><trkpt lat="40.47255151331419" lon="-3.214561235444097"><ele>879.0</ele><time>2026-04-30T18:39:02.998Z</time></trkpt><trkpt lat="40.472534999982045" lon="-3.214414740136151"><ele>878.5</ele><time>2026-04-30T18:39:03.998Z</time></trkpt><trkpt lat="40.47252158240044" lon="-3.214269529905471"><ele>878.0</ele><time>2026-04-30T18:39:04.998Z</time></trkpt><trkpt lat="40.47249931638276" lon="-3.2141184293956777"><ele>877.75</ele><time>2026-04-30T18:39:05.998Z</time></trkpt><trkpt lat="40.47249062911763" lon="-3.213971510298879"><ele>877.5</ele><time>2026-04-30T18:39:06.998Z</time></trkpt><trkpt lat="40.47246270644376" lon="-3.2138112335624633"><ele>877.25</ele><time>2026-04-30T18:39:07.998Z</time></trkpt><trkpt lat="40.47244957484294" lon="-3.2136593443558845"><ele>877.0</ele><time>2026-04-30T18:39:08.998Z</time></trkpt><trkpt lat="40.47242354250642" lon="-3.213504005780756"><ele>877.0</ele><time>2026-04-30T18:39:09.998Z</time></trkpt><trkpt lat="40.47240322780223" lon="-3.213344672658301"><ele>877.0</ele><time>2026-04-30T18:39:10.998Z</time></trkpt><trkpt lat="40.47236991432093" lon="-3.213192672317561"><ele>877.0</ele><time>2026-04-30T18:39:11.998Z</time></trkpt><trkpt lat="40.47233945312843" lon="-3.213032538507027"><ele>877.0</ele><time>2026-04-30T18:39:12.998Z</time></trkpt><trkpt lat="40.472317524778155" lon="-3.2128703682598605"><ele>876.75</ele><time>2026-04-30T18:39:13.998Z</time></trkpt><trkpt lat="40.47228783495743" lon="-3.2127078009928685"><ele>876.5</ele><time>2026-04-30T18:39:14.998Z</time></trkpt><trkpt lat="40.472278398837545" lon="-3.212545970174332"><ele>876.25</ele><time>2026-04-30T18:39:15.998Z</time></trkpt><trkpt lat="40.47226053535411" lon="-3.212383063282166"><ele>876.0</ele><time>2026-04-30T18:39:16.998Z</time></trkpt><trkpt lat="40.472251933576956" lon="-3.212210076185173"><ele>876.0</ele><time>2026-04-30T18:39:17.998Z</time></trkpt><trkpt lat="40.47224040597489" lon="-3.212039197387319"><ele>876.0</ele><time>2026-04-30T18:39:19Z</time></trkpt><trkpt lat="40.472230947155246" lon="-3.21187570224263"><ele>876.0</ele><time>2026-04-30T18:39:20Z</time></trkpt><trkpt lat="40.47222083407154" lon="-3.2117229552079847"><ele>876.0</ele><time>2026-04-30T18:39:21Z</time></trkpt><trkpt lat="40.47219412211955" lon="-3.211585740503067"><ele>876.0</ele><time>2026-04-30T18:39:22Z</time></trkpt><trkpt lat="40.47215888807467" lon="-3.2114573296044577"><ele>875.9999999999999</ele><time>2026-04-30T18:39:23Z</time></trkpt><trkpt lat="40.47212817953138" lon="-3.211332613407273"><ele>875.9999999999999</ele><time>2026-04-30T18:39:24Z</time></trkpt><trkpt lat="40.47209779769956" lon="-3.2112031815393833"><ele>876.0</ele><time>2026-04-30T18:39:25Z</time></trkpt><trkpt lat="40.472060252556886" lon="-3.2110665025253904"><ele>876.0</ele><time>2026-04-30T18:39:26Z</time></trkpt><trkpt lat="40.47200951490805" lon="-3.2109345750587277"><ele>875.75</ele><time>2026-04-30T18:39:27Z</time></trkpt><trkpt lat="40.47195918720772" lon="-3.210802551549403"><ele>875.5</ele><time>2026-04-30T18:39:28Z</time></trkpt><trkpt lat="40.47190784909393" lon="-3.2106623123027314"><ele>875.25</ele><time>2026-04-30T18:39:29Z</time></trkpt><trkpt lat="40.47185553795407" lon="-3.2105241064177945"><ele>875.0</ele><time>2026-04-30T18:39:30Z</time></trkpt><trkpt lat="40.471804150553865" lon="-3.2103845077614164"><ele>874.5</ele><time>2026-04-30T18:39:31Z</time></trkpt><trkpt lat="40.471762173774714" lon="-3.210241527612368"><ele>874.0</ele><time>2026-04-30T18:39:32Z</time></trkpt><trkpt lat="40.471713763215334" lon="-3.210101646049333"><ele>873.5</ele><time>2026-04-30T18:39:33Z</time></trkpt><trkpt lat="40.471669476513604" lon="-3.2099586304830976"><ele>873.0</ele><time>2026-04-30T18:39:34Z</time></trkpt><trkpt lat="40.47163403619938" lon="-3.2098112861295403"><ele>872.5</ele><time>2026-04-30T18:39:35Z</time></trkpt><trkpt lat="40.47159096800635" lon="-3.209668941817546"><ele>872.0</ele><time>2026-04-30T18:39:36Z</time></trkpt><trkpt lat="40.47155350220062" lon="-3.2095279567025394"><ele>871.5</ele><time>2026-04-30T18:39:37Z</time></trkpt><trkpt lat="40.47151421031605" lon="-3.209390052926315"><ele>871.0</ele><time>2026-04-30T18:39:38Z</time></trkpt><trkpt lat="40.47147462513914" lon="-3.209246745034034"><ele>871.0</ele><time>2026-04-30T18:39:39Z</time></trkpt><trkpt lat="40.471434889385684" lon="-3.209101520737486"><ele>871.0</ele><time>2026-04-30T18:39:40Z</time></trkpt><trkpt lat="40.47138956563812" lon="-3.208962683288695"><ele>871.0</ele><time>2026-04-30T18:39:41Z</time></trkpt><trkpt lat="40.47135459040691" lon="-3.208821124941908"><ele>871.0</ele><time>2026-04-30T18:39:42Z</time></trkpt><trkpt lat="40.47131452244479" lon="-3.2086844043173897"><ele>871.0</ele><time>2026-04-30T18:39:43Z</time></trkpt><trkpt lat="40.471277989386465" lon="-3.2085422054462227"><ele>870.9999999999999</ele><time>2026-04-30T18:39:44Z</time></trkpt><trkpt lat="40.47124251096756" lon="-3.208406040563312"><ele>870.9999999999999</ele><time>2026-04-30T18:39:45Z</time></trkpt><trkpt lat="40.47119327790468" lon="-3.2082724695967904"><ele>871.0</ele><time>2026-04-30T18:39:46Z</time></trkpt><trkpt lat="40.47115564823983" lon="-3.2081441626333578"><ele>871.0</ele><time>2026-04-30T18:39:47Z</time></trkpt><trkpt lat="40.47111567555807" lon="-3.2080277000332007"><ele>871.1999999999999</ele><time>2026-04-30T18:39:48Z</time></trkpt><trkpt lat="40.47108166776384" lon="-3.2079098100331507"><ele>871.3999999999999</ele><time>2026-04-30T18:39:49Z</time></trkpt><trkpt lat="40.47103121208288" lon="-3.207798284279881"><ele>871.6</ele><time>2026-04-30T18:39:50Z</time></trkpt><trkpt lat="40.47099097008017" lon="-3.2076806226128176"><ele>871.8</ele><time>2026-04-30T18:39:50.999Z</time></trkpt><trkpt lat="40.47094477058144" lon="-3.20756449414946"><ele>872.0</ele><time>2026-04-30T18:39:51.999Z</time></trkpt><trkpt lat="40.47089962794707" lon="-3.207469286773617"><ele>872.0000000000001</ele><time>2026-04-30T18:39:52.999Z</time></trkpt><trkpt lat="40.47086454019878" lon="-3.207384990037666"><ele>872.0</ele><time>2026-04-30T18:39:53.999Z</time></trkpt><trkpt lat="40.47082865909488" lon="-3.2073035070017215"><ele>872.0</ele><time>2026-04-30T18:39:54.999Z</time></trkpt><trkpt lat="40.47079112063187" lon="-3.2072322305600602"><ele>872.0</ele><time>2026-04-30T18:39:55.999Z</time></trkpt><trkpt lat="40.47075053711433" lon="-3.2071473111782938"><ele>872.0000000000001</ele><time>2026-04-30T18:39:56.999Z</time></trkpt><trkpt lat="40.47071452395205" lon="-3.2070589719882503"><ele>872.0</ele><time>2026-04-30T18:39:57.999Z</time></trkpt><trkpt lat="40.4706716325489" lon="-3.2069550865382026"><ele>871.6</ele><time>2026-04-30T18:39:58.999Z</time></trkpt><trkpt lat="40.47062840077717" lon="-3.2068413811839958"><ele>871.2</ele><time>2026-04-30T18:39:59.999Z</time></trkpt><trkpt lat="40.47058512343677" lon="-3.2067222358380296"><ele>870.8</ele><time>2026-04-30T18:40:00.999Z</time></trkpt><trkpt lat="40.470552348153475" lon="-3.206597378491254"><ele>870.4</ele><time>2026-04-30T18:40:01.999Z</time></trkpt><trkpt lat="40.47052722057284" lon="-3.206460150358185"><ele>870.0</ele><time>2026-04-30T18:40:02.999Z</time></trkpt><trkpt lat="40.47050102827493" lon="-3.2063268725407887"><ele>870.0</ele><time>2026-04-30T18:40:03.999Z</time></trkpt><trkpt lat="40.47046629344199" lon="-3.2061886280584853"><ele>870.0</ele><time>2026-04-30T18:40:04.999Z</time></trkpt><trkpt lat="40.47042526090531" lon="-3.206044768459506"><ele>870.0</ele><time>2026-04-30T18:40:05.999Z</time></trkpt><trkpt lat="40.47038901873363" lon="-3.2059061673071905"><ele>870.0</ele><time>2026-04-30T18:40:06.999Z</time></trkpt><trkpt lat="40.47035262185245" lon="-3.205775418072559"><ele>870.0</ele><time>2026-04-30T18:40:07.999Z</time></trkpt><trkpt lat="40.470318826214566" lon="-3.2056459848159564"><ele>870.0</ele><time>2026-04-30T18:40:08.999Z</time></trkpt><trkpt lat="40.470292981550934" lon="-3.205533542418691"><ele>870.0</ele><time>2026-04-30T18:40:09.999Z</time></trkpt><trkpt lat="40.47026662046762" lon="-3.205413193512313"><ele>870.0</ele><time>2026-04-30T18:40:10.999Z</time></trkpt><trkpt lat="40.470243789486425" lon="-3.205293329628646"><ele>870.0</ele><time>2026-04-30T18:40:11.999Z</time></trkpt><trkpt lat="40.470234072166164" lon="-3.2051778972873772"><ele>870.0</ele><time>2026-04-30T18:40:12.999Z</time></trkpt><trkpt lat="40.47020721395886" lon="-3.2050633628790566"><ele>870.0</ele><time>2026-04-30T18:40:13.999Z</time></trkpt><trkpt lat="40.4702078777843" lon="-3.2049521938751417"><ele>870.0</ele><time>2026-04-30T18:40:14.999Z</time></trkpt><trkpt lat="40.47019752489582" lon="-3.2048641736195336"><ele>870.0</ele><time>2026-04-30T18:40:15.999Z</time></trkpt><trkpt lat="40.470192088872246" lon="-3.2047456426870937"><ele>870.0</ele><time>2026-04-30T18:40:18.999Z</time></trkpt><trkpt lat="40.47017442045926" lon="-3.20466426673335"><ele>870.0</ele><time>2026-04-30T18:40:20.999Z</time></trkpt><trkpt lat="40.47014734821029" lon="-3.2045524045802662"><ele>870.0</ele><time>2026-04-30T18:40:22.999Z</time></trkpt><trkpt lat="40.4701155554818" lon="-3.204412086822568"><ele>870.0</ele><time>2026-04-30T18:40:24.999Z</time></trkpt><trkpt lat="40.47008425781057" lon="-3.2042654043020358"><ele>870.0</ele><time>2026-04-30T18:40:26.999Z</time></trkpt><trkpt lat="40.47004353470249" lon="-3.204131106347156"><ele>870.0</ele><time>2026-04-30T18:40:28.999Z</time></trkpt><trkpt lat="40.469996012373635" lon="-3.203997886985336"><ele>870.0</ele><time>2026-04-30T18:40:30.999Z</time></trkpt><trkpt lat="40.46993894780773" lon="-3.203878454777441"><ele>870.0</ele><time>2026-04-30T18:40:32.999Z</time></trkpt><trkpt lat="40.46989132047266" lon="-3.2037618067047084"><ele>870.0</ele><time>2026-04-30T18:40:34.999Z</time></trkpt><trkpt lat="40.46984903707966" lon="-3.203640167576666"><ele>870.0</ele><time>2026-04-30T18:40:36.999Z</time></trkpt><trkpt lat="40.46979944832113" lon="-3.2035044729187034"><ele>870.0</ele><time>2026-04-30T18:40:38.999Z</time></trkpt><trkpt lat="40.469776566675286" lon="-3.203426432722249"><ele>870.0</ele><time>2026-04-30T18:40:39.999Z</time></trkpt><trkpt lat="40.4697451642779" lon="-3.2032853605362153"><ele>870.0</ele><time>2026-04-30T18:40:41.999Z</time></trkpt><trkpt lat="40.469704291672244" lon="-3.2031434912326935"><ele>870.0</ele><time>2026-04-30T18:40:43.999Z</time></trkpt><trkpt lat="40.469656761926515" lon="-3.203001093543467"><ele>870.0</ele><time>2026-04-30T18:40:45.999Z</time></trkpt><trkpt lat="40.46963291447936" lon="-3.202920334747338"><ele>870.0</ele><time>2026-04-30T18:40:46.999Z</time></trkpt><trkpt lat="40.46957992595558" lon="-3.202768937808455"><ele>870.0</ele><time>2026-04-30T18:40:48.999Z</time></trkpt><trkpt lat="40.46954655593669" lon="-3.2026879428922"><ele>870.0</ele><time>2026-04-30T18:40:49.999Z</time></trkpt><trkpt lat="40.46951841118632" lon="-3.202594436555695"><ele>870.0</ele><time>2026-04-30T18:40:50.999Z</time></trkpt><trkpt lat="40.46949093098455" lon="-3.2024955337125633"><ele>870.0</ele><time>2026-04-30T18:40:51.999Z</time></trkpt><trkpt lat="40.46945937241924" lon="-3.2023960829339666"><ele>870.0</ele><time>2026-04-30T18:40:52.999Z</time></trkpt><trkpt lat="40.46942954569976" lon="-3.2022952614516234"><ele>870.0</ele><time>2026-04-30T18:40:53.999Z</time></trkpt><trkpt lat="40.469399120869134" lon="-3.2021919197769186"><ele>870.0</ele><time>2026-04-30T18:40:54.999Z</time></trkpt><trkpt lat="40.469372752314655" lon="-3.202087163656934"><ele>870.0</ele><time>2026-04-30T18:40:55.999Z</time></trkpt><trkpt lat="40.46933735551027" lon="-3.2019810665182877"><ele>869.3333333333334</ele><time>2026-04-30T18:40:56.999Z</time></trkpt><trkpt lat="40.469309922365944" lon="-3.2018753630225647"><ele>868.6666666666667</ele><time>2026-04-30T18:40:57.999Z</time></trkpt><trkpt lat="40.46928602541405" lon="-3.201760658605697"><ele>868.0</ele><time>2026-04-30T18:40:58.998Z</time></trkpt><trkpt lat="40.469263268988534" lon="-3.2016476054121776"><ele>867.3333333333334</ele><time>2026-04-30T18:40:59.998Z</time></trkpt><trkpt lat="40.469249007683054" lon="-3.2015266855158253"><ele>866.6666666666667</ele><time>2026-04-30T18:41:00.998Z</time></trkpt><trkpt lat="40.46921953560024" lon="-3.201414091242595"><ele>866.0</ele><time>2026-04-30T18:41:01.998Z</time></trkpt><trkpt lat="40.46920439579273" lon="-3.201292824067724"><ele>865.8333333333334</ele><time>2026-04-30T18:41:02.998Z</time></trkpt><trkpt lat="40.46918259762998" lon="-3.2011872254395968"><ele>865.6666666666667</ele><time>2026-04-30T18:41:03.998Z</time></trkpt><trkpt lat="40.469156722324776" lon="-3.2010593058969943"><ele>865.5</ele><time>2026-04-30T18:41:04.998Z</time></trkpt><trkpt lat="40.46913251202877" lon="-3.2009537292929138"><ele>865.3333333333333</ele><time>2026-04-30T18:41:05.998Z</time></trkpt><trkpt lat="40.46912047154359" lon="-3.200854881977267"><ele>865.1666666666666</ele><time>2026-04-30T18:41:06.998Z</time></trkpt><trkpt lat="40.469086486492024" lon="-3.2007648546957794"><ele>865.0</ele><time>2026-04-30T18:41:07.998Z</time></trkpt><trkpt lat="40.46908218230705" lon="-3.2006707422082257"><ele>865.9999999999999</ele><time>2026-04-30T18:41:08.998Z</time></trkpt><trkpt lat="40.469072085334986" lon="-3.2005825986794134"><ele>867.0</ele><time>2026-04-30T18:41:09.998Z</time></trkpt><trkpt lat="40.46906497287467" lon="-3.200489326016801"><ele>868.0</ele><time>2026-04-30T18:41:10.998Z</time></trkpt><trkpt lat="40.46905383933126" lon="-3.20039571133855"><ele>869.0</ele><time>2026-04-30T18:41:11.998Z</time></trkpt><trkpt lat="40.46904166820181" lon="-3.200297877051954"><ele>869.9999999999999</ele><time>2026-04-30T18:41:12.998Z</time></trkpt><trkpt lat="40.46903046589626" lon="-3.200191502067683"><ele>871.0</ele><time>2026-04-30T18:41:13.998Z</time></trkpt><trkpt lat="40.4690159930632" lon="-3.2000852423696546"><ele>870.9999999999999</ele><time>2026-04-30T18:41:14.998Z</time></trkpt><trkpt lat="40.46900238571741" lon="-3.1999825050990753"><ele>871.0</ele><time>2026-04-30T18:41:15.998Z</time></trkpt><trkpt lat="40.4689941353822" lon="-3.1998764875404406"><ele>871.0</ele><time>2026-04-30T18:41:16.998Z</time></trkpt><trkpt lat="40.46898034109627" lon="-3.199768857320535"><ele>871.0</ele><time>2026-04-30T18:41:17.998Z</time></trkpt><trkpt lat="40.46896168504399" lon="-3.199665039703562"><ele>870.9999999999999</ele><time>2026-04-30T18:41:18.998Z</time></trkpt><trkpt lat="40.46894934154953" lon="-3.1995573660739876"><ele>871.0</ele><time>2026-04-30T18:41:19.998Z</time></trkpt><trkpt lat="40.468935040723565" lon="-3.1994503448509244"><ele>870.6666666666666</ele><time>2026-04-30T18:41:20.998Z</time></trkpt><trkpt lat="40.46891693769746" lon="-3.1993387111979428"><ele>870.3333333333333</ele><time>2026-04-30T18:41:21.998Z</time></trkpt><trkpt lat="40.468904400696076" lon="-3.1992215004301143"><ele>870.0</ele><time>2026-04-30T18:41:22.998Z</time></trkpt><trkpt lat="40.468893530279544" lon="-3.1990963127844143"><ele>869.6666666666667</ele><time>2026-04-30T18:41:23.998Z</time></trkpt><trkpt lat="40.46888312321561" lon="-3.1989775509210996"><ele>869.3333333333334</ele><time>2026-04-30T18:41:25Z</time></trkpt><trkpt lat="40.46888402820462" lon="-3.1988656308818397"><ele>869.0</ele><time>2026-04-30T18:41:26Z</time></trkpt><trkpt lat="40.468888535065076" lon="-3.1987442008876505"><ele>868.6666666666667</ele><time>2026-04-30T18:41:27Z</time></trkpt><trkpt lat="40.468890384688024" lon="-3.1986332951023204"><ele>868.3333333333334</ele><time>2026-04-30T18:41:28Z</time></trkpt><trkpt lat="40.468897269161566" lon="-3.19852815554358"><ele>868.0</ele><time>2026-04-30T18:41:29Z</time></trkpt><trkpt lat="40.468907706211766" lon="-3.1984130766104486"><ele>867.6666666666667</ele><time>2026-04-30T18:41:30Z</time></trkpt><trkpt lat="40.46893063762485" lon="-3.1982901336034906"><ele>867.3333333333334</ele><time>2026-04-30T18:41:31Z</time></trkpt><trkpt lat="40.46894463180576" lon="-3.198160893909731"><ele>867.0</ele><time>2026-04-30T18:41:32Z</time></trkpt><trkpt lat="40.46896199340239" lon="-3.1980374348902005"><ele>866.6</ele><time>2026-04-30T18:41:33Z</time></trkpt><trkpt lat="40.46897228192936" lon="-3.1979033820695957"><ele>866.2</ele><time>2026-04-30T18:41:34Z</time></trkpt><trkpt lat="40.46898175777898" lon="-3.1977694786358435"><ele>865.8</ele><time>2026-04-30T18:41:35Z</time></trkpt><trkpt lat="40.46899599901634" lon="-3.1976419144642465"><ele>865.4</ele><time>2026-04-30T18:41:36Z</time></trkpt><trkpt lat="40.4689975295432" lon="-3.1975167222129057"><ele>865.0</ele><time>2026-04-30T18:41:37Z</time></trkpt><trkpt lat="40.46901615311038" lon="-3.1974051006413076"><ele>865.2</ele><time>2026-04-30T18:41:38Z</time></trkpt><trkpt lat="40.46903339013415" lon="-3.1972887069246867"><ele>865.4</ele><time>2026-04-30T18:41:39Z</time></trkpt><trkpt lat="40.46904994659135" lon="-3.1971684755107295"><ele>865.5999999999999</ele><time>2026-04-30T18:41:40Z</time></trkpt><trkpt lat="40.46907294490938" lon="-3.1970455875559045"><ele>865.8</ele><time>2026-04-30T18:41:41Z</time></trkpt><trkpt lat="40.469084062989616" lon="-3.196914299108042"><ele>866.0</ele><time>2026-04-30T18:41:42Z</time></trkpt><trkpt lat="40.46909807069185" lon="-3.1967920045453555"><ele>866.0</ele><time>2026-04-30T18:41:43Z</time></trkpt><trkpt lat="40.46910675915312" lon="-3.1966716717392396"><ele>865.9999999999999</ele><time>2026-04-30T18:41:44Z</time></trkpt><trkpt lat="40.46912571850316" lon="-3.1965503413887375"><ele>865.9999999999999</ele><time>2026-04-30T18:41:45Z</time></trkpt><trkpt lat="40.469144046679915" lon="-3.1964237627481262"><ele>866.0</ele><time>2026-04-30T18:41:46Z</time></trkpt><trkpt lat="40.46916082424542" lon="-3.196299358754241"><ele>866.0</ele><time>2026-04-30T18:41:47Z</time></trkpt><trkpt lat="40.469173039955265" lon="-3.196179196071114"><ele>865.8333333333334</ele><time>2026-04-30T18:41:48Z</time></trkpt><trkpt lat="40.46918635341087" lon="-3.196079167734458"><ele>865.6666666666667</ele><time>2026-04-30T18:41:49Z</time></trkpt><trkpt lat="40.46919685119705" lon="-3.1959914819293296"><ele>865.5</ele><time>2026-04-30T18:41:50Z</time></trkpt><trkpt lat="40.46921966922169" lon="-3.1958409627064155"><ele>865.3333333333333</ele><time>2026-04-30T18:41:52Z</time></trkpt><trkpt lat="40.469228261559294" lon="-3.195689200752322"><ele>865.1666666666666</ele><time>2026-04-30T18:41:53.999Z</time></trkpt><trkpt lat="40.469235847907235" lon="-3.195601618096999"><ele>865.0</ele><time>2026-04-30T18:41:54.999Z</time></trkpt><trkpt lat="40.46924389940781" lon="-3.1955073856049134"><ele>865.7142857142858</ele><time>2026-04-30T18:41:55.999Z</time></trkpt><trkpt lat="40.46924424414346" lon="-3.195416323576052"><ele>866.4285714285714</ele><time>2026-04-30T18:41:56.999Z</time></trkpt><trkpt lat="40.46924714660558" lon="-3.195322990824576"><ele>867.1428571428571</ele><time>2026-04-30T18:41:57.999Z</time></trkpt><trkpt lat="40.469247433495305" lon="-3.195232012782928"><ele>867.8571428571429</ele><time>2026-04-30T18:41:58.999Z</time></trkpt><trkpt lat="40.46924566055506" lon="-3.195140489214752"><ele>868.5714285714286</ele><time>2026-04-30T18:41:59.999Z</time></trkpt><trkpt lat="40.4692318583935" lon="-3.1950422887971337"><ele>869.2857142857143</ele><time>2026-04-30T18:42:00.999Z</time></trkpt><trkpt lat="40.46922553367019" lon="-3.194956705805628"><ele>870.0</ele><time>2026-04-30T18:42:01.999Z</time></trkpt><trkpt lat="40.46921776564296" lon="-3.1948615009935937"><ele>869.8571428571429</ele><time>2026-04-30T18:42:02.999Z</time></trkpt><trkpt lat="40.46921291054746" lon="-3.19476716480665"><ele>869.7142857142858</ele><time>2026-04-30T18:42:03.999Z</time></trkpt><trkpt lat="40.46920236031098" lon="-3.194660192568654"><ele>869.5714285714287</ele><time>2026-04-30T18:42:04.999Z</time></trkpt><trkpt lat="40.46919688002738" lon="-3.1945717240464417"><ele>869.4285714285714</ele><time>2026-04-30T18:42:05.999Z</time></trkpt><trkpt lat="40.469186320381795" lon="-3.194475226635828"><ele>869.2857142857142</ele><time>2026-04-30T18:42:06.999Z</time></trkpt><trkpt lat="40.469171689493024" lon="-3.1943838626653385"><ele>869.1428571428572</ele><time>2026-04-30T18:42:07.999Z</time></trkpt><trkpt lat="40.46916169681456" lon="-3.1942811190861535"><ele>869.0</ele><time>2026-04-30T18:42:08.999Z</time></trkpt><trkpt lat="40.46914369646967" lon="-3.194197162199747"><ele>869.0</ele><time>2026-04-30T18:42:09.999Z</time></trkpt><trkpt lat="40.46911896022165" lon="-3.194102063812054"><ele>869.0</ele><time>2026-04-30T18:42:10.999Z</time></trkpt><trkpt lat="40.46910068652585" lon="-3.1940076879169097"><ele>869.0</ele><time>2026-04-30T18:42:11.999Z</time></trkpt><trkpt lat="40.46907738855229" lon="-3.19392213701731"><ele>869.0</ele><time>2026-04-30T18:42:12.999Z</time></trkpt><trkpt lat="40.469055742417446" lon="-3.1938359633712095"><ele>869.0</ele><time>2026-04-30T18:42:13.999Z</time></trkpt><trkpt lat="40.46903538760861" lon="-3.1937525626154506"><ele>869.0</ele><time>2026-04-30T18:42:14.999Z</time></trkpt><trkpt lat="40.46901448499228" lon="-3.193674281718085"><ele>869.0</ele><time>2026-04-30T18:42:15.999Z</time></trkpt><trkpt lat="40.46899492288168" lon="-3.19358853340677"><ele>869.6666666666667</ele><time>2026-04-30T18:42:16.999Z</time></trkpt><trkpt lat="40.46897615558577" lon="-3.1935027703187036"><ele>870.3333333333334</ele><time>2026-04-30T18:42:17.999Z</time></trkpt><trkpt lat="40.468947708143524" lon="-3.1933369088445005"><ele>871.0</ele><time>2026-04-30T18:42:19.999Z</time></trkpt><trkpt lat="40.46893628241164" lon="-3.1932477850974195"><ele>871.6666666666667</ele><time>2026-04-30T18:42:20.999Z</time></trkpt><trkpt lat="40.46892182421291" lon="-3.193165319265799"><ele>872.3333333333334</ele><time>2026-04-30T18:42:21.999Z</time></trkpt><trkpt lat="40.46890587152768" lon="-3.193072479791065"><ele>873.0</ele><time>2026-04-30T18:42:22.999Z</time></trkpt><trkpt lat="40.46889013828536" lon="-3.1929911768721544"><ele>873.8</ele><time>2026-04-30T18:42:23.999Z</time></trkpt><trkpt lat="40.46887604372461" lon="-3.1928670769349954"><ele>874.5999999999999</ele><time>2026-04-30T18:42:25.999Z</time></trkpt><trkpt lat="40.46886818131491" lon="-3.192771001426406"><ele>875.4000000000001</ele><time>2026-04-30T18:42:27.999Z</time></trkpt><trkpt lat="40.46885732962057" lon="-3.192672296662908"><ele>876.2</ele><time>2026-04-30T18:42:29.999Z</time></trkpt><trkpt lat="40.46884309285952" lon="-3.192540218532983"><ele>877.0</ele><time>2026-04-30T18:42:32.999Z</time></trkpt><trkpt lat="40.468827406623156" lon="-3.1924055793528994"><ele>877.2</ele><time>2026-04-30T18:42:34.999Z</time></trkpt><trkpt lat="40.46881870575394" lon="-3.19225250576896"><ele>877.4000000000001</ele><time>2026-04-30T18:42:36.999Z</time></trkpt><trkpt lat="40.46879887327205" lon="-3.1920877252524518"><ele>877.5999999999999</ele><time>2026-04-30T18:42:38.999Z</time></trkpt><trkpt lat="40.468792267286766" lon="-3.1919999362868676"><ele>877.8</ele><time>2026-04-30T18:42:39.999Z</time></trkpt><trkpt lat="40.468783487526494" lon="-3.1918986184559217"><ele>878.0</ele><time>2026-04-30T18:42:40.999Z</time></trkpt><trkpt lat="40.4687767728435" lon="-3.1917988303777935"><ele>878.1666666666667</ele><time>2026-04-30T18:42:41.999Z</time></trkpt><trkpt lat="40.468769141445975" lon="-3.191696224908982"><ele>878.3333333333334</ele><time>2026-04-30T18:42:42.999Z</time></trkpt><trkpt lat="40.46876552897057" lon="-3.1915886158820648"><ele>878.5</ele><time>2026-04-30T18:42:43.999Z</time></trkpt><trkpt lat="40.46875605368873" lon="-3.191478469970246"><ele>878.6666666666667</ele><time>2026-04-30T18:42:44.999Z</time></trkpt><trkpt lat="40.46874572050022" lon="-3.191358382508983"><ele>878.8333333333334</ele><time>2026-04-30T18:42:45.999Z</time></trkpt><trkpt lat="40.46872255234493" lon="-3.1912414912012528"><ele>879.0</ele><time>2026-04-30T18:42:46.999Z</time></trkpt><trkpt lat="40.46870287627036" lon="-3.19112641304973"><ele>878.8333333333334</ele><time>2026-04-30T18:42:47.999Z</time></trkpt><trkpt lat="40.46869799854825" lon="-3.191018277174986"><ele>878.6666666666667</ele><time>2026-04-30T18:42:48.999Z</time></trkpt><trkpt lat="40.46868880480181" lon="-3.190902819409612"><ele>878.5</ele><time>2026-04-30T18:42:49.999Z</time></trkpt><trkpt lat="40.46867477771916" lon="-3.190783663968169"><ele>878.3333333333334</ele><time>2026-04-30T18:42:50.999Z</time></trkpt><trkpt lat="40.468667537765725" lon="-3.19067118318636"><ele>878.1666666666667</ele><time>2026-04-30T18:42:51.999Z</time></trkpt><trkpt lat="40.468652672377225" lon="-3.19057419281811"><ele>878.0</ele><time>2026-04-30T18:42:52.999Z</time></trkpt><trkpt lat="40.46864801644757" lon="-3.1904690578306214"><ele>878.0</ele><time>2026-04-30T18:42:53.999Z</time></trkpt><trkpt lat="40.46863668652092" lon="-3.1903848634805794"><ele>878.0</ele><time>2026-04-30T18:42:54.999Z</time></trkpt><trkpt lat="40.46864169033606" lon="-3.1902951748739454"><ele>878.0</ele><time>2026-04-30T18:42:55.999Z</time></trkpt><trkpt lat="40.46865863882878" lon="-3.190146099595153"><ele>878.0</ele><time>2026-04-30T18:42:57.999Z</time></trkpt><trkpt lat="40.46862107725153" lon="-3.1899735085293677"><ele>878.0</ele><time>2026-04-30T18:42:59.999Z</time></trkpt><trkpt lat="40.468596781269405" lon="-3.18986899193656"><ele>878.4</ele><time>2026-04-30T18:43:00.998Z</time></trkpt><trkpt lat="40.46858497480034" lon="-3.1897616948115655"><ele>878.8</ele><time>2026-04-30T18:43:01.998Z</time></trkpt><trkpt lat="40.46858299862955" lon="-3.1896490386140486"><ele>879.2</ele><time>2026-04-30T18:43:02.998Z</time></trkpt><trkpt lat="40.46856849600303" lon="-3.1895267995201815"><ele>879.6</ele><time>2026-04-30T18:43:03.998Z</time></trkpt><trkpt lat="40.46855907236082" lon="-3.189400405440758"><ele>880.0</ele><time>2026-04-30T18:43:04.998Z</time></trkpt><trkpt lat="40.468549582245146" lon="-3.189275352088027"><ele>880.0</ele><time>2026-04-30T18:43:05.998Z</time></trkpt><trkpt lat="40.46853617137326" lon="-3.1891552866193016"><ele>880.0</ele><time>2026-04-30T18:43:06.998Z</time></trkpt><trkpt lat="40.46852640497114" lon="-3.189029170513293"><ele>880.0</ele><time>2026-04-30T18:43:07.998Z</time></trkpt><trkpt lat="40.468514561553086" lon="-3.1889103314049856"><ele>880.0</ele><time>2026-04-30T18:43:08.998Z</time></trkpt><trkpt lat="40.46849898866614" lon="-3.1887834599536244"><ele>880.0</ele><time>2026-04-30T18:43:09.998Z</time></trkpt><trkpt lat="40.46848556668159" lon="-3.1886626591845166"><ele>880.0</ele><time>2026-04-30T18:43:10.998Z</time></trkpt><trkpt lat="40.468480595980736" lon="-3.188528436817614"><ele>880.0</ele><time>2026-04-30T18:43:11.998Z</time></trkpt><trkpt lat="40.46846758625515" lon="-3.1883980859633736"><ele>880.0</ele><time>2026-04-30T18:43:12.998Z</time></trkpt><trkpt lat="40.46845309716546" lon="-3.188263611585292"><ele>880.0</ele><time>2026-04-30T18:43:13.998Z</time></trkpt><trkpt lat="40.4684318906" lon="-3.1881397544860532"><ele>880.0</ele><time>2026-04-30T18:43:14.998Z</time></trkpt><trkpt lat="40.46842089146708" lon="-3.1880039797640127"><ele>879.6</ele><time>2026-04-30T18:43:15.998Z</time></trkpt><trkpt lat="40.46840588712147" lon="-3.187869178311307"><ele>879.2</ele><time>2026-04-30T18:43:16.998Z</time></trkpt><trkpt lat="40.46839593683043" lon="-3.187729949387755"><ele>878.8</ele><time>2026-04-30T18:43:17.998Z</time></trkpt><trkpt lat="40.468386460124364" lon="-3.1875962552649106"><ele>878.4</ele><time>2026-04-30T18:43:18.998Z</time></trkpt><trkpt lat="40.46836808415721" lon="-3.1874694929646417"><ele>878.0</ele><time>2026-04-30T18:43:19.998Z</time></trkpt><trkpt lat="40.46835831434604" lon="-3.187335033526714"><ele>877.5999999999999</ele><time>2026-04-30T18:43:20.998Z</time></trkpt><trkpt lat="40.4683453500122" lon="-3.187207022194918"><ele>877.1999999999999</ele><time>2026-04-30T18:43:21.998Z</time></trkpt><trkpt lat="40.4683259304604" lon="-3.1870824545508425"><ele>876.8</ele><time>2026-04-30T18:43:22.998Z</time></trkpt><trkpt lat="40.468317000183376" lon="-3.1869519370969552"><ele>876.4</ele><time>2026-04-30T18:43:23.998Z</time></trkpt><trkpt lat="40.468313154062386" lon="-3.186830857495685"><ele>876.0</ele><time>2026-04-30T18:43:24.998Z</time></trkpt><trkpt lat="40.46829515315574" lon="-3.186714432042015"><ele>876.0</ele><time>2026-04-30T18:43:25.998Z</time></trkpt><trkpt lat="40.468280493264366" lon="-3.186600171995285"><ele>876.0</ele><time>2026-04-30T18:43:26.998Z</time></trkpt><trkpt lat="40.46827399506854" lon="-3.1864927104386935"><ele>876.0</ele><time>2026-04-30T18:43:27.998Z</time></trkpt><trkpt lat="40.46826449445314" lon="-3.1863908104287804"><ele>876.0</ele><time>2026-04-30T18:43:28.998Z</time></trkpt><trkpt lat="40.46825708460198" lon="-3.186292654890158"><ele>876.0</ele><time>2026-04-30T18:43:29.998Z</time></trkpt><trkpt lat="40.468249313789514" lon="-3.1861939168219133"><ele>876.0</ele><time>2026-04-30T18:43:31Z</time></trkpt><trkpt lat="40.468241361166974" lon="-3.1860990225133725"><ele>876.0</ele><time>2026-04-30T18:43:32Z</time></trkpt><trkpt lat="40.46823366962511" lon="-3.1860074680822295"><ele>876.0</ele><time>2026-04-30T18:43:33Z</time></trkpt><trkpt lat="40.46822198981848" lon="-3.1859123062791332"><ele>876.0</ele><time>2026-04-30T18:43:34Z</time></trkpt><trkpt lat="40.46821249899932" lon="-3.185812245395459"><ele>876.0</ele><time>2026-04-30T18:43:35Z</time></trkpt><trkpt lat="40.468204341345526" lon="-3.1857016666359015"><ele>876.0</ele><time>2026-04-30T18:43:36Z</time></trkpt><trkpt lat="40.46819440705166" lon="-3.185584638514454"><ele>876.0</ele><time>2026-04-30T18:43:37Z</time></trkpt><trkpt lat="40.46818710828084" lon="-3.1854687909727684"><ele>876.1999999999999</ele><time>2026-04-30T18:43:38Z</time></trkpt><trkpt lat="40.468175974278225" lon="-3.1853487220269345"><ele>876.3999999999999</ele><time>2026-04-30T18:43:39Z</time></trkpt><trkpt lat="40.46816229232502" lon="-3.185228247868538"><ele>876.6</ele><time>2026-04-30T18:43:40Z</time></trkpt><trkpt lat="40.46815226434157" lon="-3.1851040759322764"><ele>876.8</ele><time>2026-04-30T18:43:41Z</time></trkpt><trkpt lat="40.46813798112396" lon="-3.1849834345339905"><ele>877.0</ele><time>2026-04-30T18:43:42Z</time></trkpt><trkpt lat="40.468129962122376" lon="-3.1848652372874713"><ele>877.4000000000001</ele><time>2026-04-30T18:43:43Z</time></trkpt><trkpt lat="40.46811998598423" lon="-3.1847415256533305"><ele>877.8000000000001</ele><time>2026-04-30T18:43:44Z</time></trkpt><trkpt lat="40.468110346912084" lon="-3.1846156391021414"><ele>878.2</ele><time>2026-04-30T18:43:45Z</time></trkpt><trkpt lat="40.468087261194064" lon="-3.184490121670972"><ele>878.6</ele><time>2026-04-30T18:43:46Z</time></trkpt><trkpt lat="40.46808605567747" lon="-3.1843634619289785"><ele>879.0</ele><time>2026-04-30T18:43:47Z</time></trkpt><trkpt lat="40.4680741838083" lon="-3.1842373768471055"><ele>879.0</ele><time>2026-04-30T18:43:48Z</time></trkpt><trkpt lat="40.46806276656613" lon="-3.1841026215416868"><ele>879.0000000000001</ele><time>2026-04-30T18:43:49Z</time></trkpt><trkpt lat="40.46805095394847" lon="-3.183960388073101"><ele>879.0000000000001</ele><time>2026-04-30T18:43:50Z</time></trkpt><trkpt lat="40.46803982450501" lon="-3.1838251014708323"><ele>879.0</ele><time>2026-04-30T18:43:51Z</time></trkpt><trkpt lat="40.46802412467612" lon="-3.1837030433694857"><ele>879.0</ele><time>2026-04-30T18:43:52Z</time></trkpt><trkpt lat="40.4680088610457" lon="-3.1835899399798357"><ele>879.0</ele><time>2026-04-30T18:43:53Z</time></trkpt><trkpt lat="40.468000398089515" lon="-3.1834881503140045"><ele>879.0</ele><time>2026-04-30T18:43:54Z</time></trkpt><trkpt lat="40.467989559134764" lon="-3.183394323975111"><ele>879.0</ele><time>2026-04-30T18:43:55Z</time></trkpt><trkpt lat="40.46797993655838" lon="-3.1832635441933874"><ele>879.0</ele><time>2026-04-30T18:43:57Z</time></trkpt><trkpt lat="40.46797076897598" lon="-3.1831408715444707"><ele>879.0</ele><time>2026-04-30T18:44:00.999Z</time></trkpt><trkpt lat="40.4679629971379" lon="-3.1830329052883823"><ele>879.0</ele><time>2026-04-30T18:44:02.999Z</time></trkpt><trkpt lat="40.46795335399771" lon="-3.1829400844503235"><ele>878.8333333333334</ele><time>2026-04-30T18:44:04.999Z</time></trkpt><trkpt lat="40.4679461372958" lon="-3.1828291302497753"><ele>878.6666666666667</ele><time>2026-04-30T18:44:06.999Z</time></trkpt><trkpt lat="40.46792702733628" lon="-3.182736289789471"><ele>878.5</ele><time>2026-04-30T18:44:08.999Z</time></trkpt><trkpt lat="40.46790250494727" lon="-3.1825912509934833"><ele>878.3333333333334</ele><time>2026-04-30T18:44:10.999Z</time></trkpt><trkpt lat="40.46789648321876" lon="-3.1824923421599207"><ele>878.1666666666667</ele><time>2026-04-30T18:44:11.999Z</time></trkpt><trkpt lat="40.46788355805606" lon="-3.1823932721095494"><ele>878.0</ele><time>2026-04-30T18:44:12.999Z</time></trkpt><trkpt lat="40.46788458261921" lon="-3.1822900076451224"><ele>877.1666666666667</ele><time>2026-04-30T18:44:13.999Z</time></trkpt><trkpt lat="40.467882493619456" lon="-3.182188102343362"><ele>876.3333333333334</ele><time>2026-04-30T18:44:14.999Z</time></trkpt><trkpt lat="40.46787378809682" lon="-3.182077878505817"><ele>875.5</ele><time>2026-04-30T18:44:15.999Z</time></trkpt><trkpt lat="40.467868572705584" lon="-3.1819676440678006"><ele>874.6666666666667</ele><time>2026-04-30T18:44:16.999Z</time></trkpt><trkpt lat="40.467866238047606" lon="-3.181846254609512"><ele>873.8333333333334</ele><time>2026-04-30T18:44:17.999Z</time></trkpt><trkpt lat="40.46785744244518" lon="-3.181722836497647"><ele>873.0</ele><time>2026-04-30T18:44:18.999Z</time></trkpt><trkpt lat="40.46785230476417" lon="-3.1815973353335196"><ele>872.5999999999999</ele><time>2026-04-30T18:44:19.999Z</time></trkpt><trkpt lat="40.46784717795609" lon="-3.181478466303844"><ele>872.1999999999999</ele><time>2026-04-30T18:44:20.999Z</time></trkpt><trkpt lat="40.46784338061067" lon="-3.181361068566586"><ele>871.8</ele><time>2026-04-30T18:44:21.999Z</time></trkpt><trkpt lat="40.46783632457388" lon="-3.181239298383573"><ele>871.4</ele><time>2026-04-30T18:44:22.999Z</time></trkpt><trkpt lat="40.46782976582826" lon="-3.1811142613499213"><ele>871.0</ele><time>2026-04-30T18:44:23.999Z</time></trkpt><trkpt lat="40.467822235219145" lon="-3.1809900031855998"><ele>870.9999999999999</ele><time>2026-04-30T18:44:24.999Z</time></trkpt><trkpt lat="40.46782156515434" lon="-3.1808660234143353"><ele>871.0</ele><time>2026-04-30T18:44:25.999Z</time></trkpt><trkpt lat="40.46781776234499" lon="-3.1807522908513266"><ele>871.0</ele><time>2026-04-30T18:44:26.999Z</time></trkpt><trkpt lat="40.46781801912449" lon="-3.18065007188776"><ele>871.0</ele><time>2026-04-30T18:44:27.999Z</time></trkpt><trkpt lat="40.46781393956184" lon="-3.1805481120306887"><ele>870.9999999999999</ele><time>2026-04-30T18:44:28.999Z</time></trkpt><trkpt lat="40.46781258076505" lon="-3.1804462535586726"><ele>871.0</ele><time>2026-04-30T18:44:29.999Z</time></trkpt><trkpt lat="40.46781287730084" lon="-3.1803498253104245"><ele>871.1999999999999</ele><time>2026-04-30T18:44:30.999Z</time></trkpt><trkpt lat="40.46780197360783" lon="-3.180252279803356"><ele>871.3999999999999</ele><time>2026-04-30T18:44:31.999Z</time></trkpt><trkpt lat="40.467799669257346" lon="-3.180156915854132"><ele>871.6</ele><time>2026-04-30T18:44:32.999Z</time></trkpt><trkpt lat="40.46780096025274" lon="-3.1799967973627146"><ele>871.8</ele><time>2026-04-30T18:44:34.999Z</time></trkpt><trkpt lat="40.467795926103925" lon="-3.1798579524562274"><ele>872.0</ele><time>2026-04-30T18:44:36.999Z</time></trkpt><trkpt lat="40.46780055771248" lon="-3.179758166717008"><ele>872.0</ele><time>2026-04-30T18:44:38.999Z</time></trkpt><trkpt lat="40.46779995181167" lon="-3.1796753756870015"><ele>872.0</ele><time>2026-04-30T18:44:40.999Z</time></trkpt><trkpt lat="40.46778527354558" lon="-3.17956575845678"><ele>872.0</ele><time>2026-04-30T18:44:43.999Z</time></trkpt><trkpt lat="40.46776469376835" lon="-3.1794617557468454"><ele>872.0</ele><time>2026-04-30T18:44:46.999Z</time></trkpt><trkpt lat="40.46775086831238" lon="-3.1793594189974668"><ele>872.0</ele><time>2026-04-30T18:45:01.999Z</time></trkpt><trkpt lat="40.46774624460415" lon="-3.179271871559654"><ele>872.0</ele><time>2026-04-30T18:45:02.999Z</time></trkpt><trkpt lat="40.46774064856723" lon="-3.179177048729839"><ele>872.0</ele><time>2026-04-30T18:45:03.998Z</time></trkpt><trkpt lat="40.46773511420718" lon="-3.1790814130505214"><ele>871.6</ele><time>2026-04-30T18:45:04.998Z</time></trkpt><trkpt lat="40.46772890564063" lon="-3.178975700928044"><ele>871.2</ele><time>2026-04-30T18:45:05.998Z</time></trkpt><trkpt lat="40.467728177209445" lon="-3.178849253224392"><ele>870.8</ele><time>2026-04-30T18:45:06.998Z</time></trkpt><trkpt lat="40.4677082213627" lon="-3.1787109075514732"><ele>870.4</ele><time>2026-04-30T18:45:07.998Z</time></trkpt><trkpt lat="40.46769951202657" lon="-3.178570009305454"><ele>870.0</ele><time>2026-04-30T18:45:08.998Z</time></trkpt><trkpt lat="40.46768778055259" lon="-3.178445914267872"><ele>870.0</ele><time>2026-04-30T18:45:09.998Z</time></trkpt><trkpt lat="40.46766503027295" lon="-3.178327109205167"><ele>870.0</ele><time>2026-04-30T18:45:10.998Z</time></trkpt><trkpt lat="40.46760445172123" lon="-3.178247892616089"><ele>870.0</ele><time>2026-04-30T18:45:11.998Z</time></trkpt><trkpt lat="40.46754138859248" lon="-3.1781877297427497"><ele>870.0</ele><time>2026-04-30T18:45:12.998Z</time></trkpt><trkpt lat="40.467470008211485" lon="-3.178115861305913"><ele>870.0</ele><time>2026-04-30T18:45:13.998Z</time></trkpt><trkpt lat="40.46738683342237" lon="-3.1780451449096696"><ele>870.0</ele><time>2026-04-30T18:45:14.998Z</time></trkpt><trkpt lat="40.467290887926424" lon="-3.1779647553218817"><ele>869.8</ele><time>2026-04-30T18:45:15.998Z</time></trkpt><trkpt lat="40.46719103209679" lon="-3.177895596023137"><ele>869.6</ele><time>2026-04-30T18:45:16.998Z</time></trkpt><trkpt lat="40.46708772819219" lon="-3.177826103689554"><ele>869.4000000000001</ele><time>2026-04-30T18:45:17.998Z</time></trkpt><trkpt lat="40.46700879252443" lon="-3.1777736055820935"><ele>869.2</ele><time>2026-04-30T18:45:18.998Z</time></trkpt><trkpt lat="40.4669543717301" lon="-3.177730771212893"><ele>869.0</ele><time>2026-04-30T18:45:20.998Z</time></trkpt><trkpt lat="40.466844315839694" lon="-3.1776766004300505"><ele>869.4000000000001</ele><time>2026-04-30T18:45:25.998Z</time></trkpt><trkpt lat="40.46677013397502" lon="-3.177637035239204"><ele>869.8000000000001</ele><time>2026-04-30T18:45:26.998Z</time></trkpt><trkpt lat="40.466704597316856" lon="-3.177602558391144"><ele>870.1999999999999</ele><time>2026-04-30T18:45:27.998Z</time></trkpt><trkpt lat="40.46660120651489" lon="-3.177550959139474"><ele>870.5999999999999</ele><time>2026-04-30T18:45:29.998Z</time></trkpt><trkpt lat="40.4665142032319" lon="-3.177616368832458"><ele>871.0</ele><time>2026-04-30T18:45:32.998Z</time></trkpt><trkpt lat="40.46647904694479" lon="-3.1777589335709697"><ele>870.9999999999999</ele><time>2026-04-30T18:45:34.998Z</time></trkpt><trkpt lat="40.46645541468064" lon="-3.177837077027105"><ele>871.0</ele><time>2026-04-30T18:45:35.998Z</time></trkpt><trkpt lat="40.46642598995588" lon="-3.177918044509691"><ele>871.0</ele><time>2026-04-30T18:45:37Z</time></trkpt><trkpt lat="40.46639415728408" lon="-3.1780134482715403"><ele>871.0</ele><time>2026-04-30T18:45:38Z</time></trkpt><trkpt lat="40.46635496542276" lon="-3.1781238040726025"><ele>870.9999999999999</ele><time>2026-04-30T18:45:39Z</time></trkpt><trkpt lat="40.46630705351869" lon="-3.178249046687908"><ele>871.0</ele><time>2026-04-30T18:45:40Z</time></trkpt><trkpt lat="40.46626043149822" lon="-3.1783737592643067"><ele>871.5999999999999</ele><time>2026-04-30T18:45:41Z</time></trkpt><trkpt lat="40.46622195406671" lon="-3.178485053536775"><ele>872.1999999999999</ele><time>2026-04-30T18:45:42Z</time></trkpt><trkpt lat="40.466196466731816" lon="-3.1785620080417964"><ele>872.8000000000001</ele><time>2026-04-30T18:45:43Z</time></trkpt><trkpt lat="40.466143981589006" lon="-3.178671283808225"><ele>873.4000000000001</ele><time>2026-04-30T18:45:45Z</time></trkpt><trkpt lat="40.46602208168086" lon="-3.1786905422421814"><ele>874.0</ele><time>2026-04-30T18:45:47Z</time></trkpt><trkpt lat="40.46593543802299" lon="-3.178663807236437"><ele>874.0</ele><time>2026-04-30T18:45:48Z</time></trkpt><trkpt lat="40.4658555398314" lon="-3.178645727050956"><ele>874.0000000000001</ele><time>2026-04-30T18:45:49Z</time></trkpt><trkpt lat="40.46578245681832" lon="-3.17863376879468"><ele>874.0000000000001</ele><time>2026-04-30T18:45:50Z</time></trkpt><trkpt lat="40.46568577929107" lon="-3.178631183048243"><ele>874.0</ele><time>2026-04-30T18:45:52Z</time></trkpt><trkpt lat="40.46561275263295" lon="-3.1788035006390083"><ele>874.0</ele><time>2026-04-30T18:45:58Z</time></trkpt><trkpt lat="40.46558747835542" lon="-3.1789130549737337"><ele>874.0</ele><time>2026-04-30T18:46:00Z</time></trkpt></trkseg></trk></gpx>